[[{"header":{"parameterUnit":"m.s-1","parameterCategory":1,"la1":31.0,"la2":29.5877,"lo1":-88.7671,"lo2":-86.6584,"dy":0.0162,"dx":0.0185,"nx":115,"ny":88,"refTime":"2026-04-20T12:00:00:Z","depth":0,"parameterNumber":2,"parameterNumberName":"U-component_of_WINDS"},"data":[0.0,0.0,0.0,0.0,0.0,0.0,0.0,0.0,0.0,0.0,0.0,0.0,0.0,0.0,0.0,0.0,0.0,0.0,0.0,0.0,0.0,0.0,0.0,0.0,0.0,0.0,0.0,0.0,0.0,0.0,0.0,0.0,0.0,0.0,0.0,0.0,0.0,0.0,0.0,0.0,0.0,0.0,0.0,0.0,0.0,0.0,0.0,0.0,0.0,0.0,0.0,0.0,0.0,0.0,0.0,0.0,0.0,0.0,0.0,0.0,0.0,0.0,0.0,0.0,0.0,0.0,0.0,0.0,0.0,0.0,0.0,0.0,0.0,0.0,0.0,0.0,0.0,0.0,0.0,0.0,0.0,0.0,0.0,0.0,0.0,0.0,0.0,0.0,0.0,0.0,0.0,0.0,0.0,0.0,0.0,0.0,0.0,0.0,0.0,0.0,0.0,0.0,0.0,0.0,0.0,0.0,0.0,0.0,0.0,0.0,0.0,0.0,0.0,0.0,0.0,0.0,0.0,0.0,0.0,0.0,0.0,0.0,0.0,0.0,0.0,0.0,0.0,0.0,0.0,0.0,0.0,0.0,0.0,0.0,0.0,0.0,0.0,0.0,0.0,0.0,0.0,0.0,0.0,0.0,0.0,0.0,0.0,0.0,0.0,0.0,0.0,0.0,0.0,0.0,0.0,0.0,0.0,0.0,0.0,0.0,0.0,0.0,0.0,0.0,0.0,0.0,0.0,0.0,0.0,0.0,0.0,0.0,0.0,0.0,0.0,0.0,0.0,0.0,0.0,0.0,0.0,0.0,0.0,0.0,0.0,0.0,0.0,0.0,0.0,0.0,0.0,0.0,0.0,0.0,0.0,0.0,0.0,0.0,0.0,0.0,0.0,0.0,0.0,0.0,0.0,0.0,0.0,0.0,0.0,0.0,0.0,0.0,0.0,0.0,0.0,0.0,0.0,0.0,0.0,0.0,0.0,0.0,0.0,0.0,0.0,0.0,0.0,0.0,0.0,0.0,0.0,0.0,0.0,0.0,0.0,0.0,0.0,0.0,0.0,0.0,0.0,0.0,0.0,0.0,0.0,0.0,0.0,0.0,0.0,0.0,0.0,0.0,0.0,0.0,0.0,0.0,0.0,0.0,0.0,0.0,0.0,0.0,0.0,0.0,0.0,0.0,0.0,0.0,0.0,0.0,0.0,0.0,0.0,0.0,0.0,0.0,0.0,0.0,0.0,0.0,0.0,0.0,0.0,0.0,0.0,0.0,0.0,0.0,0.0,0.0,0.0,0.0,0.0,0.0,0.0,0.0,0.0,0.0,0.0,0.0,0.0,0.0,0.0,0.0,0.0,0.0,0.0,0.0,0.0,0.0,0.0,0.0,0.0,0.0,0.0,0.0,0.0,0.0,0.0,0.0,0.0,0.0,0.0,0.0,0.0,0.0,0.0,0.0,0.0,0.0,0.0,0.0,0.0,0.0,0.0,0.0,0.0,0.0,0.0,0.0,0.0,0.0,0.0,0.0,0.0,0.0,0.0,0.0,0.0,0.0,0.0,0.0,0.0,0.0,0.0,0.0,0.0,0.0,0.0,0.0,0.0,0.0,0.0,0.0,0.0,0.0,0.0,0.0,0.0,0.0,0.0,0.0,0.0,0.0,0.0,0.0,0.0,0.0,0.0,0.0,0.0,0.0,0.0,0.0,0.0,0.0,0.0,0.0,0.0,0.0,0.0,0.0,0.0,0.0,0.0,0.0,0.0,0.0,0.0,0.0,0.0,0.0,0.0,0.0,0.0,0.0,0.0,0.0,0.0,0.0,0.0,0.0,0.0,0.0,0.0,0.0,0.0,0.0,0.0,0.0,0.0,0.0,0.0,0.0,0.0,0.0,0.0,0.0,0.0,0.0,0.0,0.0,0.0,0.0,0.0,0.0,0.0,0.0,0.0,0.0,0.0,0.0,0.0,0.0,0.0,0.0,0.0,0.0,0.0,0.0,0.0,0.0,0.0,0.0,0.0,0.0,0.0,0.0,0.0,0.0,0.0,0.0,0.0,0.0,0.0,0.0,0.0,0.0,0.0,0.0,0.0,0.0,0.0,0.0,0.0,0.0,0.0,0.0,0.0,0.0,0.0,0.0,0.0,0.0,0.0,0.0,0.0,0.0,0.0,0.0,0.0,0.0,0.0,0.0,0.0,0.0,0.0,0.0,0.0,0.0,0.0,0.0,0.0,0.0,0.0,0.0,0.0,0.0,0.0,0.0,0.0,0.0,0.0,0.0,0.0,0.0,0.0,0.0,0.0,0.0,0.0,0.0,0.0,0.0,0.0,0.0,0.0,0.0,0.0,0.0,0.0,0.0,0.0,0.0,0.0,0.0,0.0,0.0,0.0,0.0,0.0,0.0,0.0,0.0,0.0,0.0,0.0,0.0,0.0,0.0,0.0,0.0,0.0,0.0,0.0,0.0,0.0,0.0,0.0,0.0,0.0,0.0,0.0,0.0,0.0,0.0,0.0,0.0,0.0,0.0,0.0,0.0,0.0,0.0,0.0,0.0,0.0,0.0,0.0,0.0,0.0,0.0,0.0,0.0,0.0,0.0,0.0,0.0,0.0,0.0,0.0,0.0,0.0,0.0,0.0,0.0,0.0,0.0,0.0,0.0,0.0,0.0,0.0,0.0,0.0,0.0,0.0,0.0,0.0,0.0,0.0,0.0,0.0,0.0,0.0,0.0,0.0,0.0,0.0,0.0,0.0,0.0,0.0,0.0,0.0,0.0,0.0,0.0,0.0,0.0,0.0,0.0,0.0,0.0,0.0,0.0,0.0,0.0,0.0,0.0,0.0,0.0,0.0,0.0,0.0,0.0,0.0,0.0,0.0,0.0,0.0,0.0,0.0,0.0,0.0,0.0,0.0,0.0,0.0,0.0,0.0,0.0,0.0,0.0,0.0,0.0,0.0,0.0,0.0,0.0,0.0,0.0,0.0,0.0,0.0,0.0,0.0,0.0,0.0,0.0,0.0,0.0,0.0,0.0,0.0,0.0,0.0,0.0,0.0,0.0,0.0,0.0,0.0,0.0,0.0,0.0,0.0,0.0,0.0,0.0,0.0,0.0,0.0,0.0,0.0,0.0,0.0,0.0,0.0,0.0,0.0,0.0,0.0,0.0,0.0,0.0,0.0,0.0,0.0,0.0,0.0,0.0,0.0,0.0,0.0,0.0,0.0,0.0,0.0,0.0,0.0,0.0,0.0,0.0,0.0,0.0,0.0,0.0,0.0,0.0,0.0,0.0,0.0,0.0,0.0,0.0,0.0,0.0,0.0,0.0,0.0,0.0,0.0,0.0,0.0,0.0,0.0,0.0,0.0,0.0,0.0,0.0,0.0,0.0,0.0,0.0,0.0,0.0,0.0,0.0,0.0,0.0,0.0,0.0,0.0,0.0,0.0,0.0,0.0,0.0,0.0,0.0,0.0,0.0,0.0,0.0,0.0,0.0,0.0,0.0,0.0,0.0,0.0,0.0,0.0,0.0,0.0,0.0,0.0,0.0,0.0,0.0,0.0,0.0,0.0,0.0,0.0,0.0,0.0,0.0,0.0,0.0,0.0,0.0,0.0,0.0,0.0,0.0,0.0,0.0,0.0,0.0,0.0,0.0,0.0,0.0,0.0,0.0,0.0,0.0,0.0,0.0,0.0,0.0,0.0,0.0,0.0,0.0,0.0,0.0,0.0,0.0,0.0,0.0,0.0,0.0,0.0,0.0,0.0,0.0,0.0,0.0,0.0,0.0,0.0,0.0,0.0,0.0,0.0,0.0,0.0,0.0,0.0,0.0,0.0,0.0,0.0,0.0,0.0,0.0,0.0,0.0,0.0,0.0,0.0,0.0,0.0,0.0,0.0,0.0,0.0,0.0,0.0,0.0,0.0,0.0,0.0,0.0,0.0,0.0,0.0,0.0,0.0,0.0,0.0,0.0,0.0,0.0,0.0,0.0,0.0,0.0,0.0,0.0,0.0,0.0,0.0,0.0,0.0,0.0,0.0,0.0,0.0,0.0,0.0,0.0,0.0,0.0,0.0,0.0,0.0,0.0,0.0,0.0,0.0,0.0,0.0,0.0,0.0,0.0,0.0,0.0,0.0,0.0,0.0,0.0,0.0,0.0,0.0,0.0,0.0,0.0,0.0,0.0,0.0,0.0,0.0,0.0,0.0,0.0,0.0,0.0,0.0,0.0,0.0,0.0,0.0,0.0,0.0,0.0,0.0,0.0,0.0,0.0,0.0,0.0,-1.2036,0.0,0.0,0.0,0.0,0.0,0.0,0.0,0.0,0.0,0.0,0.0,0.0,0.0,0.0,0.0,0.0,0.0,0.0,0.0,0.0,0.0,0.0,0.0,0.0,0.0,0.0,0.0,0.0,0.0,0.0,0.0,0.0,0.0,0.0,0.0,0.0,0.0,0.0,0.0,0.0,0.0,0.0,0.0,0.0,0.0,0.0,0.0,0.0,0.0,0.0,0.0,0.0,0.0,0.0,0.0,0.0,0.0,0.0,0.0,0.0,0.0,0.0,0.0,0.0,0.0,0.0,0.0,0.0,0.0,0.0,0.0,0.0,0.0,0.0,0.0,0.0,0.0,0.0,0.0,0.0,0.0,0.0,0.0,0.0,0.0,0.0,0.0,0.0,0.0,0.0,0.0,0.0,0.0,0.0,0.0,0.0,0.0,0.0,0.0,0.0,0.0,0.0,0.0,0.0,0.0,0.0,0.0,0.0,0.0,0.0,-1.3899,-1.4028,-1.4103,-1.3443,-1.202,0.0,0.0,0.0,0.0,0.0,0.0,0.0,0.0,0.0,0.0,0.0,0.0,0.0,0.0,0.0,0.0,0.0,0.0,0.0,0.0,0.0,0.0,0.0,0.0,0.0,0.0,0.0,0.0,0.0,0.0,0.0,0.0,0.0,0.0,0.0,0.0,0.0,0.0,0.0,0.0,0.0,0.0,0.0,0.0,0.0,0.0,0.0,0.0,0.0,0.0,0.0,0.0,0.0,0.0,0.0,0.0,0.0,0.0,0.0,0.0,0.0,0.0,0.0,0.0,0.0,0.0,0.0,0.0,0.0,0.0,0.0,0.0,0.0,0.0,0.0,0.0,0.0,0.0,0.0,0.0,0.0,0.0,0.0,0.0,0.0,0.0,0.0,0.0,0.0,0.0,0.0,0.0,0.0,0.0,0.0,0.0,0.0,0.0,0.0,0.0,0.0,0.0,0.0,0.0,0.0,0.0,0.0,0.0,0.0,0.0,0.0,0.0,-1.3927,-1.3461,-1.2382,0.0,0.0,0.0,0.0,0.0,0.0,0.0,0.0,0.0,0.0,0.0,0.0,0.0,0.0,0.0,0.0,0.0,0.0,0.0,0.0,0.0,0.0,0.0,0.0,0.0,0.0,0.0,0.0,0.0,0.0,0.0,0.0,0.0,0.0,0.0,0.0,0.0,0.0,0.0,0.0,0.0,0.0,0.0,0.0,0.0,0.0,0.0,0.0,0.0,0.0,0.0,0.0,0.0,0.0,0.0,0.0,0.0,0.0,0.0,0.0,0.0,0.0,0.0,0.0,0.0,0.0,0.0,0.0,0.0,0.0,0.0,0.0,0.0,0.0,0.0,0.0,0.0,0.0,0.0,0.0,0.0,0.0,0.0,0.0,0.0,0.0,0.0,0.0,0.0,0.0,0.0,0.0,0.0,0.0,0.0,0.0,0.0,0.0,0.0,0.0,0.0,0.0,0.0,0.0,0.0,0.0,0.0,0.0,0.0,0.0,-1.3059,-1.3774,-1.3853,0.0,-1.3803,0.0,0.0,0.0,0.0,0.0,0.0,0.0,0.0,0.0,0.0,0.0,0.0,0.0,0.0,0.0,0.0,0.0,0.0,0.0,0.0,0.0,0.0,0.0,0.0,0.0,0.0,0.0,0.0,0.0,0.0,0.0,0.0,0.0,0.0,0.0,0.0,0.0,0.0,0.0,0.0,0.0,0.0,0.0,0.0,0.0,0.0,0.0,0.0,0.0,0.0,0.0,0.0,0.0,0.0,0.0,0.0,0.0,0.0,0.0,0.0,0.0,0.0,0.0,0.0,0.0,0.0,0.0,0.0,0.0,0.0,0.0,0.0,0.0,0.0,0.0,0.0,0.0,0.0,0.0,0.0,0.0,0.0,0.0,0.0,0.0,0.0,0.0,0.0,0.0,0.0,0.0,0.0,0.0,0.0,0.0,0.0,0.0,0.0,0.0,0.0,0.0,0.0,0.0,0.0,0.0,0.0,0.0,0.0,0.0,0.0,-1.2907,-1.3667,-1.3298,-1.3113,0.0,0.0,0.0,0.0,0.0,0.0,0.0,0.0,0.0,0.0,0.0,0.0,0.0,0.0,0.0,0.0,0.0,0.0,0.0,0.0,0.0,0.0,0.0,0.0,0.0,0.0,0.0,0.0,0.0,0.0,0.0,0.0,0.0,0.0,0.0,0.0,0.0,0.0,0.0,0.0,0.0,0.0,0.0,0.0,0.0,0.0,0.0,0.0,0.0,0.0,0.0,0.0,0.0,0.0,0.0,0.0,0.0,0.0,0.0,0.0,0.0,0.0,0.0,0.0,0.0,0.0,0.0,0.0,0.0,0.0,0.0,0.0,0.0,0.0,0.0,0.0,0.0,0.0,0.0,0.0,0.0,0.0,0.0,0.0,0.0,0.0,0.0,0.0,0.0,0.0,0.0,0.0,0.0,0.0,0.0,0.0,0.0,0.0,0.0,0.0,0.0,0.0,0.0,0.0,0.0,0.0,0.0,0.0,0.0,0.0,-1.1591,-1.231,-1.3225,-1.2783,-1.2529,-1.2599,0.0,0.0,0.0,0.0,0.0,0.0,0.0,0.0,0.0,0.0,0.0,0.0,0.0,0.0,0.0,0.0,0.0,0.0,0.0,0.0,0.0,0.0,0.0,0.0,0.0,0.0,0.0,0.0,0.0,0.0,0.0,0.0,0.0,0.0,0.0,0.0,0.0,0.0,0.0,0.0,0.0,0.0,0.0,0.0,0.0,0.0,0.0,0.0,0.0,0.0,0.0,0.0,0.0,0.0,0.0,0.0,0.0,0.0,0.0,0.0,0.0,0.0,0.0,0.0,0.0,0.0,0.0,0.0,0.0,0.0,0.0,0.0,0.0,0.0,0.0,0.0,0.0,0.0,0.0,0.0,0.0,0.0,0.0,0.0,0.0,0.0,0.0,0.0,0.0,0.0,0.0,0.0,0.0,0.0,0.0,0.0,0.0,0.0,0.0,0.0,0.0,0.0,0.0,0.0,0.0,0.0,0.0,0.0,0.0,-1.0324,-1.1032,-1.2483,-1.25,-1.2511,0.0,0.0,0.0,0.0,0.0,0.0,0.0,0.0,0.0,0.0,0.0,0.0,0.0,0.0,0.0,0.0,0.0,0.0,0.0,0.0,0.0,0.0,0.0,0.0,0.0,0.0,0.0,0.0,0.0,0.0,0.0,0.0,0.0,0.0,0.0,0.0,0.0,0.0,0.0,0.0,0.0,0.0,0.0,0.0,0.0,0.0,0.0,0.0,0.0,0.0,0.0,0.0,0.0,0.0,0.0,0.0,0.0,0.0,0.0,0.0,0.0,0.0,0.0,0.0,0.0,0.0,0.0,0.0,0.0,0.0,0.0,0.0,0.0,0.0,0.0,0.0,0.0,0.0,0.0,0.0,0.0,0.0,0.0,0.0,0.0,0.0,0.0,0.0,0.0,0.0,0.0,0.0,0.0,0.0,0.0,0.0,0.0,0.0,0.0,0.0,0.0,0.0,0.0,0.0,0.0,0.0,0.0,0.0,0.0,-0.9571,-1.0475,-1.1235,-1.1771,-1.1806,-1.1564,0.0,0.0,0.0,0.0,0.0,0.0,0.0,0.0,0.0,0.0,0.0,0.0,0.0,0.0,0.0,0.0,0.0,0.0,0.0,0.0,0.0,0.0,0.0,0.0,0.0,0.0,0.0,0.0,0.0,0.0,0.0,0.0,0.0,0.0,0.0,0.0,0.0,0.0,0.0,0.0,0.0,0.0,0.0,0.0,0.0,0.0,0.0,0.0,0.0,0.0,0.0,0.0,0.0,0.0,0.0,0.0,0.0,0.0,0.0,0.0,0.0,0.0,0.0,0.0,0.0,0.0,0.0,0.0,0.0,0.0,0.0,0.0,0.0,0.0,0.0,0.0,0.0,0.0,0.0,0.0,0.0,0.0,0.0,0.0,0.0,0.0,0.0,0.0,0.0,0.0,0.0,0.0,0.0,0.0,0.0,0.0,0.0,0.0,0.0,0.0,0.0,0.0,0.0,0.0,0.0,0.0,0.0,0.0,0.0,-0.991,0.0,-1.1996,0.0,-1.1747,-1.1481,0.0,0.0,0.0,0.0,0.0,0.0,0.0,0.0,0.0,0.0,0.0,0.0,0.0,0.0,0.0,0.0,0.0,0.0,0.0,0.0,0.0,0.0,0.0,0.0,0.0,0.0,0.0,0.0,0.0,0.0,0.0,0.0,0.0,0.0,0.0,0.0,0.0,0.0,0.0,0.0,0.0,0.0,0.0,0.0,0.0,0.0,0.0,0.0,0.0,0.0,0.0,0.0,0.0,0.0,0.0,0.0,0.0,0.0,0.0,0.0,0.0,0.0,0.0,0.0,0.0,0.0,0.0,0.0,0.0,0.0,0.0,0.0,0.0,0.0,0.0,0.0,0.0,0.0,0.0,0.0,0.0,0.0,0.0,0.0,0.0,0.0,0.0,0.0,0.0,0.0,0.0,0.0,0.0,0.0,0.0,0.0,0.0,0.0,0.0,0.0,0.0,0.0,0.0,0.0,0.0,0.0,0.0,0.0,-1.2001,-1.1498,-1.2835,-1.3208,-1.2517,-1.2473,-1.2473,0.0,0.0,0.0,0.0,0.0,0.0,0.0,0.0,0.0,0.0,0.0,0.0,0.0,0.0,0.0,0.0,0.0,0.0,0.0,0.0,0.0,0.0,0.0,0.0,0.0,0.0,0.0,0.0,0.0,0.0,0.0,0.0,0.0,0.0,0.0,0.0,0.0,0.0,0.0,0.0,0.0,0.0,0.0,0.0,0.0,0.0,0.0,0.0,0.0,0.0,0.0,0.0,0.0,0.0,0.0,0.0,0.0,0.0,0.0,0.0,0.0,0.0,0.0,0.0,0.0,0.0,0.0,0.0,0.0,0.0,0.0,0.0,0.0,0.0,0.0,0.0,0.0,0.0,0.0,0.0,0.0,0.0,0.0,0.0,0.0,0.0,0.0,0.0,0.0,0.0,0.0,0.0,0.0,0.0,0.0,0.0,0.0,0.0,0.0,0.0,0.0,0.0,0.0,0.0,0.0,0.0,0.0,0.0,0.0,-1.3018,-1.3906,-1.3828,-1.2576,-1.2514,-1.2272,0.0,0.0,0.0,0.0,0.0,0.0,0.0,0.0,0.0,0.0,0.0,0.0,0.0,0.0,0.0,0.0,0.0,0.0,0.0,0.0,0.0,0.0,0.0,0.0,0.0,0.0,0.0,0.0,0.0,0.0,0.0,0.0,0.0,0.0,0.0,0.0,0.0,0.0,0.0,0.0,0.0,0.0,0.0,0.0,0.0,0.0,0.0,0.0,0.0,0.0,0.0,0.0,0.0,0.0,0.0,0.0,0.0,0.0,0.0,0.0,0.0,0.0,0.0,0.0,0.0,0.0,0.0,0.0,0.0,0.0,0.0,0.0,0.0,0.0,0.0,0.0,0.0,0.0,0.0,0.0,0.0,0.0,0.0,0.0,0.0,0.0,0.0,0.0,0.0,0.0,0.0,0.0,0.0,0.0,0.0,0.0,0.0,0.0,0.0,0.0,0.0,0.0,0.0,0.0,0.0,0.0,0.0,0.0,0.0,-1.6676,-1.672,-1.6093,-1.4573,-1.4298,-1.3661,-1.2685,0.0,0.0,0.0,0.0,0.0,0.0,0.0,0.0,0.0,0.0,0.0,0.0,0.0,0.0,0.0,0.0,0.0,0.0,0.0,0.0,0.0,0.0,0.0,0.0,0.0,0.0,0.0,0.0,0.0,0.0,0.0,0.0,0.0,0.0,0.0,0.0,0.0,0.0,0.0,0.0,0.0,0.0,0.0,0.0,0.0,0.0,0.0,0.0,0.0,0.0,0.0,0.0,0.0,0.0,0.0,0.0,0.0,0.0,0.0,0.0,0.0,0.0,0.0,0.0,0.0,0.0,0.0,0.0,0.0,0.0,0.0,0.0,0.0,0.0,0.0,0.0,0.0,0.0,0.0,0.0,0.0,0.0,0.0,0.0,0.0,0.0,0.0,0.0,0.0,0.0,0.0,0.0,0.0,0.0,0.0,0.0,0.0,0.0,0.0,0.0,0.0,0.0,0.0,0.0,0.0,0.0,0.0,0.0,-2.175,-2.1015,-1.9843,-1.8166,-1.7409,-1.6377,0.0,0.0,0.0,0.0,0.0,0.0,0.0,0.0,0.0,0.0,0.0,0.0,0.0,0.0,0.0,0.0,0.0,0.0,0.0,0.0,0.0,0.0,0.0,0.0,0.0,0.0,0.0,0.0,0.0,0.0,0.0,0.0,0.0,0.0,0.0,0.0,0.0,0.0,0.0,0.0,0.0,0.0,0.0,0.0,0.0,0.0,0.0,0.0,0.0,0.0,0.0,0.0,0.0,0.0,0.0,0.0,0.0,0.0,0.0,0.0,0.0,0.0,0.0,0.0,0.0,0.0,0.0,0.0,0.0,0.0,0.0,0.0,0.0,0.0,0.0,0.0,0.0,0.0,0.0,0.0,0.0,0.0,0.0,0.0,0.0,0.0,0.0,0.0,0.0,0.0,0.0,0.0,0.0,0.0,0.0,0.0,0.0,0.0,0.0,0.0,0.0,0.0,0.0,0.0,0.0,0.0,0.0,0.0,0.0,-2.388,-2.5197,-2.4001,-2.016,-1.9374,-1.8172,0.0,0.0,0.0,0.0,0.0,0.0,0.0,0.0,0.0,0.0,0.0,0.0,0.0,0.0,0.0,0.0,0.0,0.0,0.0,0.0,0.0,0.0,0.0,0.0,0.0,0.0,0.0,0.0,0.0,0.0,0.0,0.0,0.0,0.0,0.0,0.0,0.0,0.0,0.0,0.0,0.0,0.0,0.0,0.0,0.0,0.0,0.0,0.0,0.0,0.0,0.0,0.0,0.0,0.0,0.0,0.0,0.0,0.0,0.0,0.0,0.0,0.0,0.0,0.0,0.0,0.0,0.0,0.0,0.0,0.0,0.0,0.0,0.0,0.0,0.0,0.0,0.0,0.0,0.0,0.0,0.0,0.0,0.0,0.0,0.0,0.0,0.0,0.0,0.0,0.0,0.0,0.0,0.0,0.0,0.0,0.0,0.0,0.0,0.0,0.0,0.0,0.0,0.0,0.0,0.0,0.0,0.0,0.0,-2.4253,-2.5718,-2.8372,-2.7893,-2.3988,-2.1802,-1.9734,0.0,0.0,0.0,0.0,0.0,0.0,0.0,0.0,0.0,0.0,0.0,0.0,0.0,0.0,0.0,0.0,0.0,0.0,0.0,0.0,0.0,0.0,0.0,0.0,0.0,0.0,0.0,0.0,0.0,0.0,0.0,0.0,0.0,0.0,0.0,0.0,0.0,0.0,0.0,0.0,0.0,0.0,0.0,0.0,0.0,0.0,0.0,0.0,0.0,0.0,0.0,0.0,0.0,0.0,0.0,0.0,0.0,0.0,0.0,0.0,0.0,0.0,0.0,0.0,0.0,0.0,0.0,0.0,0.0,0.0,0.0,0.0,0.0,0.0,0.0,0.0,0.0,0.0,0.0,0.0,0.0,0.0,0.0,0.0,0.0,0.0,0.0,0.0,0.0,0.0,0.0,0.0,0.0,0.0,0.0,0.0,0.0,0.0,0.0,0.0,0.0,0.0,0.0,0.0,0.0,0.0,0.0,0.0,-2.5993,-2.7415,-3.0837,-3.1369,-2.8742,-2.4465,-2.1161,0.0,0.0,0.0,0.0,0.0,0.0,0.0,0.0,0.0,0.0,0.0,0.0,0.0,0.0,0.0,0.0,0.0,0.0,0.0,0.0,0.0,0.0,0.0,0.0,0.0,0.0,0.0,0.0,0.0,0.0,0.0,0.0,0.0,0.0,0.0,0.0,0.0,0.0,0.0,0.0,0.0,0.0,0.0,0.0,0.0,0.0,0.0,0.0,0.0,0.0,0.0,0.0,0.0,0.0,0.0,0.0,0.0,0.0,0.0,0.0,0.0,0.0,0.0,0.0,0.0,0.0,0.0,0.0,0.0,0.0,0.0,0.0,0.0,0.0,0.0,0.0,0.0,0.0,0.0,0.0,0.0,0.0,0.0,0.0,0.0,0.0,0.0,0.0,0.0,0.0,0.0,0.0,0.0,0.0,0.0,0.0,0.0,0.0,0.0,0.0,0.0,0.0,0.0,0.0,0.0,0.0,0.0,0.0,-2.8117,-2.9532,-3.2956,-3.3736,-3.1554,-2.6499,-2.2915,0.0,0.0,0.0,0.0,0.0,0.0,0.0,0.0,0.0,0.0,0.0,0.0,0.0,0.0,0.0,0.0,0.0,0.0,0.0,0.0,0.0,0.0,0.0,0.0,0.0,0.0,0.0,0.0,0.0,0.0,0.0,0.0,0.0,0.0,0.0,0.0,0.0,0.0,0.0,0.0,0.0,0.0,0.0,0.0,0.0,0.0,0.0,0.0,-1.0318,0.0,0.0,0.0,0.0,0.0,0.0,0.0,0.0,0.0,0.0,0.0,0.0,0.0,0.0,0.0,0.0,0.0,0.0,0.0,0.0,0.0,0.0,0.0,0.0,0.0,0.0,0.0,0.0,0.0,0.0,0.0,0.0,0.0,0.0,0.0,0.0,0.0,0.0,0.0,0.0,0.0,0.0,0.0,0.0,0.0,0.0,0.0,0.0,0.0,0.0,0.0,0.0,0.0,0.0,0.0,0.0,0.0,0.0,0.0,-3.0075,-3.158,-3.462,-3.5464,-3.3752,-2.9727,-2.5946,0.0,0.0,0.0,0.0,0.0,0.0,0.0,0.0,0.0,0.0,0.0,0.0,0.0,0.0,0.0,0.0,0.0,0.0,0.0,0.0,0.0,0.0,0.0,0.0,0.0,0.0,0.0,0.0,0.0,0.0,0.0,0.0,0.0,0.0,0.0,0.0,0.0,0.0,0.0,0.0,0.0,0.0,0.0,0.0,0.0,0.0,0.0,0.0,0.0,0.0,0.0,0.0,0.0,0.0,0.0,0.0,0.0,0.0,0.0,0.0,0.0,0.0,0.0,0.0,0.0,0.0,0.0,0.0,0.0,0.0,0.0,0.0,0.0,0.0,0.0,0.0,0.0,0.0,0.0,0.0,0.0,0.0,0.0,0.0,0.0,0.0,0.0,0.0,0.0,0.0,0.0,0.0,0.0,0.0,0.0,0.0,0.0,0.0,0.0,0.0,0.0,0.0,0.0,0.0,0.0,0.0,0.0,-2.8179,-3.1987,-3.3571,-3.6254,-3.7002,-3.5568,-3.2835,-2.8987,-2.3964,0.0,0.0,0.0,0.0,0.0,0.0,0.0,0.0,0.0,0.0,0.0,0.0,0.0,0.0,0.0,0.0,0.0,0.0,0.0,0.0,0.0,0.0,0.0,0.0,0.0,0.0,0.0,0.0,0.0,0.0,0.0,0.0,0.0,0.0,0.0,0.0,0.0,0.0,-0.9119,-0.9486,0.0,0.0,0.0,0.0,0.0,0.0,0.0,0.0,-1.0722,0.0,0.0,0.0,0.0,0.0,0.0,0.0,0.0,0.0,0.0,0.0,0.0,0.0,0.0,0.0,0.0,0.0,0.0,0.0,0.0,0.0,0.0,0.0,0.0,0.0,0.0,0.0,0.0,0.0,0.0,0.0,0.0,0.0,0.0,0.0,0.0,0.0,0.0,0.0,0.0,0.0,0.0,0.0,0.0,0.0,0.0,0.0,0.0,0.0,0.0,0.0,0.0,0.0,0.0,0.0,0.0,-2.5075,-3.051,-3.4079,-3.5702,-3.8372,-3.8654,-3.6282,-3.3561,-2.9894,-2.5224,0.0,0.0,0.0,0.0,0.0,0.0,0.0,0.0,0.0,0.0,0.0,0.0,0.0,0.0,0.0,0.0,0.0,0.0,0.0,0.0,0.0,0.0,0.0,0.0,0.0,0.0,0.0,0.0,0.0,0.0,0.0,0.0,0.0,0.0,0.0,0.0,0.0,0.0,0.0,-1.1495,-1.1812,0.0,0.0,0.0,0.0,0.0,0.0,0.0,0.0,-1.172,0.0,0.0,0.0,0.0,0.0,0.0,0.0,0.0,0.0,0.0,0.0,0.0,0.0,0.0,0.0,0.0,0.0,0.0,0.0,0.0,0.0,0.0,0.0,0.0,0.0,0.0,0.0,0.0,0.0,0.0,0.0,0.0,0.0,0.0,0.0,0.0,0.0,0.0,0.0,0.0,0.0,0.0,0.0,0.0,0.0,0.0,0.0,0.0,0.0,0.0,0.0,0.0,0.0,0.0,0.0,-2.623,-3.1792,-3.5464,-3.7106,-3.9484,-3.9517,-3.7022,-3.4273,-3.0608,0.0,0.0,0.0,0.0,0.0,0.0,0.0,0.0,0.0,0.0,0.0,0.0,0.0,0.0,0.0,0.0,0.0,0.0,0.0,0.0,0.0,0.0,0.0,0.0,0.0,0.0,0.0,0.0,0.0,0.0,0.0,0.0,0.0,0.0,0.0,0.0,0.0,0.0,0.0,0.0,-1.2396,-1.288,-1.3193,0.0,0.0,0.0,0.0,0.0,0.0,-1.2525,-1.2396,0.0,0.0,0.0,0.0,0.0,0.0,0.0,0.0,0.0,0.0,0.0,0.0,0.0,0.0,0.0,0.0,0.0,0.0,0.0,0.0,0.0,0.0,0.0,0.0,0.0,0.0,0.0,0.0,0.0,0.0,0.0,0.0,0.0,0.0,0.0,0.0,0.0,0.0,0.0,0.0,0.0,0.0,0.0,0.0,0.0,0.0,0.0,0.0,0.0,0.0,0.0,0.0,0.0,0.0,0.0,-2.7038,-3.2727,-3.6492,-3.8169,-4.0103,-3.9859,-3.7263,-3.4415,-3.0663,0.0,0.0,0.0,0.0,0.0,0.0,0.0,0.0,0.0,0.0,0.0,0.0,0.0,0.0,0.0,0.0,0.0,0.0,0.0,0.0,0.0,0.0,0.0,0.0,0.0,0.0,0.0,0.0,0.0,0.0,0.0,0.0,0.0,0.0,0.0,0.0,0.0,0.0,0.0,0.0,0.0,-1.3913,-1.416,-1.4083,0.0,0.0,0.0,0.0,-1.2913,-1.3467,0.0,0.0,0.0,0.0,0.0,0.0,0.0,0.0,0.0,0.0,0.0,0.0,0.0,0.0,0.0,0.0,0.0,0.0,0.0,0.0,0.0,0.0,0.0,0.0,0.0,0.0,0.0,0.0,0.0,0.0,0.0,0.0,0.0,0.0,0.0,0.0,0.0,0.0,0.0,0.0,0.0,0.0,0.0,0.0,0.0,0.0,0.0,0.0,0.0,0.0,0.0,0.0,0.0,0.0,0.0,0.0,-2.8396,-3.3653,-3.7141,-3.8694,-4.0271,-3.956,-3.6346,-3.3108,-2.9176,0.0,0.0,0.0,0.0,0.0,0.0,0.0,0.0,0.0,0.0,0.0,0.0,0.0,0.0,0.0,0.0,0.0,0.0,0.0,0.0,0.0,0.0,0.0,0.0,0.0,0.0,0.0,0.0,0.0,0.0,0.0,0.0,0.0,0.0,0.0,0.0,0.0,0.0,0.0,0.0,0.0,-1.5455,-1.436,-1.5654,-1.6116,0.0,0.0,-1.63,-1.5039,-1.5902,0.0,0.0,0.0,0.0,0.0,0.0,0.0,0.0,0.0,0.0,0.0,0.0,0.0,0.0,0.0,0.0,0.0,0.0,0.0,0.0,0.0,0.0,0.0,0.0,0.0,0.0,0.0,0.0,0.0,0.0,0.0,0.0,0.0,0.0,0.0,0.0,0.0,0.0,0.0,0.0,0.0,0.0,0.0,0.0,0.0,0.0,0.0,0.0,0.0,0.0,0.0,0.0,0.0,0.0,0.0,-2.4508,-2.8614,-3.3807,-3.7248,-3.877,-4.0202,-3.94,-3.6162,-3.3217,-2.9423,0.0,0.0,0.0,0.0,0.0,0.0,0.0,0.0,0.0,0.0,0.0,0.0,0.0,0.0,0.0,0.0,0.0,0.0,0.0,0.0,0.0,0.0,0.0,0.0,0.0,0.0,0.0,0.0,0.0,0.0,0.0,0.0,0.0,0.0,0.0,0.0,0.0,0.0,0.0,0.0,0.0,0.0,-1.6548,-1.7561,0.0,0.0,0.0,-1.8192,-1.7622,0.0,0.0,0.0,0.0,0.0,0.0,0.0,0.0,0.0,0.0,0.0,0.0,0.0,0.0,0.0,0.0,0.0,0.0,0.0,0.0,0.0,0.0,0.0,0.0,0.0,0.0,0.0,0.0,0.0,0.0,0.0,0.0,0.0,0.0,0.0,0.0,0.0,0.0,0.0,0.0,0.0,0.0,0.0,0.0,0.0,0.0,0.0,0.0,0.0,0.0,0.0,0.0,0.0,0.0,0.0,0.0,0.0,-2.8614,-3.3977,-3.7386,-3.8705,-4.0086,-3.927,-3.6076,-3.3752,0.0,0.0,0.0,0.0,0.0,0.0,0.0,0.0,0.0,0.0,0.0,0.0,0.0,0.0,0.0,0.0,0.0,0.0,0.0,0.0,0.0,0.0,0.0,0.0,0.0,0.0,0.0,-0.7778,0.0,0.0,0.0,0.0,0.0,0.0,0.0,0.0,0.0,0.0,0.0,0.0,0.0,0.0,-1.8484,-1.8484,-1.9239,-1.9548,0.0,0.0,-1.998,-1.9826,-2.0366,-2.0085,0.0,0.0,0.0,0.0,0.0,0.0,0.0,0.0,0.0,0.0,0.0,0.0,0.0,0.0,0.0,0.0,0.0,0.0,0.0,0.0,0.0,0.0,0.0,0.0,0.0,0.0,0.0,0.0,0.0,0.0,0.0,0.0,0.0,0.0,0.0,0.0,0.0,0.0,0.0,0.0,0.0,0.0,0.0,0.0,0.0,0.0,0.0,0.0,0.0,0.0,0.0,0.0,0.0,0.0,0.0,-2.8652,-3.4424,-3.7769,-3.8556,-3.9985,-3.9187,-3.5856,-3.4579,-3.1077,0.0,0.0,0.0,0.0,0.0,0.0,0.0,0.0,0.0,0.0,0.0,0.0,0.0,0.0,0.0,0.0,0.0,0.0,0.0,0.0,0.0,0.0,0.0,0.0,0.0,0.0,0.0,0.0,0.0,0.0,0.0,0.0,0.0,0.0,0.0,0.0,0.0,0.0,0.0,0.0,0.0,-1.924,-1.9225,-2.0333,-2.0934,0.0,0.0,-2.1889,-2.1257,-2.172,-2.1418,-1.924,0.0,0.0,0.0,0.0,0.0,0.0,0.0,0.0,0.0,0.0,0.0,0.0,0.0,0.0,0.0,0.0,0.0,0.0,0.0,0.0,0.0,0.0,0.0,0.0,0.0,0.0,0.0,0.0,0.0,0.0,0.0,0.0,0.0,0.0,0.0,0.0,0.0,0.0,0.0,0.0,0.0,0.0,0.0,0.0,0.0,0.0,0.0,0.0,0.0,0.0,0.0,0.0,0.0,-2.5408,-2.9266,-3.4687,-3.7831,-3.8492,-3.9498,-3.8824,-3.6368,-3.4659,-3.1317,0.0,0.0,0.0,0.0,0.0,0.0,0.0,0.0,0.0,0.0,0.0,0.0,0.0,0.0,0.0,0.0,0.0,0.0,0.0,0.0,0.0,0.0,0.0,0.0,0.0,0.0,0.0,0.0,-0.7088,-0.734,-0.7922,0.0,0.0,0.0,0.0,0.0,0.0,0.0,0.0,0.0,0.0,-2.0058,-2.0489,-2.2043,0.0,0.0,-2.3286,-2.3763,-2.2705,-2.2732,-2.2048,-1.9472,-1.7243,0.0,0.0,0.0,0.0,0.0,0.0,0.0,0.0,0.0,0.0,0.0,0.0,0.0,0.0,0.0,0.0,0.0,0.0,0.0,0.0,0.0,0.0,0.0,0.0,0.0,0.0,0.0,0.0,0.0,0.0,0.0,0.0,0.0,0.0,0.0,0.0,0.0,0.0,0.0,0.0,0.0,0.0,0.0,0.0,0.0,0.0,0.0,0.0,0.0,0.0,0.0,0.0,-2.5728,-2.9695,-3.5026,-3.8031,-3.8492,-3.9136,-3.8587,-3.6693,-3.5069,-3.1935,0.0,0.0,0.0,0.0,0.0,0.0,0.0,0.0,0.0,0.0,0.0,0.0,0.0,0.0,0.0,0.0,0.0,0.0,0.0,0.0,0.0,0.0,0.0,0.0,0.0,0.0,0.0,0.0,-0.7235,-0.7591,-0.7932,0.0,0.0,0.0,0.0,0.0,0.0,0.0,0.0,0.0,0.0,-2.0397,-2.1458,-2.3148,-2.421,-2.3933,-2.4872,-2.5127,-2.381,-2.3425,-2.2401,-1.9775,0.0,0.0,0.0,0.0,0.0,0.0,0.0,0.0,0.0,0.0,0.0,0.0,0.0,0.0,0.0,0.0,0.0,0.0,0.0,0.0,0.0,0.0,0.0,0.0,0.0,0.0,0.0,0.0,0.0,0.0,-1.2603,0.0,0.0,0.0,0.0,0.0,0.0,0.0,0.0,0.0,0.0,0.0,0.0,0.0,0.0,0.0,0.0,0.0,0.0,0.0,0.0,0.0,0.0,-2.6178,-2.9701,-3.5474,-3.8477,-3.8523,-3.9136,-3.8554,-3.6615,-3.5936,-3.3054,-2.7597,0.0,0.0,0.0,0.0,0.0,0.0,0.0,0.0,0.0,0.0,0.0,0.0,0.0,0.0,0.0,0.0,0.0,0.0,0.0,0.0,0.0,0.0,0.0,0.0,0.0,0.0,-0.7687,-0.7443,-0.7302,0.0,0.0,0.0,0.0,0.0,0.0,0.0,0.0,0.0,0.0,-1.8423,-2.0058,-2.1997,-2.3456,-2.4579,-2.5142,-2.5834,-2.5819,-2.4451,-2.3702,-2.2551,0.0,0.0,0.0,0.0,0.0,0.0,0.0,0.0,0.0,0.0,0.0,0.0,0.0,0.0,0.0,0.0,0.0,0.0,0.0,0.0,0.0,0.0,0.0,0.0,0.0,0.0,0.0,-1.8329,-1.7587,0.0,0.0,0.0,0.0,0.0,0.0,0.0,0.0,0.0,0.0,0.0,-2.5654,-2.6191,0.0,0.0,0.0,0.0,0.0,0.0,0.0,0.0,0.0,0.0,0.0,0.0,-2.5982,-3.0363,-3.5273,-3.8061,-3.8508,-3.917,-3.8769,-3.72,-3.569,-3.2125,-2.624,0.0,0.0,0.0,0.0,0.0,0.0,0.0,0.0,0.0,0.0,0.0,0.0,0.0,0.0,0.0,0.0,0.0,0.0,0.0,0.0,0.0,0.0,0.0,0.0,0.0,-0.8319,0.0,0.0,0.0,0.0,0.0,0.0,0.0,0.0,0.0,0.0,0.0,-1.5193,-1.6962,-1.8808,-2.0535,-2.2089,-2.4261,-2.578,0.0,0.0,0.0,0.0,0.0,0.0,0.0,0.0,0.0,0.0,0.0,0.0,0.0,0.0,-1.5806,-1.4873,-1.3955,-1.2907,-1.171,0.0,0.0,0.0,0.0,0.0,0.0,0.0,0.0,0.0,0.0,0.0,0.0,0.0,0.0,-2.209,0.0,-1.9262,0.0,0.0,0.0,0.0,0.0,0.0,0.0,0.0,-2.9123,-3.0557,-3.0522,-3.0781,-3.1279,0.0,-3.1416,-2.9069,0.0,0.0,0.0,0.0,0.0,0.0,0.0,0.0,-2.6448,-3.099,-3.552,-3.7954,-3.8169,-3.8831,-3.8523,-3.7153,-3.4706,-3.1116,-2.6195,-2.3225,-2.0333,0.0,0.0,0.0,0.0,0.0,0.0,0.0,0.0,0.0,0.0,0.0,0.0,0.0,0.0,0.0,0.0,0.0,0.0,0.0,0.0,0.0,0.0,0.0,-0.8834,0.0,0.0,0.0,0.0,0.0,0.0,0.0,0.0,0.0,-1.359,-1.5132,-1.6824,-1.8422,-1.9994,-2.1565,-2.3132,0.0,0.0,0.0,0.0,0.0,0.0,0.0,-2.2682,-2.26,-2.2606,-2.2928,-2.3913,-2.3302,-2.2286,-2.1191,0.0,0.0,-1.7219,-1.5793,-1.4476,-1.3241,-1.2735,-1.2537,-1.2536,-1.3186,-1.4038,0.0,0.0,0.0,0.0,0.0,0.0,0.0,0.0,-2.6604,-2.555,0.0,-2.2785,0.0,0.0,0.0,0.0,0.0,-2.3167,0.0,0.0,-3.2671,-3.4623,-3.5876,-3.5078,-3.5214,-3.6115,-3.5355,-3.4375,-3.3014,-2.7911,0.0,0.0,0.0,0.0,0.0,0.0,-2.7527,-3.1568,-3.606,-3.8123,-3.7554,-3.8169,-3.7846,-3.6461,-3.3288,-3.0284,-2.7596,-2.5487,-2.2855,-1.958,-1.813,0.0,0.0,0.0,0.0,0.0,0.0,0.0,0.0,0.0,0.0,0.0,0.0,0.0,0.0,0.0,0.0,0.0,0.0,0.0,0.0,-0.952,0.0,0.0,0.0,0.0,0.0,0.0,0.0,0.0,0.0,0.0,-1.6425,-1.7546,-1.9083,-2.1119,0.0,0.0,0.0,0.0,-2.7703,-2.8334,-2.8981,-2.891,-2.7611,-2.6257,-2.5336,-2.5341,0.0,0.0,-2.6841,-2.6165,-2.5215,-2.3975,-2.2509,-2.0845,-1.9087,-1.7396,-1.5811,-1.446,-1.4314,-1.4409,-1.4466,-1.53,-1.628,-3.3437,0.0,0.0,0.0,0.0,-3.0322,-3.1713,-3.2961,-3.225,-3.1169,-2.9777,-2.7889,0.0,0.0,0.0,0.0,0.0,0.0,-3.0478,-3.3018,-3.5739,-3.7137,-3.7435,-3.7309,-3.7636,-3.8355,-3.7787,-3.6749,-3.532,-3.3244,-2.9454,-2.4072,0.0,0.0,0.0,0.0,-2.7473,-3.1553,-3.5212,-3.7215,-3.7507,-3.8154,-3.7631,-3.5845,-3.3875,-3.1797,-2.9602,-2.7596,-2.5164,-2.2289,-2.0462,0.0,0.0,0.0,0.0,0.0,0.0,0.0,0.0,0.0,0.0,0.0,0.0,0.0,0.0,0.0,0.0,0.0,0.0,0.0,-1.0073,-1.0081,-1.0176,0.0,0.0,0.0,0.0,0.0,0.0,0.0,0.0,0.0,-2.03,-2.0885,-2.1701,0.0,0.0,-2.558,-2.6641,-2.7965,-2.8904,-2.9104,-2.9273,0.0,0.0,-2.738,-2.7095,-2.804,-2.9904,-3.1309,-3.1466,-3.0335,-2.8929,-2.7462,-2.5243,-2.3219,-2.2021,-1.9773,-1.757,-1.6028,-1.6217,-1.6674,-1.639,-1.7182,-1.8194,-3.9992,-3.5998,-3.4383,-3.3634,-3.3723,-3.5061,-3.6403,-3.7585,-3.6953,-3.6038,-3.4948,-3.3203,-3.1498,-2.9785,-2.8099,0.0,0.0,0.0,-3.3934,-3.5915,-3.8072,-3.9172,-3.9296,-3.9124,-3.9266,-3.966,-3.9015,-3.8261,-3.7429,-3.6277,-3.3736,-2.9652,0.0,0.0,-2.5517,-2.653,-2.8771,-3.2261,-3.5321,-3.6969,-3.7107,-3.7492,-3.6861,-3.5183,-3.426,-3.2767,-3.0479,-2.8956,-2.7057,-2.4594,-2.2355,-1.9659,0.0,0.0,0.0,0.0,0.0,0.0,0.0,0.0,0.0,0.0,0.0,-0.932,-1.0003,0.0,0.0,0.0,-1.1077,-1.1436,-1.1081,-1.1539,0.0,0.0,0.0,0.0,0.0,0.0,0.0,-1.9192,-2.0129,-2.1544,-2.3979,-2.4779,-2.5226,-2.5503,-2.6703,-2.7904,-2.8842,0.0,-3.0381,-3.092,-3.0997,-3.0859,-3.0443,-2.9827,-2.975,-3.0812,-3.2275,-3.3352,-3.3352,-3.2069,-3.0548,-2.9037,-2.6939,-2.491,-2.3637,-2.1868,-1.9993,-1.7991,-1.8275,-1.8743,-1.8445,-1.9334,-2.0351,-4.5223,-4.3703,-3.9914,-3.81,-3.7853,-3.9078,-4.0283,-4.126,-4.0816,-4.0224,-3.9408,-3.832,-3.6587,-3.4431,-3.2489,0.0,-3.3941,-3.5268,-3.6959,-3.8856,-4.0038,-4.0885,-4.137,-4.0657,-4.0297,-4.0304,-3.9531,-3.9171,-3.9109,-3.7655,-3.6537,-3.5639,-3.0214,-2.7891,-2.8795,-2.9429,-3.0968,-3.346,-3.6076,-3.7123,-3.6507,-3.6492,-3.5876,-3.4551,-3.4443,-3.3106,-3.0448,-2.971,-2.8449,-2.6373,-2.384,-2.1553,-1.9537,0.0,0.0,0.0,0.0,0.0,0.0,0.0,0.0,0.0,0.0,0.0,0.0,0.0,0.0,0.0,-1.2618,0.0,-1.2647,-1.3759,0.0,0.0,0.0,-1.5191,-1.6469,-1.833,-2.0058,-2.1381,0.0,0.0,-2.7226,-2.8704,-2.9135,-2.795,-2.8904,-3.0181,-3.1459,-3.167,-3.2074,-3.3213,-3.3444,-3.346,-3.3213,-3.2844,-3.2767,-3.346,-3.3598,-3.3629,-3.3539,-3.2313,-3.0845,-2.9674,-2.7996,-2.6244,-2.4281,-2.3784,-2.2928,-2.0601,-2.045,-2.0684,-2.064,-2.1426,-2.2295,-4.7214,-4.6819,-4.5839,-4.4145,-4.225,-4.3037,-4.3554,-4.3803,-4.3712,-4.2974,-4.184,-4.1004,-3.974,-3.8178,-3.7689,-3.7941,-3.8902,-3.974,-4.0672,-4.1715,-4.255,-4.2721,-4.2359,-4.2167,-4.1537,-4.056,-4.0323,-3.9645,-3.8576,-3.8639,-3.7935,-3.646,-3.5033,-3.3408,-3.1559,-3.1624,-3.2533,-3.4243,-3.5876,-3.6645,-3.6507,-3.6492,-3.5876,-3.4536,-3.3937,-3.2398,-2.9756,-2.9504,-2.8488,-2.6472,-2.4748,-2.2921,-2.0921,-1.8238,0.0,0.0,0.0,0.0,0.0,0.0,0.0,0.0,0.0,-1.1235,-1.1898,0.0,-1.2921,0.0,-1.3988,-1.507,-1.5931,-1.6763,0.0,0.0,-1.8454,-1.9162,-2.001,-2.098,-2.2086,-2.3425,-2.4451,-2.5834,-2.7919,-2.9766,-3.0997,-3.1182,-3.1921,-3.2752,-3.3642,-3.3765,-3.3873,-3.4152,-3.4289,-3.4243,-3.4305,-3.4582,-3.4967,-3.566,-3.5322,-3.4999,-3.4998,-3.3715,-3.2313,-3.1119,-2.962,-2.7968,-2.6286,-2.5549,-2.4887,-2.3918,-2.312,-2.2415,-2.1982,-2.2483,-2.3026,-4.881,-4.8794,-4.8794,-4.7893,-4.6439,-4.6108,-4.5751,-4.5395,-4.5452,-4.4921,-4.3933,-4.3208,-4.2501,-4.1825,-4.1395,-4.1522,-4.1999,-4.2347,-4.2742,-4.3137,-4.3532,-4.3482,-4.3137,-4.2769,-4.2043,-4.102,-3.9959,-3.9235,-3.8733,-3.8404,-3.8075,-3.7748,-3.7701,-3.6708,-3.4854,-3.4133,-3.4181,-3.4936,-3.5984,-3.6492,-3.6492,-3.6492,-3.5876,-3.4551,-3.3767,-3.2151,-2.9494,-2.9387,-2.8587,-2.6903,-2.5503,-2.3979,-2.2243,-1.9299,-1.6409,0.0,0.0,0.0,0.0,0.0,0.0,0.0,0.0,0.0,0.0,0.0,-1.5201,-1.5456,-1.6419,-1.7453,-1.8484,-1.973,-2.0744,-2.1458,-2.2413,-2.3152,-2.3502,-2.3887,-2.4538,-2.5564,-2.6272,-2.7349,-2.9079,-3.1028,-3.2536,-3.3257,-3.3906,-3.446,-3.4859,-3.4951,-3.5014,-3.5337,-3.5398,-3.5368,-3.5398,-3.5706,-3.6091,-3.6353,-3.5706,-3.5059,-3.4999,-3.3775,-3.2442,-3.1434,-3.0376,-2.9163,-2.7683,-2.6975,-2.6454,-2.5898,-2.5261,-2.4624,-2.4042,-2.4177,-2.4394,-4.9916,-4.9916,-4.9916,-4.9916,-4.9781,-4.8474,-4.7392,-4.6566,-4.6718,-4.6432,-4.5772,-4.508,-4.4827,-4.4776,-4.3847,-4.3504,-4.3561,-4.3453,-4.3487,-4.3564,-4.3658,-4.3687,-4.3671,-4.3013,-4.2304,-4.1525,-3.9375,-3.8638,-3.9141,-3.7887,-3.7857,-3.8965,-3.9069,-3.8724,-3.7979,-3.6585,-3.5814,-3.563,-3.6215,-3.6492,-3.6492,-3.6492,-3.5845,-3.4551,-3.369,-3.2013,-2.9427,-2.9212,-2.8581,-2.7319,-2.5911,-2.4635,-2.344,-2.0283,-1.7608,0.0,-1.5129,0.0,0.0,0.0,0.0,0.0,0.0,0.0,0.0,-1.7423,-1.813,-1.8791,-1.95,-2.0258,-2.1011,-2.2717,-2.4102,-2.4764,-2.5995,-2.6703,-2.6465,-2.6488,-2.6749,-2.7342,-2.7996,-2.8919,-3.0202,-3.2228,-3.3783,-3.4366,-3.509,-3.5537,-3.5614,-3.5645,-3.5799,-3.6415,-3.6492,-3.6322,-3.6368,-3.643,-3.6476,-3.6353,-3.5552,-3.4628,-3.4551,-3.3374,-3.2099,-3.1244,-3.0687,-2.9888,-2.8526,-2.8039,-2.7617,-2.6971,-2.6793,-2.6562,-2.605,-2.5873,-2.5982,-4.9916,-4.9916,-4.9916,-4.9916,-4.99,-4.9608,-4.9063,-4.8362,-4.8417,-4.8092,-4.7391,-4.6703,-4.6071,-4.5471,-4.424,-4.3371,-4.2853,-4.2252,-4.2299,-4.2934,-4.3437,-4.369,-4.3718,-4.4113,-4.3324,-4.1604,-4.0592,-3.9582,-3.8667,-3.8888,-3.9,-3.9027,-4.0117,-4.0168,-3.919,0.0,0.0,0.0,-3.643,-3.6492,-3.6492,-3.6492,-3.586,-3.452,-3.3272,0.0,-2.875,-2.8073,-2.7411,-2.658,-2.5241,0.0,0.0,0.0,0.0,0.0,0.0,0.0,0.0,0.0,0.0,0.0,-2.2713,-2.2178,-1.9809,-2.0641,-2.1609,-2.227,-2.2963,-2.3891,-2.5139,-2.6057,-2.6888,-2.7565,-2.8341,-2.8403,-2.738,-2.7226,-2.7296,-2.738,-2.7996,-2.8919,-3.0351,-3.2659,-3.432,-3.4566,-3.5537,-3.6276,-3.6292,-3.6261,-3.6338,-3.6476,-3.6492,-3.6492,-3.6492,-3.6492,-3.6492,-3.6384,-3.5861,-3.5122,-3.4582,-3.3829,-3.2754,-3.1624,-3.1089,-3.037,-2.8867,-2.8297,-2.809,-2.7633,-2.7542,-2.7352,-2.6752,-2.6647,-2.6497,-4.9916,0.0,-4.9916,-4.9916,0.0,-4.9916,-4.9726,-4.9378,-4.9031,-4.8525,-4.7877,-4.7514,-4.6771,-4.5744,-4.4318,-4.3137,-4.2094,-4.1035,-4.0956,-4.1699,-4.2726,-4.3374,-4.3703,-4.4311,-4.3901,-4.26,-4.0796,-3.9803,-3.955,-3.9078,-3.9125,-3.964,-4.0538,-4.0507,-3.9658,-3.8963,-3.7959,-3.6616,-3.6523,-3.6523,-3.66,-3.6538,-3.6014,-3.4983,0.0,0.0,0.0,0.0,0.0,0.0,0.0,0.0,0.0,0.0,0.0,-2.1,-2.1195,-2.1342,-2.1298,-2.3179,-2.4631,-2.5287,-2.658,-2.6195,-2.3456,-2.3887,-2.4425,-2.4779,-2.5426,-2.6241,-2.7272,-2.7996,-2.8658,-2.931,-2.9997,-2.9981,-2.9058,-2.8596,-2.8396,-2.8411,-2.8704,-2.9412,-3.0751,-3.2936,-3.4566,-3.4998,-3.583,-3.6492,-3.6492,-3.6492,-3.6492,-3.6492,-3.6492,-3.6492,-3.6492,-3.6492,-3.6492,-3.6415,-3.5922,-3.5429,-3.5075,-3.4428,-3.3583,-3.2601,-3.2148,-3.15,-3.016,-2.9552,-2.9326,-2.9115,-2.8837,-2.8699,-2.8547,-2.7913,-2.7081,-4.9916,-4.9916,-4.9916,-4.9916,-4.9916,-4.9916,-4.9916,-4.9844,0.0,0.0,0.0,-4.813,-4.7293,-4.5902,-4.4382,-4.2947,-4.1525,-4.0024,-3.9771,-4.0656,-4.1889,-4.2932,-4.3718,-4.4398,-4.4433,-4.3766,-4.1314,-4.0306,-4.0719,-3.9456,-3.9314,-4.0239,-4.0678,-4.0544,-3.9858,-3.9175,-3.8213,-3.7033,-3.6848,-3.6724,-3.6693,-3.6585,-3.6199,-3.5491,-3.426,-3.2644,-3.0648,-2.9925,-2.8965,-2.7657,-2.7605,-2.7439,-2.6964,-2.5796,-2.4939,-2.4535,-2.4438,-2.4663,-2.5179,-2.6488,-2.7565,-2.8227,-2.9304,-2.9073,-2.7003,-2.6972,-2.7019,-2.7034,-2.758,-2.8211,-2.8873,-2.9535,-3.0125,-3.0694,-3.1351,-3.1443,-3.0648,-2.9971,-2.9525,-2.9571,-2.9556,-3.0043,-3.1243,-3.3195,-3.469,-3.5275,-3.5938,-3.6492,-3.6492,-3.6492,-3.6492,-3.6492,-3.6492,-3.6492,-3.6492,-3.6492,-3.6492,-3.6476,-3.603,-3.5645,-3.543,-3.5059,-3.4428,-3.3704,-3.3368,-3.2717,-3.1708,-3.1263,-3.1014,-3.0895,-3.0453,-3.0287,-3.0563,-2.9519,-2.8171,-4.9916,-4.9916,-4.9916,-4.9916,-4.9916,-4.9916,-4.9916,-4.9916,-4.9821,-4.9726,-4.956,-4.8999,-4.7972,-4.655,-4.4606,-4.2913,-4.1478,-3.955,-3.9345,0.0,-4.1399,-4.2442,-4.3734,-4.5013,-4.525,-4.4543,-4.3564,-4.2521,-4.1525,-4.1208,-4.0875,-4.0428,-4.0927,-4.0827,-4.0072,-3.9338,-3.8669,-3.809,-3.7888,-3.7437,-3.6739,-3.6693,-3.6276,-3.5521,-3.4767,-3.338,-3.1336,-3.0628,-2.9633,-2.8334,-2.7884,-2.7769,-2.7949,-2.7237,-2.7021,-2.7512,-2.7868,-2.8249,-2.8658,-2.9961,-3.0966,-3.1613,-3.1874,-3.1136,-2.9187,-2.9494,-2.9817,-2.9817,-2.9966,-3.0258,-3.0931,-3.1536,-3.1936,-3.2105,-3.269,-3.2628,-3.1443,-3.0751,-3.0325,-3.0309,-3.0263,-3.0535,-3.1459,-3.3226,-3.4489,-3.4813,-3.5814,-3.6492,-3.6492,-3.6492,-3.6492,-3.6492,-3.6492,-3.6492,-3.6492,-3.6492,-3.6492,-3.6492,-3.6399,-3.6107,-3.5645,-3.5475,-3.5106,-3.4474,-3.4159,-3.3772,-3.3156,-3.3033,-3.2665,-3.2297,-3.2057,-3.2057,-3.2173,-3.1329,-3.0097,-5.005,-4.9916,-4.9916,-4.9916,-4.9916,-4.9916,-4.9916,-4.9916,-4.9916,-4.9916,-4.986,-4.9584,-4.8683,-4.7293,-4.5618,-4.388,-4.211,-4.0419,-3.9977,-4.0656,-4.1683,-4.2726,-4.3785,-4.5159,-4.5618,-4.5254,-4.4575,-4.3737,-4.2755,-4.2278,-4.161,-4.0915,-4.1098,-4.1013,-4.0649,-4.039,-3.9766,-3.8858,-3.7935,-3.7296,-3.6998,-3.6785,-3.6538,-3.6137,-3.5428,-3.4472,-3.3231,-3.2098,-3.107,-3.0242,-2.9679,-2.9508,-2.9793,-2.9585,-2.9805,-3.056,-3.0663,-3.1027,-3.1787,-3.2616,-3.3211,-3.3519,-3.3521,-3.3152,-3.2244,-3.2074,-3.2198,-3.2567,-3.2613,-3.2764,-3.3041,-3.2998,-3.2936,-3.2936,-3.3244,-3.3136,-3.2598,-3.2244,-3.1905,-3.1536,-3.1151,-3.1197,-3.1886,-3.3075,-3.4274,-3.4921,-3.5922,-3.6476,-3.6492,-3.6492,-3.6492,-3.6492,-3.6492,-3.6492,-3.6492,-3.6492,-3.6492,-3.6492,-3.6492,-3.6368,-3.6076,-3.603,-3.5768,-3.5168,-3.4879,-3.45,-3.3925,-3.3668,-3.3557,-3.3652,-3.3262,-3.3171,-3.3303,-3.2491,-3.0668,-5.0302,-5.0153,-4.9939,-4.9916,-4.9916,-4.9916,-4.9916,-4.9916,-4.9916,-4.9916,-4.9916,-4.9916,-4.9252,-4.8051,-4.6819,-4.5317,-4.3564,-4.1999,-4.1399,-4.162,-4.2489,-4.3279,-4.4022,-4.5238,-4.5807,-4.576,-4.5223,-4.4606,-4.3908,-4.311,-4.2221,-4.1451,-4.1254,-4.1203,-4.1187,-4.0992,-4.0367,-3.9314,-3.7886,-3.7135,-3.7194,-3.6952,-3.6769,-3.6646,-3.6136,-3.5549,-3.4911,-3.3816,-3.2887,-3.2191,-3.1763,-3.1569,-3.164,-3.1815,-3.2308,-3.3097,-3.3007,-3.3235,-3.4017,-3.4355,-3.4489,-3.4489,-3.4489,-3.4551,-3.4674,-3.4214,-3.4014,-3.4428,-3.4366,-3.4412,-3.4366,-3.4166,-3.3798,-3.3675,-3.3798,-3.3737,-3.346,-3.3398,-3.3136,-3.2475,-3.1936,-3.1813,-3.2351,-3.2982,-3.3937,-3.5214,-3.5953,-3.6276,-3.6445,-3.6492,-3.6492,-3.6492,-3.6492,-3.6492,-3.6492,-3.6492,-3.6492,-3.6492,-3.6492,-3.6476,-3.6445,-3.6476,-3.6322,-3.5799,-3.56,-3.5309,-3.4729,-3.4531,-3.4621,-3.486,-3.4618,-3.4346,-3.4434,-3.3461,-3.1397,-5.0815,-5.0818,-5.024,-4.9916,-4.9916,-4.9916,-4.9916,-4.9916,-4.9916,-4.9916,-4.9916,-4.9916,-4.9505,-4.8762,-4.8035,-4.7198,-4.6218,-4.4354,-4.3753,-4.418,-4.3832,-4.3974,-4.4618,-4.5444,-4.5807,-4.5807,-4.5713,-4.527,-4.4543,-4.3845,-4.2897,-4.1698,-4.1555,-4.1538,-4.1445,-4.034,-3.9613,-3.9456,-3.8145,-3.7375,-3.7224,-3.7164,-3.7013,-3.6723,-3.6815,-3.6457,-3.5669,-3.5633,-3.4978,-3.3696,-3.3658,-3.3531,-3.3103,-3.3264,-3.3883,-3.4852,-3.4732,-3.4668,-3.4794,-3.4605,-3.4551,-3.4489,-3.4566,-3.4813,-3.5322,-3.5322,-3.5044,-3.472,-3.4536,-3.4597,-3.4536,-3.4967,-3.5013,-3.4582,-3.4906,-3.4814,-3.3752,-3.3398,-3.3152,-3.2475,-3.2244,-3.2348,-3.229,-3.2859,-3.3891,-3.5183,-3.5583,-3.5907,-3.6384,-3.6492,-3.6492,-3.6492,-3.6492,-3.6492,-3.6492,-3.6492,-3.6492,-3.6492,-3.6492,-3.6492,-3.6492,-3.6492,-3.643,-3.6292,-3.6322,-3.6153,-3.6153,-3.6245,-3.6137,-3.5998,-3.5937,-3.5922,-3.5324,-3.4528,-3.2935,-5.2246,-5.1683,-5.1261,-5.0714,-5.016,-4.9955,-4.9916,-4.9916,-4.9916,-4.9916,-4.9916,-4.9916,-4.9758,-4.9489,-4.922,-4.8715,-4.7972,-4.715,-4.6439,-4.5965,-4.5649,-4.5476,-4.5396,-4.5649,-4.5807,-4.5807,-4.5807,-4.5444,-4.4638,-4.3643,-4.2805,-4.2236,-4.1825,-4.1588,-4.1509,-4.0625,-3.9945,-3.9503,-3.895,-3.8461,-3.7974,-3.7474,-3.7292,-3.7421,-3.7187,-3.686,-3.6472,-3.6174,-3.572,-3.5101,-3.475,-3.446,-3.4218,-3.4451,-3.5052,-3.6038,-3.6465,-3.6565,-3.6403,-3.6141,-3.5948,-3.5796,-3.5721,-3.5784,-3.603,-3.6091,-3.5953,-3.5737,-3.566,-3.566,-3.5706,-3.5922,-3.5953,-3.5783,-3.5922,-3.5676,-3.4768,-3.426,-3.3644,-3.2598,-3.2028,-3.1628,-3.149,-3.2167,-3.3336,-3.4643,-3.5229,-3.5784,-3.6384,-3.6492,-3.6492,-3.6492,-3.6492,-3.6492,-3.6492,-3.6492,-3.6492,-3.6492,-3.6492,-3.6492,-3.6492,-3.6492,-3.6492,-3.6492,-3.6492,-3.6492,-3.6445,-3.6492,-3.6492,-3.6492,-3.6492,-3.6322,-3.589,-3.5261,-3.3949,-5.3867,-5.3068,-5.2505,-5.1688,-5.0728,-5.0375,-5.0105,-4.9876,-4.9916,-4.9916,-4.9916,-4.9916,-4.9916,-4.9916,-4.9916,-4.9631,-4.9189,-4.8983,-4.8351,-4.7372,-4.6992,-4.655,-4.6108,-4.5886,-4.5807,-4.5807,-4.5807,-4.5428,-4.4654,-4.3564,-4.2884,-4.2616,-4.1952,-4.1588,-4.1509,-4.099,-4.042,-3.9992,-3.9817,-3.9609,-3.9259,-3.8516,-3.8023,-3.7966,-3.7622,-3.7294,-3.6999,-3.6621,-3.6355,-3.625,-3.5751,-3.5348,-3.5089,-3.5318,-3.5865,-3.6741,-3.7555,-3.787,-3.7549,-3.727,-3.7014,-3.6785,-3.6616,-3.6492,-3.6492,-3.6492,-3.6492,-3.6461,-3.6492,-3.6445,-3.6492,-3.6492,-3.6492,-3.6492,-3.6492,-3.6168,-3.5306,-3.4628,-3.3598,-3.2336,-3.1505,-3.1059,-3.0951,-3.1905,-3.3275,-3.4613,-3.5414,-3.6122,-3.6815,-3.7092,-3.7092,-3.703,-3.6923,-3.6692,-3.6553,-3.6492,-3.6492,-3.6492,-3.6492,-3.6492,-3.6492,-3.6492,-3.6492,-3.6492,-3.6492,-3.6492,-3.6492,-3.6492,-3.6492,-3.6492,-3.6492,-3.646,-3.6275,-3.5737,-3.4972,-5.5325,-5.5147,-5.384,-5.2699,-5.1791,-5.12,-5.0556,-4.9995,-4.9955,-4.9916,-4.9971,-4.9916,-4.9931,-4.9916,-4.9916,-4.99,-4.9758,-4.922,-4.8857,-4.8557,-4.7451,-4.6819,-4.6708,-4.6123,-4.5823,-4.5807,-4.5807,-4.546,-4.4749,-4.3955,-4.3342,-4.2695,-4.1968,-4.1588,-4.1526,-4.1055,-4.0896,-4.0894,-4.0519,-4.0637,-4.1197,-4.0573,-3.9492,-3.8325,-3.8292,-3.7976,-3.7215,-3.727,-3.7268,-3.6998,-3.6889,-3.6442,-3.5643,-3.5758,-3.6214,-3.6853,-3.7754,-3.8153,-3.7915,-3.7565,-3.7254,-3.6999,-3.6677,-3.6492,-3.6492,-3.6492,-3.6492,-3.6492,-3.6492,-3.6492,-3.6492,-3.6492,-3.6492,-3.6492,-3.6492,-3.5907,-3.472,-3.3937,-3.289,-3.1674,-3.0859,-3.0782,-3.1259,-3.2505,-3.3844,-3.5122,-3.603,-3.6861,-3.7892,-3.8292,-3.8262,-3.8138,-3.7784,-3.7246,-3.6676,-3.6492,-3.6492,-3.6492,-3.6492,-3.6492,-3.6492,-3.6492,-3.6492,-3.6492,-3.6492,-3.6492,-3.6492,-3.6492,-3.6492,-3.6492,-3.6492,-3.646,-3.6429,-3.646,-3.5753,-5.6701,-5.5829,-5.4609,-5.347,-5.2454,-5.1956,-5.1376,-5.0695,-5.0663,-5.0618,-5.0534,-5.0347,-5.023,-5.0129,-4.9971,-4.9916,-4.986,-4.9647,-4.9299,-4.8873,-4.8367,-4.7672,-4.6803,-4.6534,-4.6187,-4.5855,-4.5807,-4.5681,-4.5317,-4.429,-4.3611,-4.3184,-4.2173,-4.1588,-4.1543,-4.1183,-4.1116,-4.1347,-4.1362,-4.1664,-4.2164,-4.2179,-4.1529,-4.0177,-3.927,-3.8593,-3.8128,-3.788,-3.7685,-3.7581,-3.7478,-3.7235,-3.6835,-3.7008,-3.7374,-3.7806,-3.8337,-3.8511,-3.8234,-3.7902,-3.7535,-3.715,-3.6723,-3.6492,-3.6492,-3.6492,-3.6492,-3.6492,-3.6492,-3.6492,-3.6492,-3.6492,-3.6492,-3.6492,-3.6476,-3.5999,-3.4674,-3.3475,-3.2244,-3.1012,-3.0186,-3.0351,-3.1782,-3.2829,-3.4106,-3.5784,-3.6722,-3.7507,-3.8215,-3.8523,-3.8523,-3.8492,-3.8308,-3.7923,-3.723,-3.6722,-3.6492,-3.6492,-3.6492,-3.6492,-3.6492,-3.6492,-3.6492,-3.6492,-3.6492,-3.6492,-3.6492,-3.6492,-3.6492,-3.6492,-3.6492,-3.6492,-3.6492,-3.6492,-3.5984,-5.7901,-5.6978,-5.5967,-5.4931,-5.3989,-5.3487,-5.2851,-5.2214,-5.2181,-5.1971,-5.1599,-5.123,-5.0865,-5.0457,-5.0089,-4.9916,-4.9916,-4.9916,-4.9663,-4.9236,-4.8983,-4.8383,-4.753,-4.7008,-4.6566,-4.6139,-4.5975,-4.5916,-4.583,-4.4868,-4.422,-4.397,-4.2841,-4.2155,-4.1965,-4.1803,-4.1904,-4.2176,-4.2522,-4.2846,-4.3156,-4.3414,-4.3108,-4.2034,-4.0783,-3.9672,-3.8882,-3.8624,-3.8398,-3.8205,-3.8059,-3.7899,-3.7754,-3.7899,-3.8173,-3.8516,-3.8777,-3.8805,-3.8544,-3.823,-3.7812,-3.7298,-3.6816,-3.6492,-3.6492,-3.6492,-3.6492,-3.6492,-3.6492,-3.6538,-3.6769,-3.683,-3.6722,-3.6553,-3.6492,-3.6045,-3.4936,-3.3567,-3.2136,-3.0832,-3.0555,-3.112,-3.2213,-3.3383,-3.4737,-3.6322,-3.7076,-3.78,-3.86,-3.8631,-3.8631,-3.8739,-3.8385,-3.8108,-3.7723,-3.7338,-3.6738,-3.6645,-3.6676,-3.663,-3.6645,-3.6615,-3.6599,-3.6553,-3.6522,-3.6507,-3.6507,-3.6522,-3.6522,-3.6553,-3.6492,-3.6492,-3.6492,-3.6492,-3.6076,-5.8875,-5.8562,-5.8048,-5.7094,-5.6186,-5.5588,-5.5065,-5.4406,-5.4372,-5.3778,-5.2939,-5.2432,-5.1647,-5.0858,-5.0292,-4.9955,-5.0034,-5.0034,-4.9924,-4.9773,-4.9236,-4.8904,-4.862,-4.7545,-4.6898,-4.6676,-4.629,-4.6171,-4.6237,-4.5757,-4.5267,-4.4787,-4.4042,-4.3281,-4.2665,-4.2911,-4.3229,-4.3525,-4.3802,-4.4169,-4.4446,-4.4248,-4.3931,-4.3488,-4.2767,-4.1486,-3.9408,-3.9703,-3.9591,-3.8941,-3.881,-3.8574,-3.8367,-3.8415,-3.8528,-3.8821,-3.9094,-3.9094,-3.8816,-3.8479,-3.8055,-3.7492,-3.6892,-3.6662,-3.6661,-3.6708,-3.6707,-3.6753,-3.6722,-3.6846,-3.74,-3.7507,-3.7307,-3.6676,-3.6738,-3.6415,-3.5476,-3.4229,-3.2659,-3.1197,-3.1459,-3.2305,-3.2859,-3.4183,-3.5691,-3.6476,-3.7215,-3.7984,-3.8908,-3.88,-3.8831,-3.9,-3.8585,-3.8031,-3.8015,-3.7954,-3.7307,-3.683,-3.6876,-3.6907,-3.703,-3.7061,-3.7123,-3.7107,-3.7123,-3.7107,-3.7138,-3.7138,-3.703,-3.6984,-3.6799,-3.6815,-3.6969,-3.7015,-3.6538,-5.8927,-5.8753,-5.8438,-5.7765,-5.6925,-5.6535,-5.597,-5.5347,-5.5314,-5.4716,-5.3756,-5.3221,-5.2442,-5.1494,-5.093,-5.0755,-5.0739,-5.0701,-5.0448,-4.9947,-4.9679,-4.9354,-4.8911,-4.843,-4.7735,-4.6893,-4.6418,-4.6407,-4.6542,-4.625,-4.6094,-4.5944,-4.4971,-4.4327,-4.4014,-4.3857,-4.3885,-4.4202,-4.4547,-4.4824,-4.5086,-4.4934,-4.4642,-4.4243,-4.4114,-4.3379,-4.2088,-4.1449,-4.1073,-4.0829,-4.0331,-3.9698,-3.9188,-3.9457,-3.9589,-3.9388,-3.9941,-3.9941,-3.9214,-3.8832,-3.8383,-3.7878,-3.7618,-3.7452,-3.7404,-3.7648,-3.7815,-3.7861,-3.7877,-3.8015,-3.8154,-3.82,-3.8092,-3.7892,-3.7877,-3.7353,-3.6153,-3.4583,-3.3059,-3.2167,-3.2552,-3.3413,-3.4383,-3.563,-3.6307,-3.6938,-3.7631,-3.8354,-3.8631,-3.8585,-3.8539,-3.8692,-3.8231,-3.7892,-3.7861,-3.8077,-3.8077,-3.7738,-3.7692,-3.7477,-3.7538,-3.7584,-3.7631,-3.7661,-3.7692,-3.7707,-3.7738,-3.7723,-3.7615,-3.7723,-3.78,-3.7831,-3.7861,-3.76,-3.7184,-5.8961,-5.8875,-5.8771,-5.834,-5.7825,-5.7668,-5.7378,-5.6934,-5.6951,-5.6335,-5.5445,-5.4869,-5.3889,-5.2749,-5.2163,-5.1761,-5.1533,-5.1516,-5.1257,-5.0745,-5.0432,-5.0115,-4.9636,-4.9126,-4.8392,-4.7381,-4.6885,-4.6878,-4.7187,-4.7144,-4.7137,-4.7006,-4.6299,-4.5577,-4.5126,-4.4846,-4.4739,-4.4737,-4.4951,-4.5184,-4.5318,-4.5274,-4.5042,-4.4742,-4.4814,-4.4514,-4.3912,-4.3291,-4.2753,-4.2153,-4.1328,-4.0648,-4.0384,-4.0575,-4.0645,-4.0658,-4.0695,-4.0618,-3.9891,-3.928,-3.8837,-3.8518,-3.8267,-3.8169,-3.8183,-3.8453,-3.8492,-3.8508,-3.8477,-3.8583,-3.8816,-3.8877,-3.8952,-3.9213,-3.8706,-3.7954,-3.6615,-3.5383,-3.4214,-3.3644,-3.3783,-3.4445,-3.5075,-3.5984,-3.6461,-3.6846,-3.7323,-3.7938,-3.7969,-3.7892,-3.7831,-3.7754,-3.7538,-3.7415,-3.7569,-3.8061,-3.8708,-3.8723,-3.8675,-3.8369,-3.8185,-3.8185,-3.8215,-3.8185,-3.8185,-3.8154,-3.8169,-3.8246,-3.8246,-3.8492,-3.8631,-3.8385,-3.8231,-3.8292,-3.8015,-5.9012,-5.9012,-5.8978,-5.8961,-5.8875,-5.8875,-5.8789,-5.8892,-5.8841,-5.829,-5.7501,-5.6793,-5.5697,-5.432,-5.3542,-5.2962,-5.2378,-5.2279,-5.2243,-5.2029,-5.1627,-5.1225,-5.0918,-4.9746,-4.8842,-4.8215,-4.7696,-4.7638,-4.7951,-4.8271,-4.8382,-4.8098,-4.7857,-4.728,-4.6259,-4.5983,-4.555,-4.5091,-4.514,-4.5274,-4.5311,-4.5274,-4.515,-4.5032,-4.5032,-4.4998,-4.4912,-4.481,-4.4211,-4.2902,-4.1925,-4.1666,-4.1989,-4.166,-4.1709,-4.2047,-4.1644,-4.1283,-4.0759,-4.0107,-3.9523,-3.9469,-3.9076,-3.8669,-3.9012,-3.8951,-3.8893,-3.8862,-3.8816,-3.8952,-3.9413,-3.9551,-3.9797,-4.0182,-3.9336,-3.8169,-3.6953,-3.6645,-3.603,-3.5199,-3.523,-3.5352,-3.4874,-3.5676,-3.5768,-3.5645,-3.5938,-3.6569,-3.6969,-3.683,-3.6492,-3.6492,-3.6645,-3.7076,-3.7277,-3.8077,-3.8769,-3.949,-3.949,-3.9277,-3.9,-3.897,-3.9,-3.8939,-3.88,-3.8708,-3.8785,-3.8985,-3.9016,-3.9108,-3.9016,-3.8692,-3.8739,-3.897,-3.8862,-5.9012,-5.9012,-5.9012,-5.9012,-5.9012,-5.9012,-5.9012,-5.9012,-5.9012,-5.8531,-5.7758,-5.7397,-5.6319,-5.472,-5.4411,-5.3835,-5.3246,-5.3078,-5.3078,-5.306,-5.2923,-5.2402,-5.1713,-5.0453,-4.9663,-4.9353,-4.863,-4.8304,-4.8668,-4.9012,-4.9248,-4.9451,-4.8826,-4.838,-4.7923,-4.691,-4.6038,-4.5394,-4.5318,-4.5078,-4.4803,-4.5147,-4.5327,-4.5318,-4.5291,-4.5291,-4.5291,-4.5113,-4.4622,-4.368,-4.3114,-4.2625,-4.2439,-4.2591,-4.2642,-4.2455,-4.2642,-4.2459,-4.1833,-4.1352,-4.1012,-4.0602,-4.0337,-4.0229,-3.9956,-3.9977,-3.9973,-3.9967,-3.9967,-3.9982,-4.0182,-4.0197,-4.0336,-4.0336,-3.9705,-3.9044,-3.8631,-3.8262,-3.78,-3.7446,-3.6707,-3.5968,-3.5444,-3.5167,-3.4982,-3.446,-3.4814,-3.5506,-3.6122,-3.5953,-3.5707,-3.5783,-3.5968,-3.6569,-3.7184,-3.8,-3.8923,-3.9982,-4.0213,-4.012,-3.9967,-3.9951,-3.9997,-4.0028,-3.9736,-3.9598,-3.9813,-4.0043,-3.9967,-3.9674,-3.9736,-3.9644,-3.9844,-4.0028,-3.9674,-5.9012,-5.9012,-5.9012,-5.9012,-5.9012,-5.9012,-5.9012,-5.9012,-5.8995,-5.8737,-5.829,-5.8136,-5.7175,-5.5704,-5.5552,-5.4904,-5.3983,-5.3881,-5.3881,-5.3831,-5.3831,-5.3399,-5.2553,-5.1445,-5.0811,-5.0443,-4.9648,-4.9244,-4.9216,-4.9453,-4.9725,-4.9849,-4.9545,-4.9137,-4.8626,-4.7689,-4.67,-4.6,-4.5604,-4.5165,-4.4854,-4.5156,-4.5363,-4.5414,-4.5414,-4.5414,-4.5371,-4.514,-4.48,-4.4309,-4.3786,-4.3352,-4.3301,-4.3301,-4.3369,-4.32,-4.3403,-4.3128,-4.2719,-4.229,-4.1938,-4.1609,-4.1399,-4.1071,-4.0843,-4.0699,-4.0489,-4.0443,-4.0489,-4.0489,-4.0489,-4.0489,-4.0489,-4.0443,-4.0136,-3.9782,-3.9536,-3.9108,-3.8816,-3.8369,-3.7584,-3.6507,-3.5676,-3.5337,-3.4814,-3.4414,-3.4999,-3.5552,-3.5968,-3.5491,-3.5321,-3.5598,-3.5953,-3.6645,-3.7369,-3.8154,-3.9077,-4.012,-4.0474,-4.0489,-4.0489,-4.0489,-4.0459,-4.0413,-4.0459,-4.0489,-4.0489,-4.0489,-4.0366,-4.0243,-4.0474,-4.0489,-4.0489,-4.0489,-4.0197,-5.9012,-5.9012,-5.9012,-5.9012,-5.9012,-5.9012,-5.9012,-5.9012,-5.9012,-5.8892,-5.8737,-5.8823,-5.7755,-5.6684,-5.6208,-5.579,-5.448,-5.4399,-5.4448,-5.4399,-5.4367,-5.4044,-5.3481,-5.2652,-5.2025,-5.1481,-5.0827,-5.0216,-4.9855,-4.9816,-4.983,-4.9947,-4.9959,-4.9631,-4.9034,-4.8206,-4.7458,-4.6717,-4.6,-4.5535,-4.5311,-4.5363,-4.5397,-4.5414,-4.5414,-4.5414,-4.5344,-4.5157,-4.4971,-4.5005,-4.4058,-4.3955,-4.4333,-4.3842,-4.3876,-4.4242,-4.391,-4.3623,-4.3443,-4.2976,-4.2633,-4.2547,-4.198,-4.1577,-4.1498,-4.1039,-4.0627,-4.0574,-4.0524,-4.0489,-4.0474,-4.0443,-4.0305,-4.0228,-4.0243,-3.9936,-3.9598,-3.949,-3.9351,-3.8739,-3.8077,-3.6907,-3.6107,-3.5799,-3.5784,-3.4505,-3.5136,-3.5845,-3.623,-3.6168,-3.6014,-3.603,-3.6461,-3.6938,-3.7631,-3.8338,-3.9293,-4.0197,-4.0413,-4.0489,-4.0489,-4.0489,-4.0489,-4.0489,-4.0489,-4.0489,-4.0489,-4.0489,-4.0489,-4.0489,-4.0489,-4.0489,-4.0489,-4.0489,-4.032,-5.9012,-5.9012,-5.9012,-5.9012,-5.9012,-5.9012,-5.9012,-5.9012,-5.9012,-5.8702,-5.8254,-5.8167,-5.7305,-5.5908,-5.5908,-5.5357,-5.4581,-5.4512,-5.4512,-5.4512,-5.4512,-5.4448,-5.4085,-5.347,-5.3089,-5.2557,-5.1506,-5.0896,-5.0651,-5.0164,-4.9935,-4.9964,-4.9993,-4.9924,-4.9602,-4.8844,-4.8189,-4.7448,-4.669,-4.6,-4.5518,-4.5432,-4.5414,-4.5414,-4.5414,-4.5414,-4.5344,-4.5157,-4.5022,-4.4889,-4.4612,-4.4395,-4.4468,-4.4384,-4.4384,-4.4479,-4.4479,-4.4282,-4.4265,-4.4068,-4.39,-4.3435,-4.295,-4.2517,-4.1965,-4.1357,-4.0935,-4.0765,-4.0593,-4.0489,-4.0474,-4.0013,-3.9782,-3.9659,-3.9275,-3.8875,-3.8893,-3.9567,-3.9905,-3.9598,-3.8446,-3.6984,-3.5722,-3.5275,-3.509,-3.469,-3.5321,-3.6153,-3.6553,-3.683,-3.6707,-3.6599,-3.6645,-3.7153,-3.8169,-3.8831,-3.9601,-4.0213,-4.0397,-4.0489,-4.0489,-4.0489,-4.0489,-4.0489,-4.0489,-4.0489,-4.0489,-4.0489,-4.0489,-4.0489,-4.0489,-4.0489,-4.0489,-4.0489,-4.0505,-5.9012,-5.9012,-5.9012,-5.9012,-5.9012,-5.9012,-5.9012,-5.9012,-5.9012,-5.8599,-5.803,-5.7892,-5.7047,-5.5667,-5.5548,-5.5219,-5.4649,-5.4512,-5.4512,-5.4512,-5.4512,-5.4512,-5.4477,-5.4115,-5.377,-5.3304,-5.2205,-5.1515,-5.1028,-5.0442,-4.9964,-5.0011,-5.0011,-4.9993,-4.9861,-4.9252,-4.862,-4.8051,-4.7121,-4.6362,-4.6,-4.5569,-4.5414,-4.5414,-4.5414,-4.5414,-4.5388,-4.514,-4.5049,-4.494,-4.4748,-4.4598,-4.4598,-4.4598,-4.4598,-4.4598,-4.4598,-4.4598,-4.4598,-4.457,-4.435,-4.3964,-4.3549,-4.2988,-4.2365,-4.1704,-4.1207,-4.0953,-4.0696,-4.0489,-4.0459,-3.989,-3.9459,-3.897,-3.8446,-3.7831,-3.7538,-3.8554,-3.9551,-3.9321,-3.8292,-3.7184,-3.6184,-3.5722,-3.566,-3.5861,-3.6368,-3.7153,-3.7384,-3.7569,-3.7292,-3.7123,-3.6953,-3.74,-3.8569,-3.9385,-3.9985,-4.0336,-4.0443,-4.0489,-4.0489,-4.0489,-4.0489,-4.0489,-4.0489,-4.0489,-4.0489,-4.0489,-4.0489,-4.0489,-4.0489,-4.0489,-4.0489,-4.0489,-4.0489,-5.884,-5.8857,-5.8961,-5.9012,-5.9012,-5.9012,-5.9012,-5.9012,-5.9012,-5.8512,-5.784,-5.7754,-5.6771,-5.5667,-5.5359,-5.4997,-5.4667,-5.4512,-5.4512,-5.4512,-5.4512,-5.4512,-5.4477,-5.4391,-5.4149,-5.3511,-5.2563,-5.1856,-5.1252,-5.0476,-5.0028,-5.0011,-5.0011,-5.0011,-4.9809,-4.9396,-4.9034,-4.8827,-4.7586,-4.6872,-4.6579,-4.5931,-4.5432,-4.5414,-4.5656,-4.5552,-4.544,-4.5194,-4.5032,-4.5005,-4.4776,-4.4654,-4.4643,-4.4598,-4.4598,-4.4598,-4.4598,-4.4598,-4.4598,-4.457,-4.4457,-4.4143,-4.3814,-4.332,-4.2694,-4.2045,-4.1491,-4.1073,-4.0799,-4.0566,-4.0582,-3.9936,-3.9228,-3.8631,-3.7938,-3.6923,-3.6199,-3.7123,-3.8015,-3.8138,-3.7908,-3.7277,-3.7184,-3.6984,-3.7015,-3.7153,-3.7692,-3.82,-3.8508,-3.8569,-3.8477,-3.8215,-3.8138,-3.7707,-3.8662,-3.9677,-4.0274,-4.0351,-4.0443,-4.072,-4.0782,-4.112,-4.1166,-4.0582,-4.0489,-4.0551,-4.0551,-4.0489,-4.0489,-4.0489,-4.0489,-4.0489,-4.0489,-4.0489,-4.0551,-5.8099,-5.815,-5.8754,-5.9012,-5.9012,-5.9012,-5.9012,-5.9012,-5.9012,-5.8236,-5.7116,-5.6978,-5.6202,-5.5063,-5.4701,-5.4598,-5.4529,-5.4512,-5.4512,-5.4512,-5.4512,-5.4512,-5.4512,-5.4512,-5.4391,-5.3977,-5.3028,-5.217,-5.1683,-5.0769,-5.0062,-5.0011,-5.0011,-5.0011,-4.9976,-4.9838,-4.9671,-4.9413,-4.82,-4.7441,-4.7131,-4.6242,-4.5535,-4.5604,-4.6069,-4.6069,-4.5595,-4.5316,-4.515,-4.5123,-4.4913,-4.481,-4.4737,-4.4654,-4.4598,-4.4598,-4.4598,-4.4598,-4.4598,-4.4598,-4.4485,-4.4281,-4.4093,-4.3667,-4.305,-4.2381,-4.1801,-4.1348,-4.0954,-4.0766,-4.134,-4.0447,-3.9336,-3.8631,-3.7954,-3.6999,-3.6091,-3.6353,-3.6953,-3.6969,-3.72,-3.7692,-3.78,-3.8169,-3.86,-3.8939,-3.957,-4.0232,-4.077,-4.0601,-4.0309,-3.9939,-3.9521,-3.897,-3.8692,-3.9659,-4.0397,-4.0339,-4.0539,-4.1232,-4.1463,-4.2017,-4.1971,-4.1304,-4.0874,-4.0812,-4.0751,-4.072,-4.0782,-4.0981,-4.0782,-4.0566,-4.0828,-4.1058,-4.0858,-5.7892,-5.7978,-5.8702,-5.9012,-5.9012,-5.9012,-5.9012,-5.9012,-5.8978,-5.8185,-5.715,-5.6736,-5.596,-5.4839,-5.4512,-5.4512,-5.4512,-5.4512,-5.4512,-5.4512,-5.4512,-5.4512,-5.4512,-5.4512,-5.4512,-5.4201,-5.3391,-5.2532,-5.2084,-5.0718,-5.0114,-5.0011,-5.0011,-5.0011,-4.9993,-4.9976,-5.0011,-4.9683,-4.8579,-4.77,-4.7603,-4.65,-4.6086,-4.6207,-4.6717,-4.6896,-4.6724,-4.645,-4.6172,-4.5826,-4.5548,-4.5188,-4.4901,-4.4682,-4.4598,-4.4598,-4.4598,-4.4598,-4.4598,-4.4598,-4.4542,-4.4468,-4.4406,-4.4039,-4.3399,-4.271,-4.2123,-4.1653,-4.1755,-4.1724,-4.2063,-4.1058,-4.0355,-3.9521,-3.8646,-3.7292,-3.6184,-3.6245,-3.6292,-3.6368,-3.7046,-3.7769,-3.84,-3.8985,-3.9905,-4.0693,-4.1386,-4.2017,-4.2694,-4.2094,-4.1417,-4.0755,-4.012,-3.9659,-3.9354,-4.0201,-4.0674,-4.0555,-4.0986,-4.1663,-4.1971,-4.2448,-4.2417,-4.2001,-4.1663,-4.1601,-4.1617,-4.1801,-4.1663,-4.154,-4.1601,-4.1597,-4.1612,-4.1597,-4.1412,-5.746,-5.7512,-5.8254,-5.8564,-5.8581,-5.8547,-5.853,-5.8581,-5.8512,-5.7736,-5.6667,-5.6477,-5.577,-5.4805,-5.4512,-5.4512,-5.4512,-5.4512,-5.4512,-5.4512,-5.4512,-5.4512,-5.4512,-5.4512,-5.4512,-5.4374,-5.3701,-5.308,-5.2373,-5.1045,-5.0355,-5.0235,-5.0166,-5.0011,-5.0011,-5.0011,-5.0011,-4.9545,-4.8545,-4.7655,-4.7155,-4.6965,-4.6717,-4.6751,-4.7414,-4.7827,-4.7534,-4.7399,-4.7086,-4.6618,-4.6161,-4.5676,-4.5154,-4.4766,-4.4615,-4.4598,-4.4598,-4.4598,-4.4632,-4.484,-4.4925,-4.4914,-4.4993,-4.4694,-4.4152,-4.3535,-4.273,-4.2288,-4.2058,-4.2376,-4.2325,-4.1786,-4.1001,-4.0232,-3.9152,-3.8154,-3.6923,-3.6538,-3.6722,-3.6953,-3.7369,-3.8292,-3.937,-4.0278,-4.1274,-4.2186,-4.2879,-4.291,-4.3356,-4.2494,-4.1786,-4.1078,-4.0524,-4.012,-4.0247,-4.097,-4.1217,-4.1001,-4.1817,-4.274,-4.2756,-4.2786,-4.2761,-4.289,-4.3002,-4.2971,-4.294,-4.2617,-4.2294,-4.2186,-4.2479,-4.2494,-4.2232,-4.2186,-4.214,-5.5841,-5.5928,-5.6753,-5.7064,-5.7116,-5.715,-5.7098,-5.7133,-5.7185,-5.6581,-5.5857,-5.577,-5.5339,-5.4667,-5.4512,-5.4512,-5.4512,-5.4512,-5.4512,-5.4512,-5.4512,-5.4512,-5.4512,-5.4512,-5.4512,-5.4425,-5.3822,-5.3425,-5.2873,-5.1683,-5.0942,-5.0804,-5.0287,-5.0011,-5.0011,-5.0011,-5.0011,-4.9735,-4.8493,-4.7069,-4.619,-4.6879,-4.7096,-4.7165,-4.7827,-4.8448,-4.8079,-4.7954,-4.773,-4.7496,-4.6587,-4.6088,-4.5811,-4.506,-4.4694,-4.4598,-4.4598,-4.4598,-4.4739,-4.5128,-4.5534,-4.5635,-4.6007,-4.6114,-4.5407,-4.4577,-4.3908,-4.3861,-4.2905,-4.233,-4.2453,-4.1524,-4.052,-4.012,-3.9782,-3.8846,-3.7784,-3.7815,-3.7892,-3.8092,-3.8677,-3.9878,-4.1047,-4.1878,-4.2725,-4.3587,-4.4255,-4.4194,-4.3895,-4.3048,-4.2294,-4.1632,-4.1333,-4.0994,-4.077,-4.1588,-4.1628,-4.1403,-4.2427,-4.3478,-4.3242,-4.3154,-4.3874,-4.4035,-4.4106,-4.3812,-4.3339,-4.2947,-4.2715,-4.2833,-4.311,-4.2925,-4.2571,-4.2633,-4.2879,-5.5378,-5.5684,-5.6477,-5.6805,-5.6805,-5.6805,-5.6805,-5.6805,-5.6788,-5.6357,-5.5719,-5.5615,-5.5219,-5.4615,-5.4512,-5.4512,-5.4512,-5.4512,-5.4512,-5.4512,-5.4512,-5.4512,-5.4512,-5.4512,-5.4512,-5.4425,-5.4218,-5.4115,-5.346,-5.2218,-5.1097,-5.1063,-5.0442,-5.0011,-5.0062,-5.0011,-5.0011,-4.9579,-4.8493,-4.6931,-4.619,-4.6759,-4.7545,-4.7293,-4.87,-4.9114,-4.9045,-4.901,-4.8734,-4.8316,-4.73,-4.6526,-4.5981,-4.5218,-4.4598,-4.4649,-4.5026,-4.5229,-4.5297,-4.5568,-4.5923,-4.6278,-4.6587,-4.643,-4.5955,-4.5473,-4.4896,-4.4465,-4.37,-4.3226,-4.2973,-4.2263,-4.1771,-4.1232,-4.0489,-3.9951,-3.9354,-3.9508,-3.9567,-3.9785,-4.0047,-4.1144,-4.2073,-4.2484,-4.3162,-4.3941,-4.444,-4.4409,-4.4209,-4.3701,-4.2956,-4.2279,-4.2119,-4.2025,-4.1794,-4.1957,-4.1885,-4.1903,-4.2761,-4.3494,-4.3333,-4.3517,-4.4278,-4.4513,-4.4288,-4.3986,-4.3603,-4.3644,-4.3729,-4.3716,-4.3741,-4.3556,-4.3402,-4.3648,-4.391,-5.5243,-5.5519,-5.6027,-5.6219,-5.6236,-5.6219,-5.6184,-5.6202,-5.6167,-5.5874,-5.5477,-5.5273,-5.4994,-5.4615,-5.4512,-5.4512,-5.4512,-5.4512,-5.4512,-5.4512,-5.4512,-5.4512,-5.4512,-5.4512,-5.4512,-5.4512,-5.4443,-5.4408,-5.3873,-5.2856,-5.1839,-5.1632,-5.0856,-5.0424,-5.0269,-5.0062,-4.9855,-4.9114,-4.8252,-4.6914,-4.5983,-4.6896,-4.75,-4.8131,-4.9045,-5.0011,-5.0011,-4.9942,-4.9533,-4.9091,-4.8163,-4.7398,-4.6862,-4.6113,-4.558,-4.5603,-4.5931,-4.6196,-4.6302,-4.6493,-4.6583,-4.6921,-4.725,-4.7275,-4.6745,-4.6389,-4.6033,-4.5457,-4.4382,-4.3892,-4.3402,-4.2623,-4.1806,-4.1467,-4.1294,-4.0951,-4.0612,-4.0355,-4.042,-4.0751,-4.1156,-4.2072,-4.2767,-4.2942,-4.3522,-4.4317,-4.461,-4.461,-4.4432,-4.4161,-4.3889,-4.3287,-4.3329,-4.3278,-4.3044,-4.2777,-4.2493,-4.2493,-4.3357,-4.3777,-4.3761,-4.4045,-4.4678,-4.471,-4.4487,-4.4554,-4.4429,-4.4601,-4.4723,-4.4476,-4.43,-4.4394,-4.4456,-4.461,-4.4656,-5.5229,-5.5017,-5.4793,-5.4753,-5.4753,-5.4667,-5.4701,-5.4874,-5.477,-5.477,-5.4718,-5.4615,-5.4632,-5.4512,-5.4512,-5.4512,-5.4512,-5.4512,-5.4512,-5.4512,-5.4512,-5.4512,-5.4512,-5.4512,-5.4512,-5.4512,-5.4512,-5.4512,-5.4339,-5.3684,-5.3184,-5.3046,-5.1563,-5.1149,-5.0752,-5.0269,-4.9373,-4.8603,-4.7872,-4.7,-4.6328,-4.681,-4.7665,-4.8017,-4.9097,-5.0011,-5.0011,-5.0011,-4.9959,-4.9735,-4.8839,-4.8323,-4.7837,-4.7125,-4.6698,-4.6686,-4.6793,-4.7109,-4.7403,-4.7454,-4.7699,-4.7943,-4.8169,-4.8329,-4.7948,-4.7719,-4.7289,-4.6568,-4.528,-4.4085,-4.313,-4.2019,-4.1519,-4.1236,-4.114,-4.0689,-4.0493,-4.0589,-4.0766,-4.1473,-4.2178,-4.2895,-4.3614,-4.3805,-4.3849,-4.46,-4.4761,-4.4799,-4.4836,-4.4673,-4.4756,-4.4576,-4.466,-4.4585,-4.4421,-4.405,-4.3549,-4.3573,-4.4155,-4.4399,-4.4448,-4.4835,-4.5173,-4.4817,-4.4655,-4.4969,-4.5291,-4.5362,-4.529,-4.4977,-4.4761,-4.4648,-4.461,-4.461,-4.4671,-5.578,-5.5496,-5.5022,-5.4683,-5.4512,-5.4512,-5.4512,-5.4512,-5.4512,-5.4512,-5.4512,-5.4512,-5.4512,-5.4512,-5.4512,-5.4512,-5.4512,-5.4512,-5.4512,-5.4512,-5.4512,-5.4512,-5.4512,-5.4512,-5.4512,-5.4512,-5.4512,-5.4512,-5.4443,-5.4132,-5.4132,-5.3529,-5.2149,-5.1338,-5.0856,-5.0511,-4.9493,-4.8586,-4.7941,-4.7121,-4.6655,-4.7017,-4.7717,-4.7838,-4.9217,-4.9924,-5.0011,-5.0011,-5.0011,-4.9763,-4.9079,-4.881,-4.8609,-4.7872,-4.7524,-4.7512,-4.7624,-4.7865,-4.801,-4.806,-4.8105,-4.8548,-4.8787,-4.8894,-4.8767,-4.842,-4.8,-4.7177,-4.6054,-4.4781,-4.4031,-4.2688,-4.1627,-4.1198,-4.0801,-4.0382,-4.0309,-4.0466,-4.099,-4.1655,-4.2501,-4.3318,-4.4071,-4.474,-4.4716,-4.479,-4.4896,-4.5024,-4.512,-4.5326,-4.5494,-4.5604,-4.5697,-4.5262,-4.501,-4.4736,-4.448,-4.4654,-4.4873,-4.4836,-4.4865,-4.5335,-4.5486,-4.5092,-4.4945,-4.5293,-4.5666,-4.5952,-4.5845,-4.5353,-4.4933,-4.461,-4.461,-4.461,-4.4718,-5.6474,-5.608,-5.5449,-5.4944,-5.4589,-5.4543,-5.4512,-5.4512,-5.4512,-5.4512,-5.4512,-5.4512,-5.4512,-5.4512,-5.4512,-5.4512,-5.4512,-5.4512,-5.4512,-5.4512,-5.4512,-5.4512,-5.4512,-5.4512,-5.4512,-5.4512,-5.4512,-5.4512,-5.4512,-5.4512,-5.4443,-5.3891,-5.2822,-5.208,-5.1701,-5.1028,-5.0183,-4.9252,-4.87,-4.7838,-4.7234,-4.7638,-4.8051,-4.8224,-4.939,-4.9924,-5.0011,-5.0011,-5.0011,-4.9826,-4.9476,-4.9108,-4.8856,-4.8524,-4.8157,-4.8203,-4.8326,-4.8503,-4.846,-4.8395,-4.846,-4.8818,-4.8951,-4.9018,-4.894,-4.8753,-4.8371,-4.7982,-4.6799,-4.5708,-4.4922,-4.3249,-4.198,-4.1449,-4.0801,-4.0397,-4.0374,-4.0519,-4.1152,-4.1802,-4.2626,-4.3298,-4.4376,-4.5018,-4.5248,-4.5237,-4.5332,-4.5551,-4.5841,-4.6076,-4.6378,-4.6518,-4.6622,-4.6004,-4.5408,-4.5136,-4.4898,-4.4862,-4.5035,-4.4992,-4.5144,-4.5624,-4.5587,-4.5,-4.5073,-4.5607,-4.6088,-4.6503,-4.6177,-4.564,-4.5194,-4.4723,-4.461,-4.4625,-4.4764,-5.7166,-5.6599,-5.5897,-5.5284,-5.4873,-5.4575,-5.4512,-5.4512,-5.4512,-5.4512,-5.4512,-5.4512,-5.4512,-5.4512,-5.4512,-5.4512,-5.4512,-5.4512,-5.4512,-5.4512,-5.4512,-5.4512,-5.4512,-5.4512,-5.4512,-5.4512,-5.4512,-5.4512,-5.4512,-5.4512,-5.4512,-5.4374,-5.3615,-5.3028,-5.3201,-5.2498,-5.1378,-5.0154,-4.9924,-4.8924,-4.812,-4.831,-4.8534,-4.881,-4.9493,-4.9993,-5.0011,-5.0011,-5.0011,-4.9895,-4.9878,-4.9711,-4.966,-4.966,-4.9545,-4.9631,-4.9431,-4.9368,-4.9372,-4.9087,-4.8981,-4.8984,-4.9018,-4.9018,-4.897,-4.8846,-4.8721,-4.8368,-4.7291,-4.6255,-4.5016,-4.3746,-4.2719,-4.1871,-4.1282,-4.0801,-4.079,-4.0873,-4.1522,-4.1906,-4.2332,-4.2959,-4.4248,-4.5254,-4.5618,-4.5744,-4.5789,-4.606,-4.6467,-4.6848,-4.7188,-4.7372,-4.744,-4.683,-4.6203,-4.563,-4.5324,-4.5273,-4.5111,-4.4943,-4.5269,-4.5862,-4.5613,-4.4953,-4.5431,-4.62,-4.6655,-4.71,-4.6629,-4.6159,-4.5342,-4.4874,-4.4723,-4.4625,-4.4748,-5.7613,-5.7227,-5.6492,-5.5989,-5.5584,-5.4807,-5.4512,-5.4512,-5.4512,-5.4512,-5.4512,-5.4512,-5.4512,-5.4512,-5.4543,-5.4543,-5.4543,-5.4512,-5.4512,-5.4543,-5.4575,-5.4512,-5.4543,-5.4557,-5.4543,-5.4512,-5.4512,-5.4543,-5.4512,-5.4512,-5.4512,-5.4391,-5.4167,-5.3563,-5.2839,-5.2205,-5.1619,-5.0774,-5.0235,-4.9493,-4.8603,-4.8741,-4.8913,-4.8947,-4.9683,-5.0028,-5.0011,-5.0011,-5.0011,-5.0011,-5.0011,-5.0011,-5.0011,-5.0011,-5.0011,-4.9935,-4.9666,-4.9398,-4.9246,-4.9032,-4.9001,-4.9018,-4.9018,-4.9018,-4.897,-4.894,-4.8877,-4.8688,-4.7913,-4.7029,-4.6193,-4.4894,-4.3871,-4.3082,-4.2432,-4.1801,-4.1595,-4.1674,-4.1941,-4.2106,-4.2435,-4.3556,-4.4798,-4.5843,-4.6311,-4.6722,-4.6846,-4.7019,-4.7389,-4.7737,-4.8063,-4.8193,-4.8171,-4.762,-4.6988,-4.6174,-4.5392,-4.5101,-4.4856,-4.4597,-4.5125,-4.5883,-4.5738,-4.5143,-4.5942,-4.6777,-4.7147,-4.7376,-4.7193,-4.6687,-4.5981,-4.5194,-4.4874,-4.4723,-4.4656,-5.8092,-5.7779,-5.7166,-5.6757,-5.6375,-5.5331,-5.4838,-5.4838,-5.4838,-5.4838,-5.4869,-5.4869,-5.4869,-5.4869,-5.4838,-5.4838,-5.4838,-5.4838,-5.4869,-5.4838,-5.4869,-5.49,-5.49,-5.4821,-5.493,-5.4821,-5.4759,-5.4745,-5.47,-5.4655,-5.4592,-5.4512,-5.4494,-5.4011,-5.3356,-5.3032,-5.277,-5.2097,-5.1563,-5.1045,-5.0361,-5.0085,-4.9964,-4.9913,-5.0114,-5.0304,-5.0097,-5.0011,-5.0011,-5.0011,-5.0011,-5.0011,-5.0011,-5.0011,-5.0011,-4.9906,-4.9742,-4.9428,-4.9185,-4.9094,-4.9063,-4.9018,-4.9018,-4.9018,-4.9018,-4.9001,-4.9001,-4.8815,-4.8389,-4.7803,-4.6986,-4.5717,-4.4918,-4.4169,-4.363,-4.2961,-4.2849,-4.2925,-4.2929,-4.2995,-4.3405,-4.4495,-4.5509,-4.6314,-4.7169,-4.7555,-4.7951,-4.8146,-4.8356,-4.8591,-4.881,-4.892,-4.8873,-4.8345,-4.7493,-4.6475,-4.5733,-4.5016,-4.4569,-4.4156,-4.4833,-4.5517,-4.5415,-4.5595,-4.6544,-4.7285,-4.7551,-4.7638,-4.7621,-4.7321,-4.674,-4.5965,-4.5194,-4.5024,-4.5008,-5.8532,-5.8257,-5.79,-5.7534,-5.7141,-5.6118,-5.5601,-5.5514,-5.5514,-5.5514,-5.5531,-5.5543,-5.5508,-5.5525,-5.5514,-5.5514,-5.5514,-5.5514,-5.5514,-5.5514,-5.5496,-5.5496,-5.5496,-5.5496,-5.5496,-5.5437,-5.5319,-5.5139,-5.5022,-5.4762,-5.4606,-5.4543,-5.4512,-5.4287,-5.4184,-5.4046,-5.3701,-5.3097,-5.2787,-5.2235,-5.1602,-5.1688,-5.1222,-5.0964,-5.0821,-5.0545,-5.0252,-5.0011,-5.0011,-5.0011,-5.0011,-5.0011,-5.0011,-5.0011,-5.0011,-4.9935,-4.9784,-4.9518,-4.926,-4.9168,-4.9124,-4.9032,-4.9018,-4.9018,-4.9018,-4.9018,-4.9018,-4.8877,-4.8532,-4.8083,-4.7438,-4.6639,-4.5835,-4.5279,-4.4776,-4.451,-4.4437,-4.4386,-4.4353,-4.4521,-4.4964,-4.5814,-4.6782,-4.7589,-4.8498,-4.9037,-4.9457,-4.9627,-4.9698,-4.9402,-4.9582,-4.9607,-4.9421,-4.9039,-4.8075,-4.6684,-4.561,-4.4768,-4.407,-4.3734,-4.4483,-4.5016,-4.5072,-4.5586,-4.7033,-4.7815,-4.8115,-4.8205,-4.8206,-4.782,-4.7354,-4.6724,-4.5965,-4.5801,-4.5765,-5.8593,-5.8425,-5.8105,-5.7918,-5.775,-5.722,-5.6678,-5.6185,-5.614,-5.614,-5.614,-5.614,-5.6158,-5.614,-5.6158,-5.6138,-5.6101,-5.609,-5.6073,-5.6073,-5.609,-5.609,-5.609,-5.6045,-5.609,-5.5978,-5.5837,-5.5566,-5.5259,-5.4913,-5.4637,-5.4512,-5.4589,-5.4575,-5.4543,-5.4512,-5.4046,-5.3684,-5.3529,-5.308,-5.2597,-5.2394,-5.1877,-5.1442,-5.1188,-5.0757,-5.0218,-5.0011,-5.0011,-5.0011,-5.0011,-5.0011,-5.0011,-5.0011,-4.9964,-4.9784,-4.9679,-4.956,-4.929,-4.9199,-4.9138,-4.9063,-4.9001,-4.9001,-4.9018,-4.9035,-4.9035,-4.8846,-4.8675,-4.8311,-4.8266,-4.7733,-4.7375,-4.7163,-4.6862,-4.6883,-4.6842,-4.6804,-4.6746,-4.6881,-4.7309,-4.7522,-4.8445,-4.927,-5.0116,-5.0677,-5.0974,-5.0994,-5.0927,-5.0595,-5.024,-5.0206,-4.9959,-4.9528,-4.8027,-4.6576,-4.5483,-4.4492,-4.3638,-4.312,-4.3587,-4.4087,-4.4543,-4.5603,-4.7079,-4.8086,-4.8714,-4.8748,-4.8688,-4.8435,-4.8,-4.7388,-4.6862,-4.6705,-4.6531,-5.8675,-5.8553,-5.8406,-5.8297,-5.8249,-5.8074,-5.77,-5.7261,-5.6968,-5.685,-5.6781,-5.6832,-5.685,-5.6799,-5.6773,-5.6739,-5.6643,-5.6661,-5.6661,-5.6661,-5.667,-5.6661,-5.6643,-5.6643,-5.6661,-5.6582,-5.6366,-5.6108,-5.5694,-5.5229,-5.493,-5.493,-5.4882,-5.4821,-5.4807,-5.4741,-5.4492,-5.414,-5.3884,-5.3511,-5.327,-5.3011,-5.2494,-5.1701,-5.1498,-5.0929,-5.0131,-5.0011,-5.0011,-5.0011,-5.0011,-5.0011,-5.0011,-5.0011,-4.9982,-4.986,-4.983,-4.9696,-4.95,-4.9441,-4.929,-4.9138,-4.9063,-4.9249,-4.9252,-4.9255,-4.912,-4.8956,-4.8789,-4.8718,-4.8893,-4.9027,-4.9202,-4.9319,-4.9405,-4.9491,-4.9501,-4.9491,-4.951,-4.9592,-4.969,-4.9768,-5.0313,-5.1091,-5.1452,-5.1517,-5.1621,-5.1709,-5.1666,-5.1468,-5.0981,-5.07,-5.0373,-4.9913,-4.8224,-4.6621,-4.5492,-4.4165,-4.2568,-4.225,-4.2716,-4.3622,-4.4526,-4.576,-4.7113,-4.8102,-4.9029,-4.9118,-4.9046,-4.8829,-4.8704,-4.8386,-4.7918,-4.7572,-4.7404,-5.8605,-5.8584,-5.8677,-5.8656,-5.8677,-5.8635,-5.8553,-5.8449,-5.7872,-5.7607,-5.7516,-5.7589,-5.7589,-5.7522,-5.7498,-5.7443,-5.737,-5.732,-5.7345,-5.7289,-5.7338,-5.7338,-5.7313,-5.7282,-5.7289,-5.717,-5.6941,-5.6653,-5.6274,-5.5826,-5.5525,-5.5543,-5.5525,-5.5467,-5.5259,-5.5079,-5.4857,-5.4637,-5.4416,-5.4218,-5.4305,-5.4218,-5.3822,-5.2412,-5.1929,-5.1515,-5.0424,-5.0011,-5.0011,-5.0011,-5.0011,-5.0011,-5.0011,-5.0011,-4.9982,-4.9982,-4.9964,-4.983,-4.9696,-4.9619,-4.9441,-4.929,-4.9199,-4.948,-4.9537,-4.9526,-4.939,-4.9661,-4.9641,-4.9914,-5.0123,-5.0276,-5.0442,-5.0858,-5.1142,-5.1278,-5.1363,-5.1428,-5.1609,-5.1637,-5.16,-5.1677,-5.1877,-5.256,-5.2692,-5.2485,-5.2509,-5.2653,-5.255,-5.2459,-5.1787,-5.1252,-5.0804,-5.0154,-4.8534,-4.6993,-4.5613,-4.4078,-4.2354,-4.1912,-4.2723,-4.3682,-4.4708,-4.6141,-4.758,-4.8431,-4.9214,-4.9295,-4.9354,-4.9307,-4.9229,-4.9307,-4.9001,-4.8487,-4.8178,-5.7788,-5.7862,-5.8456,-5.8677,-5.8677,-5.8677,-5.8635,-5.8492,-5.8486,-5.8338,-5.8253,-5.8253,-5.8231,-5.8164,-5.8142,-5.8074,-5.8042,-5.795,-5.8065,-5.802,-5.8038,-5.7881,-5.7927,-5.7834,-5.7857,-5.7745,-5.751,-5.7094,-5.6643,-5.6321,-5.6101,-5.6101,-5.6101,-5.6007,-5.574,-5.549,-5.5259,-5.5053,-5.4793,-5.462,-5.4557,-5.4336,-5.3822,-5.2722,-5.2114,-5.1533,-5.0649,-5.0097,-5.0045,-5.0011,-5.0011,-5.0011,-5.0011,-5.0028,-5.0028,-5.0011,-5.0154,-5.013,-5.0054,-4.9983,-4.9834,-4.9504,-4.942,-4.965,-4.9791,-4.9828,-5.0033,-5.0373,-5.068,-5.1002,-5.1307,-5.1427,-5.1697,-5.2218,-5.2723,-5.2889,-5.3068,-5.3265,-5.3474,-5.3421,-5.335,-5.3415,-5.3533,-5.365,-5.3834,-5.3914,-5.3949,-5.3994,-5.3873,-5.3649,-5.2546,-5.1925,-5.1304,-5.0378,-4.8844,-4.7534,-4.6286,-4.4751,-4.3113,-4.2844,-4.2844,-4.3975,-4.5233,-4.6735,-4.8066,-4.9015,-4.9602,-4.9518,-4.9573,-4.9821,-4.9907,-5.003,-4.9756,-4.9309,-4.9029,-5.7509,-5.7602,-5.8382,-5.8677,-5.8677,-5.8677,-5.8675,-5.8614,-5.8656,-5.8656,-5.8574,-5.8593,-5.8553,-5.8511,-5.8511,-5.8486,-5.8415,-5.8411,-5.8327,-5.839,-5.8411,-5.8282,-5.8242,-5.8197,-5.8065,-5.795,-5.7721,-5.7345,-5.7007,-5.6845,-5.6714,-5.6714,-5.667,-5.6537,-5.6284,-5.5978,-5.5665,-5.5425,-5.5096,-5.493,-5.479,-5.4496,-5.4008,-5.3028,-5.2528,-5.1942,-5.1494,-5.0976,-5.0994,-5.0994,-5.108,-5.108,-5.1114,-5.1132,-5.1063,-5.1063,-5.105,-5.0917,-5.0806,-5.0648,-5.051,-5.0281,-5.0274,-5.0757,-5.1114,-5.1166,-5.0896,-5.1151,-5.0965,-5.1203,-5.176,-5.203,-5.2485,-5.3008,-5.3426,-5.3673,-5.3819,-5.3997,-5.406,-5.4075,-5.4006,-5.4055,-5.4107,-5.4107,-5.4256,-5.4256,-5.446,-5.4477,-5.4494,-5.4494,-5.346,-5.2735,-5.2183,-5.108,-4.9631,-4.8372,-4.7121,-4.5544,-4.3906,-4.3655,-4.3672,-4.4665,-4.5836,-4.7692,-4.9074,-4.9779,-5.0167,-5.0283,-5.0639,-5.106,-5.0978,-5.0845,-5.0488,-5.0216,-5.0161,-5.7268,-5.7602,-5.8252,-5.8624,-5.8677,-5.8677,-5.8677,-5.8677,-5.8677,-5.8677,-5.8677,-5.8677,-5.8596,-5.8553,-5.8532,-5.8505,-5.848,-5.8502,-5.848,-5.8459,-5.8459,-5.8393,-5.8327,-5.826,-5.8152,-5.7997,-5.7792,-5.7649,-5.7461,-5.7363,-5.7289,-5.7307,-5.7257,-5.7181,-5.6881,-5.6573,-5.6257,-5.5996,-5.5711,-5.5496,-5.5169,-5.4786,-5.4133,-5.3694,-5.3339,-5.2977,-5.2477,-5.2201,-5.2153,-5.2084,-5.1929,-5.1895,-5.1895,-5.1843,-5.1895,-5.186,-5.1826,-5.1877,-5.1946,-5.1847,-5.1733,-5.1651,-5.1757,-5.189,-5.2177,-5.2146,-5.1876,-5.1859,-5.1656,-5.179,-5.238,-5.2735,-5.3258,-5.3612,-5.3992,-5.4271,-5.4416,-5.4529,-5.4512,-5.4512,-5.4512,-5.4512,-5.4512,-5.4512,-5.4512,-5.4512,-5.4512,-5.4512,-5.4512,-5.4477,-5.3994,-5.3632,-5.3339,-5.2046,-5.0459,-4.9338,-4.8172,-4.6527,-4.5079,-4.4621,-4.457,-4.5665,-4.7121,-4.9154,-5.0331,-5.071,-5.1227,-5.1529,-5.1916,-5.2071,-5.1765,-5.1451,-5.1428,-5.1254,-5.1401,-5.6283,-5.7509,-5.7695,-5.8103,-5.8642,-5.8677,-5.8677,-5.8677,-5.8677,-5.8677,-5.8677,-5.8677,-5.8677,-5.8656,-5.8656,-5.8614,-5.8612,-5.8612,-5.8614,-5.8635,-5.859,-5.8505,-5.8375,-5.8282,-5.8197,-5.8042,-5.7909,-5.7909,-5.7768,-5.7792,-5.7815,-5.7792,-5.7792,-5.7655,-5.7376,-5.7029,-5.6621,-5.6286,-5.5999,-5.575,-5.5524,-5.5026,-5.4383,-5.39,-5.3435,-5.2904,-5.2442,-5.2205,-5.217,-5.217,-5.2291,-5.236,-5.2429,-5.2481,-5.2498,-5.2567,-5.2532,-5.2515,-5.255,-5.2567,-5.2448,-5.213,-5.2135,-5.2162,-5.241,-5.2599,-5.2649,-5.3106,-5.3037,-5.312,-5.3476,-5.3541,-5.3879,-5.4025,-5.4286,-5.4367,-5.448,-5.4512,-5.4512,-5.4512,-5.4512,-5.4512,-5.4512,-5.4512,-5.4512,-5.4512,-5.4512,-5.4512,-5.4512,-5.4477,-5.4425,-5.4305,-5.4167,-5.2925,-5.1321,-5.0476,-4.9286,-4.7596,-4.632,-4.5924,-4.601,-4.6769,-4.8372,-5.0476,-5.1097,-5.1274,-5.1826,-5.2653,-5.2481,-5.2515,-5.2239,-5.2041,-5.2135,-5.2248,-5.2378]},{"header":{"parameterUnit":"m.s-1","parameterCategory":1,"la1":31.0,"la2":29.5877,"lo1":-88.7671,"lo2":-86.6584,"dy":0.0162,"dx":0.0185,"nx":115,"ny":88,"refTime":"2026-04-20T12:00:00:Z","depth":0,"parameterNumber":3,"parameterNumberName":"V-component_of_WINDS"},"data":[0.0,0.0,0.0,0.0,0.0,0.0,0.0,0.0,0.0,0.0,0.0,0.0,0.0,0.0,0.0,0.0,0.0,0.0,0.0,0.0,0.0,0.0,0.0,0.0,0.0,0.0,0.0,0.0,0.0,0.0,0.0,0.0,0.0,0.0,0.0,0.0,0.0,0.0,0.0,0.0,0.0,0.0,0.0,0.0,0.0,0.0,0.0,0.0,0.0,0.0,0.0,0.0,0.0,0.0,0.0,0.0,0.0,0.0,0.0,0.0,0.0,0.0,0.0,0.0,0.0,0.0,0.0,0.0,0.0,0.0,0.0,0.0,0.0,0.0,0.0,0.0,0.0,0.0,0.0,0.0,0.0,0.0,0.0,0.0,0.0,0.0,0.0,0.0,0.0,0.0,0.0,0.0,0.0,0.0,0.0,0.0,0.0,0.0,0.0,0.0,0.0,0.0,0.0,0.0,0.0,0.0,0.0,0.0,0.0,0.0,0.0,0.0,0.0,0.0,0.0,0.0,0.0,0.0,0.0,0.0,0.0,0.0,0.0,0.0,0.0,0.0,0.0,0.0,0.0,0.0,0.0,0.0,0.0,0.0,0.0,0.0,0.0,0.0,0.0,0.0,0.0,0.0,0.0,0.0,0.0,0.0,0.0,0.0,0.0,0.0,0.0,0.0,0.0,0.0,0.0,0.0,0.0,0.0,0.0,0.0,0.0,0.0,0.0,0.0,0.0,0.0,0.0,0.0,0.0,0.0,0.0,0.0,0.0,0.0,0.0,0.0,0.0,0.0,0.0,0.0,0.0,0.0,0.0,0.0,0.0,0.0,0.0,0.0,0.0,0.0,0.0,0.0,0.0,0.0,0.0,0.0,0.0,0.0,0.0,0.0,0.0,0.0,0.0,0.0,0.0,0.0,0.0,0.0,0.0,0.0,0.0,0.0,0.0,0.0,0.0,0.0,0.0,0.0,0.0,0.0,0.0,0.0,0.0,0.0,0.0,0.0,0.0,0.0,0.0,0.0,0.0,0.0,0.0,0.0,0.0,0.0,0.0,0.0,0.0,0.0,0.0,0.0,0.0,0.0,0.0,0.0,0.0,0.0,0.0,0.0,0.0,0.0,0.0,0.0,0.0,0.0,0.0,0.0,0.0,0.0,0.0,0.0,0.0,0.0,0.0,0.0,0.0,0.0,0.0,0.0,0.0,0.0,0.0,0.0,0.0,0.0,0.0,0.0,0.0,0.0,0.0,0.0,0.0,0.0,0.0,0.0,0.0,0.0,0.0,0.0,0.0,0.0,0.0,0.0,0.0,0.0,0.0,0.0,0.0,0.0,0.0,0.0,0.0,0.0,0.0,0.0,0.0,0.0,0.0,0.0,0.0,0.0,0.0,0.0,0.0,0.0,0.0,0.0,0.0,0.0,0.0,0.0,0.0,0.0,0.0,0.0,0.0,0.0,0.0,0.0,0.0,0.0,0.0,0.0,0.0,0.0,0.0,0.0,0.0,0.0,0.0,0.0,0.0,0.0,0.0,0.0,0.0,0.0,0.0,0.0,0.0,0.0,0.0,0.0,0.0,0.0,0.0,0.0,0.0,0.0,0.0,0.0,0.0,0.0,0.0,0.0,0.0,0.0,0.0,0.0,0.0,0.0,0.0,0.0,0.0,0.0,0.0,0.0,0.0,0.0,0.0,0.0,0.0,0.0,0.0,0.0,0.0,0.0,0.0,0.0,0.0,0.0,0.0,0.0,0.0,0.0,0.0,0.0,0.0,0.0,0.0,0.0,0.0,0.0,0.0,0.0,0.0,0.0,0.0,0.0,0.0,0.0,0.0,0.0,0.0,0.0,0.0,0.0,0.0,0.0,0.0,0.0,0.0,0.0,0.0,0.0,0.0,0.0,0.0,0.0,0.0,0.0,0.0,0.0,0.0,0.0,0.0,0.0,0.0,0.0,0.0,0.0,0.0,0.0,0.0,0.0,0.0,0.0,0.0,0.0,0.0,0.0,0.0,0.0,0.0,0.0,0.0,0.0,0.0,0.0,0.0,0.0,0.0,0.0,0.0,0.0,0.0,0.0,0.0,0.0,0.0,0.0,0.0,0.0,0.0,0.0,0.0,0.0,0.0,0.0,0.0,0.0,0.0,0.0,0.0,0.0,0.0,0.0,0.0,0.0,0.0,0.0,0.0,0.0,0.0,0.0,0.0,0.0,0.0,0.0,0.0,0.0,0.0,0.0,0.0,0.0,0.0,0.0,0.0,0.0,0.0,0.0,0.0,0.0,0.0,0.0,0.0,0.0,0.0,0.0,0.0,0.0,0.0,0.0,0.0,0.0,0.0,0.0,0.0,0.0,0.0,0.0,0.0,0.0,0.0,0.0,0.0,0.0,0.0,0.0,0.0,0.0,0.0,0.0,0.0,0.0,0.0,0.0,0.0,0.0,0.0,0.0,0.0,0.0,0.0,0.0,0.0,0.0,0.0,0.0,0.0,0.0,0.0,0.0,0.0,0.0,0.0,0.0,0.0,0.0,0.0,0.0,0.0,0.0,0.0,0.0,0.0,0.0,0.0,0.0,0.0,0.0,0.0,0.0,0.0,0.0,0.0,0.0,0.0,0.0,0.0,0.0,0.0,0.0,0.0,0.0,0.0,0.0,0.0,0.0,0.0,0.0,0.0,0.0,0.0,0.0,0.0,0.0,0.0,0.0,0.0,0.0,0.0,0.0,0.0,0.0,0.0,0.0,0.0,0.0,0.0,0.0,0.0,0.0,0.0,0.0,0.0,0.0,0.0,0.0,0.0,0.0,0.0,0.0,0.0,0.0,0.0,0.0,0.0,0.0,0.0,0.0,0.0,0.0,0.0,0.0,0.0,0.0,0.0,0.0,0.0,0.0,0.0,0.0,0.0,0.0,0.0,0.0,0.0,0.0,0.0,0.0,0.0,0.0,0.0,0.0,0.0,0.0,0.0,0.0,0.0,0.0,0.0,0.0,0.0,0.0,0.0,0.0,0.0,0.0,0.0,0.0,0.0,0.0,0.0,0.0,0.0,0.0,0.0,0.0,0.0,0.0,0.0,0.0,0.0,0.0,0.0,0.0,0.0,0.0,0.0,0.0,0.0,0.0,0.0,0.0,0.0,0.0,0.0,0.0,0.0,0.0,0.0,0.0,0.0,0.0,0.0,0.0,0.0,0.0,0.0,0.0,0.0,0.0,0.0,0.0,0.0,0.0,0.0,0.0,0.0,0.0,0.0,0.0,0.0,0.0,0.0,0.0,0.0,0.0,0.0,0.0,0.0,0.0,0.0,0.0,0.0,0.0,0.0,0.0,0.0,0.0,0.0,0.0,0.0,0.0,0.0,0.0,0.0,0.0,0.0,0.0,0.0,0.0,0.0,0.0,0.0,0.0,0.0,0.0,0.0,0.0,0.0,0.0,0.0,0.0,0.0,0.0,0.0,0.0,0.0,0.0,0.0,0.0,0.0,0.0,0.0,0.0,0.0,0.0,0.0,0.0,0.0,0.0,0.0,0.0,0.0,0.0,0.0,0.0,0.0,0.0,0.0,0.0,0.0,0.0,0.0,0.0,0.0,0.0,0.0,0.0,0.0,0.0,0.0,0.0,0.0,0.0,0.0,0.0,0.0,0.0,0.0,0.0,0.0,0.0,0.0,0.0,0.0,0.0,0.0,0.0,0.0,0.0,0.0,0.0,0.0,0.0,0.0,0.0,0.0,0.0,0.0,0.0,0.0,0.0,0.0,0.0,0.0,0.0,0.0,0.0,0.0,0.0,0.0,0.0,0.0,0.0,0.0,0.0,0.0,0.0,0.0,0.0,0.0,0.0,0.0,0.0,0.0,0.0,0.0,0.0,0.0,0.0,0.0,0.0,0.0,0.0,0.0,0.0,0.0,0.0,0.0,0.0,0.0,0.0,0.0,0.0,0.0,0.0,0.0,0.0,0.0,0.0,0.0,0.0,0.0,0.0,0.0,0.0,0.0,0.0,0.0,0.0,0.0,0.0,0.0,0.0,0.0,0.0,0.0,0.0,0.0,0.0,0.0,0.0,0.0,0.0,0.0,0.0,0.0,0.0,0.0,0.0,0.0,0.0,0.0,0.0,0.0,0.0,0.0,0.0,0.0,0.0,0.0,0.0,0.0,0.0,0.0,0.0,0.0,0.0,0.0,0.0,0.0,0.0,0.0,0.0,0.0,0.0,0.0,0.0,0.0,0.0,0.0,0.0,0.0,0.0,0.0,0.0,0.0,0.0,0.0,0.0,0.0,0.0,-0.4336,0.0,0.0,0.0,0.0,0.0,0.0,0.0,0.0,0.0,0.0,0.0,0.0,0.0,0.0,0.0,0.0,0.0,0.0,0.0,0.0,0.0,0.0,0.0,0.0,0.0,0.0,0.0,0.0,0.0,0.0,0.0,0.0,0.0,0.0,0.0,0.0,0.0,0.0,0.0,0.0,0.0,0.0,0.0,0.0,0.0,0.0,0.0,0.0,0.0,0.0,0.0,0.0,0.0,0.0,0.0,0.0,0.0,0.0,0.0,0.0,0.0,0.0,0.0,0.0,0.0,0.0,0.0,0.0,0.0,0.0,0.0,0.0,0.0,0.0,0.0,0.0,0.0,0.0,0.0,0.0,0.0,0.0,0.0,0.0,0.0,0.0,0.0,0.0,0.0,0.0,0.0,0.0,0.0,0.0,0.0,0.0,0.0,0.0,0.0,0.0,0.0,0.0,0.0,0.0,0.0,0.0,0.0,0.0,0.0,0.0,-0.6611,-0.6283,-0.6114,-0.562,-0.4765,0.0,0.0,0.0,0.0,0.0,0.0,0.0,0.0,0.0,0.0,0.0,0.0,0.0,0.0,0.0,0.0,0.0,0.0,0.0,0.0,0.0,0.0,0.0,0.0,0.0,0.0,0.0,0.0,0.0,0.0,0.0,0.0,0.0,0.0,0.0,0.0,0.0,0.0,0.0,0.0,0.0,0.0,0.0,0.0,0.0,0.0,0.0,0.0,0.0,0.0,0.0,0.0,0.0,0.0,0.0,0.0,0.0,0.0,0.0,0.0,0.0,0.0,0.0,0.0,0.0,0.0,0.0,0.0,0.0,0.0,0.0,0.0,0.0,0.0,0.0,0.0,0.0,0.0,0.0,0.0,0.0,0.0,0.0,0.0,0.0,0.0,0.0,0.0,0.0,0.0,0.0,0.0,0.0,0.0,0.0,0.0,0.0,0.0,0.0,0.0,0.0,0.0,0.0,0.0,0.0,0.0,0.0,0.0,0.0,0.0,0.0,0.0,-0.655,-0.6117,-0.532,0.0,0.0,0.0,0.0,0.0,0.0,0.0,0.0,0.0,0.0,0.0,0.0,0.0,0.0,0.0,0.0,0.0,0.0,0.0,0.0,0.0,0.0,0.0,0.0,0.0,0.0,0.0,0.0,0.0,0.0,0.0,0.0,0.0,0.0,0.0,0.0,0.0,0.0,0.0,0.0,0.0,0.0,0.0,0.0,0.0,0.0,0.0,0.0,0.0,0.0,0.0,0.0,0.0,0.0,0.0,0.0,0.0,0.0,0.0,0.0,0.0,0.0,0.0,0.0,0.0,0.0,0.0,0.0,0.0,0.0,0.0,0.0,0.0,0.0,0.0,0.0,0.0,0.0,0.0,0.0,0.0,0.0,0.0,0.0,0.0,0.0,0.0,0.0,0.0,0.0,0.0,0.0,0.0,0.0,0.0,0.0,0.0,0.0,0.0,0.0,0.0,0.0,0.0,0.0,0.0,0.0,0.0,0.0,0.0,0.0,-0.6636,-0.6867,-0.6794,0.0,-0.6164,0.0,0.0,0.0,0.0,0.0,0.0,0.0,0.0,0.0,0.0,0.0,0.0,0.0,0.0,0.0,0.0,0.0,0.0,0.0,0.0,0.0,0.0,0.0,0.0,0.0,0.0,0.0,0.0,0.0,0.0,0.0,0.0,0.0,0.0,0.0,0.0,0.0,0.0,0.0,0.0,0.0,0.0,0.0,0.0,0.0,0.0,0.0,0.0,0.0,0.0,0.0,0.0,0.0,0.0,0.0,0.0,0.0,0.0,0.0,0.0,0.0,0.0,0.0,0.0,0.0,0.0,0.0,0.0,0.0,0.0,0.0,0.0,0.0,0.0,0.0,0.0,0.0,0.0,0.0,0.0,0.0,0.0,0.0,0.0,0.0,0.0,0.0,0.0,0.0,0.0,0.0,0.0,0.0,0.0,0.0,0.0,0.0,0.0,0.0,0.0,0.0,0.0,0.0,0.0,0.0,0.0,0.0,0.0,0.0,0.0,-0.6719,-0.7077,-0.6812,-0.6573,0.0,0.0,0.0,0.0,0.0,0.0,0.0,0.0,0.0,0.0,0.0,0.0,0.0,0.0,0.0,0.0,0.0,0.0,0.0,0.0,0.0,0.0,0.0,0.0,0.0,0.0,0.0,0.0,0.0,0.0,0.0,0.0,0.0,0.0,0.0,0.0,0.0,0.0,0.0,0.0,0.0,0.0,0.0,0.0,0.0,0.0,0.0,0.0,0.0,0.0,0.0,0.0,0.0,0.0,0.0,0.0,0.0,0.0,0.0,0.0,0.0,0.0,0.0,0.0,0.0,0.0,0.0,0.0,0.0,0.0,0.0,0.0,0.0,0.0,0.0,0.0,0.0,0.0,0.0,0.0,0.0,0.0,0.0,0.0,0.0,0.0,0.0,0.0,0.0,0.0,0.0,0.0,0.0,0.0,0.0,0.0,0.0,0.0,0.0,0.0,0.0,0.0,0.0,0.0,0.0,0.0,0.0,0.0,0.0,0.0,-0.6115,-0.6511,-0.6995,-0.6744,-0.6557,-0.642,0.0,0.0,0.0,0.0,0.0,0.0,0.0,0.0,0.0,0.0,0.0,0.0,0.0,0.0,0.0,0.0,0.0,0.0,0.0,0.0,0.0,0.0,0.0,0.0,0.0,0.0,0.0,0.0,0.0,0.0,0.0,0.0,0.0,0.0,0.0,0.0,0.0,0.0,0.0,0.0,0.0,0.0,0.0,0.0,0.0,0.0,0.0,0.0,0.0,0.0,0.0,0.0,0.0,0.0,0.0,0.0,0.0,0.0,0.0,0.0,0.0,0.0,0.0,0.0,0.0,0.0,0.0,0.0,0.0,0.0,0.0,0.0,0.0,0.0,0.0,0.0,0.0,0.0,0.0,0.0,0.0,0.0,0.0,0.0,0.0,0.0,0.0,0.0,0.0,0.0,0.0,0.0,0.0,0.0,0.0,0.0,0.0,0.0,0.0,0.0,0.0,0.0,0.0,0.0,0.0,0.0,0.0,0.0,0.0,-0.5461,-0.5835,-0.6602,-0.6611,-0.6548,0.0,0.0,0.0,0.0,0.0,0.0,0.0,0.0,0.0,0.0,0.0,0.0,0.0,0.0,0.0,0.0,0.0,0.0,0.0,0.0,0.0,0.0,0.0,0.0,0.0,0.0,0.0,0.0,0.0,0.0,0.0,0.0,0.0,0.0,0.0,0.0,0.0,0.0,0.0,0.0,0.0,0.0,0.0,0.0,0.0,0.0,0.0,0.0,0.0,0.0,0.0,0.0,0.0,0.0,0.0,0.0,0.0,0.0,0.0,0.0,0.0,0.0,0.0,0.0,0.0,0.0,0.0,0.0,0.0,0.0,0.0,0.0,0.0,0.0,0.0,0.0,0.0,0.0,0.0,0.0,0.0,0.0,0.0,0.0,0.0,0.0,0.0,0.0,0.0,0.0,0.0,0.0,0.0,0.0,0.0,0.0,0.0,0.0,0.0,0.0,0.0,0.0,0.0,0.0,0.0,0.0,0.0,0.0,0.0,-0.5089,-0.5511,-0.5911,-0.6193,-0.6211,-0.6084,0.0,0.0,0.0,0.0,0.0,0.0,0.0,0.0,0.0,0.0,0.0,0.0,0.0,0.0,0.0,0.0,0.0,0.0,0.0,0.0,0.0,0.0,0.0,0.0,0.0,0.0,0.0,0.0,0.0,0.0,0.0,0.0,0.0,0.0,0.0,0.0,0.0,0.0,0.0,0.0,0.0,0.0,0.0,0.0,0.0,0.0,0.0,0.0,0.0,0.0,0.0,0.0,0.0,0.0,0.0,0.0,0.0,0.0,0.0,0.0,0.0,0.0,0.0,0.0,0.0,0.0,0.0,0.0,0.0,0.0,0.0,0.0,0.0,0.0,0.0,0.0,0.0,0.0,0.0,0.0,0.0,0.0,0.0,0.0,0.0,0.0,0.0,0.0,0.0,0.0,0.0,0.0,0.0,0.0,0.0,0.0,0.0,0.0,0.0,0.0,0.0,0.0,0.0,0.0,0.0,0.0,0.0,0.0,0.0,-0.5242,0.0,-0.6311,0.0,-0.6197,-0.6073,0.0,0.0,0.0,0.0,0.0,0.0,0.0,0.0,0.0,0.0,0.0,0.0,0.0,0.0,0.0,0.0,0.0,0.0,0.0,0.0,0.0,0.0,0.0,0.0,0.0,0.0,0.0,0.0,0.0,0.0,0.0,0.0,0.0,0.0,0.0,0.0,0.0,0.0,0.0,0.0,0.0,0.0,0.0,0.0,0.0,0.0,0.0,0.0,0.0,0.0,0.0,0.0,0.0,0.0,0.0,0.0,0.0,0.0,0.0,0.0,0.0,0.0,0.0,0.0,0.0,0.0,0.0,0.0,0.0,0.0,0.0,0.0,0.0,0.0,0.0,0.0,0.0,0.0,0.0,0.0,0.0,0.0,0.0,0.0,0.0,0.0,0.0,0.0,0.0,0.0,0.0,0.0,0.0,0.0,0.0,0.0,0.0,0.0,0.0,0.0,0.0,0.0,0.0,0.0,0.0,0.0,0.0,0.0,-0.679,-0.6082,-0.6771,-0.6986,-0.662,-0.6579,-0.6579,0.0,0.0,0.0,0.0,0.0,0.0,0.0,0.0,0.0,0.0,0.0,0.0,0.0,0.0,0.0,0.0,0.0,0.0,0.0,0.0,0.0,0.0,0.0,0.0,0.0,0.0,0.0,0.0,0.0,0.0,0.0,0.0,0.0,0.0,0.0,0.0,0.0,0.0,0.0,0.0,0.0,0.0,0.0,0.0,0.0,0.0,0.0,0.0,0.0,0.0,0.0,0.0,0.0,0.0,0.0,0.0,0.0,0.0,0.0,0.0,0.0,0.0,0.0,0.0,0.0,0.0,0.0,0.0,0.0,0.0,0.0,0.0,0.0,0.0,0.0,0.0,0.0,0.0,0.0,0.0,0.0,0.0,0.0,0.0,0.0,0.0,0.0,0.0,0.0,0.0,0.0,0.0,0.0,0.0,0.0,0.0,0.0,0.0,0.0,0.0,0.0,0.0,0.0,0.0,0.0,0.0,0.0,0.0,0.0,-0.6885,-0.7336,-0.7275,-0.6634,-0.6584,-0.6457,0.0,0.0,0.0,0.0,0.0,0.0,0.0,0.0,0.0,0.0,0.0,0.0,0.0,0.0,0.0,0.0,0.0,0.0,0.0,0.0,0.0,0.0,0.0,0.0,0.0,0.0,0.0,0.0,0.0,0.0,0.0,0.0,0.0,0.0,0.0,0.0,0.0,0.0,0.0,0.0,0.0,0.0,0.0,0.0,0.0,0.0,0.0,0.0,0.0,0.0,0.0,0.0,0.0,0.0,0.0,0.0,0.0,0.0,0.0,0.0,0.0,0.0,0.0,0.0,0.0,0.0,0.0,0.0,0.0,0.0,0.0,0.0,0.0,0.0,0.0,0.0,0.0,0.0,0.0,0.0,0.0,0.0,0.0,0.0,0.0,0.0,0.0,0.0,0.0,0.0,0.0,0.0,0.0,0.0,0.0,0.0,0.0,0.0,0.0,0.0,0.0,0.0,0.0,0.0,0.0,0.0,0.0,0.0,0.0,-0.9749,-0.9316,-0.8715,-0.7912,-0.7723,-0.734,-0.6762,0.0,0.0,0.0,0.0,0.0,0.0,0.0,0.0,0.0,0.0,0.0,0.0,0.0,0.0,0.0,0.0,0.0,0.0,0.0,0.0,0.0,0.0,0.0,0.0,0.0,0.0,0.0,0.0,0.0,0.0,0.0,0.0,0.0,0.0,0.0,0.0,0.0,0.0,0.0,0.0,0.0,0.0,0.0,0.0,0.0,0.0,0.0,0.0,0.0,0.0,0.0,0.0,0.0,0.0,0.0,0.0,0.0,0.0,0.0,0.0,0.0,0.0,0.0,0.0,0.0,0.0,0.0,0.0,0.0,0.0,0.0,0.0,0.0,0.0,0.0,0.0,0.0,0.0,0.0,0.0,0.0,0.0,0.0,0.0,0.0,0.0,0.0,0.0,0.0,0.0,0.0,0.0,0.0,0.0,0.0,0.0,0.0,0.0,0.0,0.0,0.0,0.0,0.0,0.0,0.0,0.0,0.0,0.0,-1.4024,-1.2503,-1.1255,-1.0252,-0.9725,-0.9008,0.0,0.0,0.0,0.0,0.0,0.0,0.0,0.0,0.0,0.0,0.0,0.0,0.0,0.0,0.0,0.0,0.0,0.0,0.0,0.0,0.0,0.0,0.0,0.0,0.0,0.0,0.0,0.0,0.0,0.0,0.0,0.0,0.0,0.0,0.0,0.0,0.0,0.0,0.0,0.0,0.0,0.0,0.0,0.0,0.0,0.0,0.0,0.0,0.0,0.0,0.0,0.0,0.0,0.0,0.0,0.0,0.0,0.0,0.0,0.0,0.0,0.0,0.0,0.0,0.0,0.0,0.0,0.0,0.0,0.0,0.0,0.0,0.0,0.0,0.0,0.0,0.0,0.0,0.0,0.0,0.0,0.0,0.0,0.0,0.0,0.0,0.0,0.0,0.0,0.0,0.0,0.0,0.0,0.0,0.0,0.0,0.0,0.0,0.0,0.0,0.0,0.0,0.0,0.0,0.0,0.0,0.0,0.0,0.0,-1.5656,-1.6246,-1.5143,-1.2294,-1.1555,-1.0518,0.0,0.0,0.0,0.0,0.0,0.0,0.0,0.0,0.0,0.0,0.0,0.0,0.0,0.0,0.0,0.0,0.0,0.0,0.0,0.0,0.0,0.0,0.0,0.0,0.0,0.0,0.0,0.0,0.0,0.0,0.0,0.0,0.0,0.0,0.0,0.0,0.0,0.0,0.0,0.0,0.0,0.0,0.0,0.0,0.0,0.0,0.0,0.0,0.0,0.0,0.0,0.0,0.0,0.0,0.0,0.0,0.0,0.0,0.0,0.0,0.0,0.0,0.0,0.0,0.0,0.0,0.0,0.0,0.0,0.0,0.0,0.0,0.0,0.0,0.0,0.0,0.0,0.0,0.0,0.0,0.0,0.0,0.0,0.0,0.0,0.0,0.0,0.0,0.0,0.0,0.0,0.0,0.0,0.0,0.0,0.0,0.0,0.0,0.0,0.0,0.0,0.0,0.0,0.0,0.0,0.0,0.0,0.0,-1.6746,-1.7717,-1.9545,-1.9036,-1.5953,-1.3723,-1.1828,0.0,0.0,0.0,0.0,0.0,0.0,0.0,0.0,0.0,0.0,0.0,0.0,0.0,0.0,0.0,0.0,0.0,0.0,0.0,0.0,0.0,0.0,0.0,0.0,0.0,0.0,0.0,0.0,0.0,0.0,0.0,0.0,0.0,0.0,0.0,0.0,0.0,0.0,0.0,0.0,0.0,0.0,0.0,0.0,0.0,0.0,0.0,0.0,0.0,0.0,0.0,0.0,0.0,0.0,0.0,0.0,0.0,0.0,0.0,0.0,0.0,0.0,0.0,0.0,0.0,0.0,0.0,0.0,0.0,0.0,0.0,0.0,0.0,0.0,0.0,0.0,0.0,0.0,0.0,0.0,0.0,0.0,0.0,0.0,0.0,0.0,0.0,0.0,0.0,0.0,0.0,0.0,0.0,0.0,0.0,0.0,0.0,0.0,0.0,0.0,0.0,0.0,0.0,0.0,0.0,0.0,0.0,0.0,-1.8885,-1.9918,-2.2353,-2.2583,-2.0313,-1.6117,-1.3127,0.0,0.0,0.0,0.0,0.0,0.0,0.0,0.0,0.0,0.0,0.0,0.0,0.0,0.0,0.0,0.0,0.0,0.0,0.0,0.0,0.0,0.0,0.0,0.0,0.0,0.0,0.0,0.0,0.0,0.0,0.0,0.0,0.0,0.0,0.0,0.0,0.0,0.0,0.0,0.0,0.0,0.0,0.0,0.0,0.0,0.0,0.0,0.0,0.0,0.0,0.0,0.0,0.0,0.0,0.0,0.0,0.0,0.0,0.0,0.0,0.0,0.0,0.0,0.0,0.0,0.0,0.0,0.0,0.0,0.0,0.0,0.0,0.0,0.0,0.0,0.0,0.0,0.0,0.0,0.0,0.0,0.0,0.0,0.0,0.0,0.0,0.0,0.0,0.0,0.0,0.0,0.0,0.0,0.0,0.0,0.0,0.0,0.0,0.0,0.0,0.0,0.0,0.0,0.0,0.0,0.0,0.0,0.0,-2.0381,-2.1456,-2.3889,-2.4342,-2.2559,-1.834,-1.5203,0.0,0.0,0.0,0.0,0.0,0.0,0.0,0.0,0.0,0.0,0.0,0.0,0.0,0.0,0.0,0.0,0.0,0.0,0.0,0.0,0.0,0.0,0.0,0.0,0.0,0.0,0.0,0.0,0.0,0.0,0.0,0.0,0.0,0.0,0.0,0.0,0.0,0.0,0.0,0.0,0.0,0.0,0.0,0.0,0.0,0.0,0.0,0.0,-0.7497,0.0,0.0,0.0,0.0,0.0,0.0,0.0,0.0,0.0,0.0,0.0,0.0,0.0,0.0,0.0,0.0,0.0,0.0,0.0,0.0,0.0,0.0,0.0,0.0,0.0,0.0,0.0,0.0,0.0,0.0,0.0,0.0,0.0,0.0,0.0,0.0,0.0,0.0,0.0,0.0,0.0,0.0,0.0,0.0,0.0,0.0,0.0,0.0,0.0,0.0,0.0,0.0,0.0,0.0,0.0,0.0,0.0,0.0,0.0,-2.2203,-2.3156,-2.5385,-2.5885,-2.4354,-2.1253,-1.8041,0.0,0.0,0.0,0.0,0.0,0.0,0.0,0.0,0.0,0.0,0.0,0.0,0.0,0.0,0.0,0.0,0.0,0.0,0.0,0.0,0.0,0.0,0.0,0.0,0.0,0.0,0.0,0.0,0.0,0.0,0.0,0.0,0.0,0.0,0.0,0.0,0.0,0.0,0.0,0.0,0.0,0.0,0.0,0.0,0.0,0.0,0.0,0.0,0.0,0.0,0.0,0.0,0.0,0.0,0.0,0.0,0.0,0.0,0.0,0.0,0.0,0.0,0.0,0.0,0.0,0.0,0.0,0.0,0.0,0.0,0.0,0.0,0.0,0.0,0.0,0.0,0.0,0.0,0.0,0.0,0.0,0.0,0.0,0.0,0.0,0.0,0.0,0.0,0.0,0.0,0.0,0.0,0.0,0.0,0.0,0.0,0.0,0.0,0.0,0.0,0.0,0.0,0.0,0.0,0.0,0.0,0.0,-2.1282,-2.4049,-2.4898,-2.6888,-2.7256,-2.5842,-2.3856,-2.0676,-1.6164,0.0,0.0,0.0,0.0,0.0,0.0,0.0,0.0,0.0,0.0,0.0,0.0,0.0,0.0,0.0,0.0,0.0,0.0,0.0,0.0,0.0,0.0,0.0,0.0,0.0,0.0,0.0,0.0,0.0,0.0,0.0,0.0,0.0,0.0,0.0,0.0,0.0,0.0,-0.5824,-0.6611,0.0,0.0,0.0,0.0,0.0,0.0,0.0,0.0,-0.7772,0.0,0.0,0.0,0.0,0.0,0.0,0.0,0.0,0.0,0.0,0.0,0.0,0.0,0.0,0.0,0.0,0.0,0.0,0.0,0.0,0.0,0.0,0.0,0.0,0.0,0.0,0.0,0.0,0.0,0.0,0.0,0.0,0.0,0.0,0.0,0.0,0.0,0.0,0.0,0.0,0.0,0.0,0.0,0.0,0.0,0.0,0.0,0.0,0.0,0.0,0.0,0.0,0.0,0.0,0.0,0.0,-1.8682,-2.2991,-2.5622,-2.6418,-2.8393,-2.8472,-2.6421,-2.4384,-2.1422,-1.7539,0.0,0.0,0.0,0.0,0.0,0.0,0.0,0.0,0.0,0.0,0.0,0.0,0.0,0.0,0.0,0.0,0.0,0.0,0.0,0.0,0.0,0.0,0.0,0.0,0.0,0.0,0.0,0.0,0.0,0.0,0.0,0.0,0.0,0.0,0.0,0.0,0.0,0.0,0.0,-0.8467,-0.9022,0.0,0.0,0.0,0.0,0.0,0.0,0.0,0.0,-0.8852,0.0,0.0,0.0,0.0,0.0,0.0,0.0,0.0,0.0,0.0,0.0,0.0,0.0,0.0,0.0,0.0,0.0,0.0,0.0,0.0,0.0,0.0,0.0,0.0,0.0,0.0,0.0,0.0,0.0,0.0,0.0,0.0,0.0,0.0,0.0,0.0,0.0,0.0,0.0,0.0,0.0,0.0,0.0,0.0,0.0,0.0,0.0,0.0,0.0,0.0,0.0,0.0,0.0,0.0,0.0,-1.9811,-2.434,-2.7029,-2.7771,-2.9484,-2.9308,-2.6898,-2.49,-2.2035,0.0,0.0,0.0,0.0,0.0,0.0,0.0,0.0,0.0,0.0,0.0,0.0,0.0,0.0,0.0,0.0,0.0,0.0,0.0,0.0,0.0,0.0,0.0,0.0,0.0,0.0,0.0,0.0,0.0,0.0,0.0,0.0,0.0,0.0,0.0,0.0,0.0,0.0,0.0,0.0,-0.9448,-0.9972,-1.0238,0.0,0.0,0.0,0.0,0.0,0.0,-0.9633,-0.9576,0.0,0.0,0.0,0.0,0.0,0.0,0.0,0.0,0.0,0.0,0.0,0.0,0.0,0.0,0.0,0.0,0.0,0.0,0.0,0.0,0.0,0.0,0.0,0.0,0.0,0.0,0.0,0.0,0.0,0.0,0.0,0.0,0.0,0.0,0.0,0.0,0.0,0.0,0.0,0.0,0.0,0.0,0.0,0.0,0.0,0.0,0.0,0.0,0.0,0.0,0.0,0.0,0.0,0.0,0.0,-2.0653,-2.5397,-2.8191,-2.8828,-3.022,-2.9764,-2.7197,-2.5004,-2.2125,0.0,0.0,0.0,0.0,0.0,0.0,0.0,0.0,0.0,0.0,0.0,0.0,0.0,0.0,0.0,0.0,0.0,0.0,0.0,0.0,0.0,0.0,0.0,0.0,0.0,0.0,0.0,0.0,0.0,0.0,0.0,0.0,0.0,0.0,0.0,0.0,0.0,0.0,0.0,0.0,0.0,-1.087,-1.1063,-1.1003,0.0,0.0,0.0,0.0,-1.0089,-1.0522,0.0,0.0,0.0,0.0,0.0,0.0,0.0,0.0,0.0,0.0,0.0,0.0,0.0,0.0,0.0,0.0,0.0,0.0,0.0,0.0,0.0,0.0,0.0,0.0,0.0,0.0,0.0,0.0,0.0,0.0,0.0,0.0,0.0,0.0,0.0,0.0,0.0,0.0,0.0,0.0,0.0,0.0,0.0,0.0,0.0,0.0,0.0,0.0,0.0,0.0,0.0,0.0,0.0,0.0,0.0,0.0,-2.1642,-2.6116,-2.8757,-2.9557,-3.0484,-2.9675,-2.6895,-2.4276,-2.1149,0.0,0.0,0.0,0.0,0.0,0.0,0.0,0.0,0.0,0.0,0.0,0.0,0.0,0.0,0.0,0.0,0.0,0.0,0.0,0.0,0.0,0.0,0.0,0.0,0.0,0.0,0.0,0.0,0.0,0.0,0.0,0.0,0.0,0.0,0.0,0.0,0.0,0.0,0.0,0.0,0.0,-1.2102,-1.1219,-1.2258,-1.2619,0.0,0.0,-1.2764,-1.1776,-1.248,0.0,0.0,0.0,0.0,0.0,0.0,0.0,0.0,0.0,0.0,0.0,0.0,0.0,0.0,0.0,0.0,0.0,0.0,0.0,0.0,0.0,0.0,0.0,0.0,0.0,0.0,0.0,0.0,0.0,0.0,0.0,0.0,0.0,0.0,0.0,0.0,0.0,0.0,0.0,0.0,0.0,0.0,0.0,0.0,0.0,0.0,0.0,0.0,0.0,0.0,0.0,0.0,0.0,0.0,0.0,-1.8721,-2.1808,-2.6235,-2.8906,-2.9682,-3.064,-2.9758,-2.6881,-2.4523,-2.1574,0.0,0.0,0.0,0.0,0.0,0.0,0.0,0.0,0.0,0.0,0.0,0.0,0.0,0.0,0.0,0.0,0.0,0.0,0.0,0.0,0.0,0.0,0.0,0.0,0.0,0.0,0.0,0.0,0.0,0.0,0.0,0.0,0.0,0.0,0.0,0.0,0.0,0.0,0.0,0.0,0.0,0.0,-1.2987,-1.3751,0.0,0.0,0.0,-1.4181,-1.3706,0.0,0.0,0.0,0.0,0.0,0.0,0.0,0.0,0.0,0.0,0.0,0.0,0.0,0.0,0.0,0.0,0.0,0.0,0.0,0.0,0.0,0.0,0.0,0.0,0.0,0.0,0.0,0.0,0.0,0.0,0.0,0.0,0.0,0.0,0.0,0.0,0.0,0.0,0.0,0.0,0.0,0.0,0.0,0.0,0.0,0.0,0.0,0.0,0.0,0.0,0.0,0.0,0.0,0.0,0.0,0.0,0.0,-2.1808,-2.6367,-2.9078,-2.9767,-3.0759,-2.9929,-2.7062,-2.5147,0.0,0.0,0.0,0.0,0.0,0.0,0.0,0.0,0.0,0.0,0.0,0.0,0.0,0.0,0.0,0.0,0.0,0.0,0.0,0.0,0.0,0.0,0.0,0.0,0.0,0.0,0.0,-0.4536,0.0,0.0,0.0,0.0,0.0,0.0,0.0,0.0,0.0,0.0,0.0,0.0,0.0,0.0,-1.4474,-1.4474,-1.4998,-1.5238,0.0,0.0,-1.554,-1.542,-1.584,-1.5692,0.0,0.0,0.0,0.0,0.0,0.0,0.0,0.0,0.0,0.0,0.0,0.0,0.0,0.0,0.0,0.0,0.0,0.0,0.0,0.0,0.0,0.0,0.0,0.0,0.0,0.0,0.0,0.0,0.0,0.0,0.0,0.0,0.0,0.0,0.0,0.0,0.0,0.0,0.0,0.0,0.0,0.0,0.0,0.0,0.0,0.0,0.0,0.0,0.0,0.0,0.0,0.0,0.0,0.0,0.0,-2.1886,-2.6714,-2.9508,-3.0056,-3.089,-3.0069,-2.7513,-2.5998,-2.3048,0.0,0.0,0.0,0.0,0.0,0.0,0.0,0.0,0.0,0.0,0.0,0.0,0.0,0.0,0.0,0.0,0.0,0.0,0.0,0.0,0.0,0.0,0.0,0.0,0.0,0.0,0.0,0.0,0.0,0.0,0.0,0.0,0.0,0.0,0.0,0.0,0.0,0.0,0.0,0.0,0.0,-1.4965,-1.4953,-1.585,-1.6319,0.0,0.0,-1.7063,-1.6571,-1.6931,-1.6809,-1.5407,0.0,0.0,0.0,0.0,0.0,0.0,0.0,0.0,0.0,0.0,0.0,0.0,0.0,0.0,0.0,0.0,0.0,0.0,0.0,0.0,0.0,0.0,0.0,0.0,0.0,0.0,0.0,0.0,0.0,0.0,0.0,0.0,0.0,0.0,0.0,0.0,0.0,0.0,0.0,0.0,0.0,0.0,0.0,0.0,0.0,0.0,0.0,0.0,0.0,0.0,0.0,0.0,0.0,-1.9408,-2.2305,-2.6918,-2.9556,-3.0074,-3.0721,-3.0061,-2.7969,-2.6474,-2.3706,0.0,0.0,0.0,0.0,0.0,0.0,0.0,0.0,0.0,0.0,0.0,0.0,0.0,0.0,0.0,0.0,0.0,0.0,0.0,0.0,0.0,0.0,0.0,0.0,0.0,0.0,0.0,0.0,-0.4505,-0.4905,-0.5508,0.0,0.0,0.0,0.0,0.0,0.0,0.0,0.0,0.0,0.0,-1.56,-1.5936,-1.7183,0.0,0.0,-1.8193,-1.8566,-1.77,-1.776,-1.7303,-1.5523,-1.4056,0.0,0.0,0.0,0.0,0.0,0.0,0.0,0.0,0.0,0.0,0.0,0.0,0.0,0.0,0.0,0.0,0.0,0.0,0.0,0.0,0.0,0.0,0.0,0.0,0.0,0.0,0.0,0.0,0.0,0.0,0.0,0.0,0.0,0.0,0.0,0.0,0.0,0.0,0.0,0.0,0.0,0.0,0.0,0.0,0.0,0.0,0.0,0.0,0.0,0.0,0.0,0.0,-1.9697,-2.258,-2.7181,-2.9713,-3.0074,-3.0645,-3.008,-2.8347,-2.7031,-2.4505,0.0,0.0,0.0,0.0,0.0,0.0,0.0,0.0,0.0,0.0,0.0,0.0,0.0,0.0,0.0,0.0,0.0,0.0,0.0,0.0,0.0,0.0,0.0,0.0,0.0,0.0,0.0,0.0,-0.471,-0.5266,-0.5763,0.0,0.0,0.0,0.0,0.0,0.0,0.0,0.0,0.0,0.0,-1.5864,-1.6727,-1.8085,-1.8915,-1.8698,-1.9432,-1.9676,-1.8602,-1.8301,-1.7581,-1.5801,0.0,0.0,0.0,0.0,0.0,0.0,0.0,0.0,0.0,0.0,0.0,0.0,0.0,0.0,0.0,0.0,0.0,0.0,0.0,0.0,0.0,0.0,0.0,0.0,0.0,0.0,0.0,0.0,0.0,0.0,-0.9136,0.0,0.0,0.0,0.0,0.0,0.0,0.0,0.0,0.0,0.0,0.0,0.0,0.0,0.0,0.0,0.0,0.0,0.0,0.0,0.0,0.0,0.0,-2.0042,-2.2636,-2.7529,-3.0062,-3.0098,-3.0645,-3.0122,-2.8543,-2.7762,-2.5421,-2.1272,0.0,0.0,0.0,0.0,0.0,0.0,0.0,0.0,0.0,0.0,0.0,0.0,0.0,0.0,0.0,0.0,0.0,0.0,0.0,0.0,0.0,0.0,0.0,0.0,0.0,0.0,-0.4688,-0.4997,-0.5268,0.0,0.0,0.0,0.0,0.0,0.0,0.0,0.0,0.0,0.0,-1.4393,-1.56,-1.7147,-1.8326,-1.9203,-1.9688,-2.023,-2.0217,-1.9146,-1.8518,-1.7738,0.0,0.0,0.0,0.0,0.0,0.0,0.0,0.0,0.0,0.0,0.0,0.0,0.0,0.0,0.0,0.0,0.0,0.0,0.0,0.0,0.0,0.0,0.0,0.0,0.0,0.0,0.0,-1.3317,-1.2777,0.0,0.0,0.0,0.0,0.0,0.0,0.0,0.0,0.0,0.0,0.0,-1.9375,-1.9603,0.0,0.0,0.0,0.0,0.0,0.0,0.0,0.0,0.0,0.0,0.0,0.0,-1.9847,-2.3089,-2.7373,-2.9737,-3.0086,-3.0603,-3.029,-2.9063,-2.7759,-2.493,-2.0409,0.0,0.0,0.0,0.0,0.0,0.0,0.0,0.0,0.0,0.0,0.0,0.0,0.0,0.0,0.0,0.0,0.0,0.0,0.0,0.0,0.0,0.0,0.0,0.0,0.0,-0.5262,0.0,0.0,0.0,0.0,0.0,0.0,0.0,0.0,0.0,0.0,0.0,-1.1897,-1.3312,-1.4662,-1.5972,-1.7219,-1.8912,-2.0141,0.0,0.0,0.0,0.0,0.0,0.0,0.0,0.0,0.0,0.0,0.0,0.0,0.0,0.0,-1.5875,-1.5639,-1.4706,-1.3601,-1.2421,0.0,0.0,0.0,0.0,0.0,0.0,0.0,0.0,0.0,0.0,0.0,0.0,0.0,0.0,-1.6049,0.0,-1.4027,0.0,0.0,0.0,0.0,0.0,0.0,0.0,0.0,-2.1846,-2.3026,-2.3105,-2.3248,-2.3464,0.0,-2.3247,-2.1363,0.0,0.0,0.0,0.0,0.0,0.0,0.0,0.0,-2.0203,-2.3619,-2.7565,-2.9653,-2.9821,-3.0338,-3.0098,-2.9027,-2.7115,-2.4256,-2.0466,-1.8145,-1.585,0.0,0.0,0.0,0.0,0.0,0.0,0.0,0.0,0.0,0.0,0.0,0.0,0.0,0.0,0.0,0.0,0.0,0.0,0.0,0.0,0.0,0.0,0.0,-0.5833,0.0,0.0,0.0,0.0,0.0,0.0,0.0,0.0,0.0,-1.0618,-1.1849,-1.3204,-1.4426,-1.5586,-1.6811,-1.8073,0.0,0.0,0.0,0.0,0.0,0.0,0.0,-1.7761,-1.7897,-1.8265,-1.8859,-1.9844,-1.9902,-1.9761,-1.9631,0.0,0.0,-1.7909,-1.657,-1.5154,-1.3984,-1.3332,-1.2954,-1.2982,-1.3685,-1.46,0.0,0.0,0.0,0.0,0.0,0.0,0.0,0.0,-1.9373,-1.8563,0.0,-1.6554,0.0,0.0,0.0,0.0,0.0,-1.7025,0.0,0.0,-2.4732,-2.6328,-2.7035,-2.6795,-2.6777,-2.6846,-2.6461,-2.5552,-2.4041,-2.0232,0.0,0.0,0.0,0.0,0.0,0.0,-2.1074,-2.4278,-2.8047,-2.9785,-2.934,-2.9821,-2.9569,-2.8486,-2.5949,-2.3607,-2.156,-1.9913,-1.7857,-1.5229,-1.407,0.0,0.0,0.0,0.0,0.0,0.0,0.0,0.0,0.0,0.0,0.0,0.0,0.0,0.0,0.0,0.0,0.0,0.0,0.0,0.0,-0.6528,0.0,0.0,0.0,0.0,0.0,0.0,0.0,0.0,0.0,0.0,-1.289,-1.377,-1.4976,-1.6463,0.0,0.0,0.0,0.0,-2.1644,-2.2137,-2.2642,-2.2638,-2.1572,-2.0514,-1.9884,-2.0067,0.0,0.0,-2.2126,-2.2052,-2.1871,-2.1826,-2.1082,-2.0307,-1.9852,-1.8172,-1.6444,-1.5304,-1.4985,-1.4921,-1.4947,-1.5879,-1.6969,-2.4686,0.0,0.0,0.0,0.0,-2.203,-2.3041,-2.3948,-2.3431,-2.2593,-2.1585,-2.0262,0.0,0.0,0.0,0.0,0.0,0.0,-2.2347,-2.4432,-2.6566,-2.7795,-2.8146,-2.7924,-2.804,-2.8317,-2.777,-2.7007,-2.6016,-2.4487,-2.1696,-1.7772,0.0,0.0,0.0,0.0,-2.1176,-2.4266,-2.7387,-2.9076,-2.9304,-2.9809,-2.94,-2.7942,-2.6466,-2.4843,-2.318,-2.156,-1.966,-1.7375,-1.5843,0.0,0.0,0.0,0.0,0.0,0.0,0.0,0.0,0.0,0.0,0.0,0.0,0.0,0.0,0.0,0.0,0.0,0.0,0.0,-0.7268,-0.7291,-0.7427,0.0,0.0,0.0,0.0,0.0,0.0,0.0,0.0,0.0,-1.586,-1.6317,-1.6955,0.0,0.0,-1.9985,-2.0815,-2.1849,-2.2582,-2.2739,-2.2871,0.0,0.0,-2.1392,-2.1217,-2.2006,-2.3522,-2.4737,-2.4917,-2.4455,-2.4167,-2.4403,-2.3131,-2.2179,-2.2556,-2.052,-1.8194,-1.667,-1.6867,-1.7267,-1.6972,-1.7754,-1.884,-2.9256,-2.6214,-2.4981,-2.4549,-2.4726,-2.5708,-2.6753,-2.7748,-2.7157,-2.6424,-2.5566,-2.4179,-2.2937,-2.1839,-2.0603,0.0,0.0,0.0,-2.4768,-2.6394,-2.8108,-2.9052,-2.9344,-2.9149,-2.9122,-2.928,-2.8804,-2.8247,-2.7696,-2.7151,-2.5364,-2.2345,0.0,0.0,-1.9491,-2.0449,-2.2277,-2.4979,-2.7534,-2.8883,-2.8991,-2.9292,-2.8799,-2.7426,-2.6767,-2.56,-2.3866,-2.2674,-2.1139,-1.9215,-1.7387,-1.5222,0.0,0.0,0.0,0.0,0.0,0.0,0.0,0.0,0.0,0.0,0.0,-0.6053,-0.6543,0.0,0.0,0.0,-0.8048,-0.8482,-0.8369,-0.8735,0.0,0.0,0.0,0.0,0.0,0.0,0.0,-1.4995,-1.5762,-1.687,-1.8734,-1.936,-1.9708,-1.9925,-2.0863,-2.1801,-2.2534,0.0,-2.3737,-2.4157,-2.4218,-2.4109,-2.3785,-2.3304,-2.3244,-2.4073,-2.5216,-2.6057,-2.6057,-2.5508,-2.5182,-2.5186,-2.4256,-2.3433,-2.3844,-2.2351,-2.0524,-1.863,-1.8925,-1.9451,-1.9142,-2.0021,-2.1074,-3.2856,-3.1825,-2.8999,-2.7872,-2.801,-2.8982,-3.0012,-3.1021,-3.0409,-2.9764,-2.916,-2.7969,-2.6765,-2.5477,-2.4096,0.0,-2.4659,-2.5624,-2.6852,-2.8295,-2.9424,-3.0184,-3.0612,-3.036,-3.0091,-2.9755,-2.9519,-2.925,-2.9005,-2.8504,-2.7973,-2.7347,-2.3027,-2.1305,-2.2245,-2.2735,-2.4032,-2.6142,-2.8186,-2.9003,-2.8522,-2.851,-2.7966,-2.6934,-2.6849,-2.5865,-2.3842,-2.3264,-2.2277,-2.0651,-1.8626,-1.6763,-1.5093,0.0,0.0,0.0,0.0,0.0,0.0,0.0,0.0,0.0,0.0,0.0,0.0,0.0,0.0,0.0,-0.9704,0.0,-0.9858,-1.075,0.0,0.0,0.0,-1.1868,-1.2896,-1.4321,-1.56,-1.6667,0.0,0.0,-2.1272,-2.2426,-2.2763,-2.1837,-2.2582,-2.358,-2.4578,-2.4688,-2.5059,-2.5949,-2.6129,-2.6142,-2.5949,-2.5661,-2.56,-2.6142,-2.625,-2.6274,-2.6262,-2.5703,-2.5314,-2.5344,-2.4714,-2.4207,-2.3861,-2.3836,-2.3281,-2.124,-2.1223,-2.1513,-2.142,-2.2236,-2.3188,-3.4303,-3.4016,-3.3304,-3.2147,-3.0767,-3.1412,-3.1862,-3.2118,-3.1978,-3.1366,-3.0468,-2.9791,-2.8873,-2.7865,-2.7508,-2.7693,-2.8264,-2.8873,-2.955,-3.0308,-3.0985,-3.1182,-3.0917,-3.0848,-3.0386,-2.9604,-2.9498,-2.9135,-2.8544,-2.8722,-2.8521,-2.7977,-2.6821,-2.5635,-2.4546,-2.4652,-2.5361,-2.6693,-2.8029,-2.8631,-2.8522,-2.851,-2.7966,-2.6922,-2.6514,-2.5312,-2.33,-2.3051,-2.2258,-2.0682,-1.9336,-1.7868,-1.6272,-1.4249,0.0,0.0,0.0,0.0,0.0,0.0,0.0,0.0,0.0,-0.8162,-0.8645,0.0,-0.9627,0.0,-1.0806,-1.1801,-1.2475,-1.3155,0.0,0.0,-1.4353,-1.4938,-1.5598,-1.6355,-1.7255,-1.8301,-1.9146,-2.023,-2.1813,-2.3256,-2.4218,-2.4362,-2.4939,-2.5588,-2.6225,-2.6321,-2.6405,-2.6683,-2.6729,-2.6693,-2.6741,-2.6958,-2.7258,-2.7861,-2.7596,-2.7344,-2.7282,-2.6638,-2.6109,-2.6054,-2.5466,-2.5127,-2.5273,-2.5107,-2.4887,-2.4553,-2.3994,-2.3262,-2.2812,-2.3333,-2.3949,-3.5462,-3.5451,-3.5451,-3.4796,-3.374,-3.3731,-3.3623,-3.3514,-3.3403,-3.2938,-3.2139,-3.1609,-3.102,-3.0388,-3.0283,-3.0306,-3.0514,-3.0767,-3.1054,-3.1341,-3.1628,-3.1664,-3.1341,-3.1216,-3.0686,-2.9802,-2.9366,-2.8966,-2.8661,-2.8547,-2.8562,-2.8704,-2.8798,-2.8167,-2.6926,-2.6548,-2.6645,-2.7234,-2.805,-2.851,-2.851,-2.851,-2.7966,-2.6934,-2.6382,-2.5119,-2.3095,-2.3011,-2.2385,-2.1019,-1.9925,-1.8734,-1.7339,-1.5112,-1.2878,0.0,0.0,0.0,0.0,0.0,0.0,0.0,0.0,0.0,0.0,0.0,-1.1664,-1.194,-1.277,-1.3605,-1.4442,-1.5449,-1.6244,-1.6727,-1.7471,-1.8048,-1.8362,-1.8662,-1.9128,-1.9973,-2.0526,-2.1368,-2.277,-2.4242,-2.542,-2.5925,-2.649,-2.6923,-2.7174,-2.7246,-2.7356,-2.7546,-2.7594,-2.7633,-2.7594,-2.7834,-2.8134,-2.8338,-2.7834,-2.733,-2.7344,-2.6626,-2.598,-2.5797,-2.5602,-2.5575,-2.5928,-2.5993,-2.6053,-2.6469,-2.6216,-2.5555,-2.4896,-2.5036,-2.5316,-3.6266,-3.6266,-3.6266,-3.6266,-3.6251,-3.5624,-3.5149,-3.4852,-3.4648,-3.4279,-3.3792,-3.3282,-3.2868,-3.2607,-3.2223,-3.1898,-3.1721,-3.157,-3.1523,-3.1651,-3.172,-3.1813,-3.1802,-3.161,-3.109,-3.017,-2.9269,-2.8853,-2.8963,-2.8292,-2.8463,-2.9362,-2.9709,-2.9647,-2.9142,-2.8391,-2.7918,-2.7837,-2.823,-2.851,-2.851,-2.851,-2.8005,-2.6934,-2.6322,-2.5011,-2.2991,-2.2823,-2.233,-2.1344,-2.029,-1.929,-1.8313,-1.5883,-1.3819,0.0,-1.182,0.0,0.0,0.0,0.0,0.0,0.0,0.0,0.0,-1.3643,-1.4229,-1.4747,-1.5235,-1.5756,-1.6379,-1.7748,-1.8831,-1.9348,-2.031,-2.0863,-2.0723,-2.0694,-2.0899,-2.1314,-2.1873,-2.2594,-2.3649,-2.518,-2.6394,-2.6789,-2.7354,-2.7765,-2.7825,-2.7786,-2.7969,-2.845,-2.851,-2.8378,-2.8414,-2.8462,-2.8498,-2.8402,-2.7714,-2.6994,-2.6934,-2.6251,-2.5533,-2.5132,-2.5352,-2.5753,-2.6082,-2.6377,-2.6903,-2.7687,-2.7805,-2.7566,-2.6975,-2.6793,-2.6905,-3.6266,-3.6266,-3.6266,-3.6266,-3.6254,-3.6125,-3.581,-3.538,-3.5338,-3.5021,-3.459,-3.4009,-3.3549,-3.3112,-3.2216,-3.1583,-3.1134,-3.0698,-3.0732,-3.1122,-3.1559,-3.1743,-3.1836,-3.2124,-3.1549,-3.0227,-2.9627,-2.8956,-2.8222,-2.8449,-2.8858,-2.9409,-3.0299,-3.0683,-3.0481,0.0,0.0,0.0,-2.8462,-2.851,-2.851,-2.851,-2.7954,-2.691,-2.5937,0.0,-2.2462,-2.1933,-2.1416,-2.0767,-1.972,0.0,0.0,0.0,0.0,0.0,0.0,0.0,0.0,0.0,0.0,0.0,-1.7785,-1.7327,-1.5442,-1.609,-1.6883,-1.74,-1.7941,-1.8624,-1.9597,-2.0358,-2.1007,-2.1536,-2.2192,-2.224,-2.1392,-2.1272,-2.1278,-2.1392,-2.1873,-2.2594,-2.3713,-2.5516,-2.6753,-2.6946,-2.7765,-2.8278,-2.8354,-2.833,-2.839,-2.8498,-2.851,-2.851,-2.851,-2.851,-2.851,-2.8426,-2.8017,-2.744,-2.6958,-2.643,-2.5648,-2.4874,-2.4951,-2.5427,-2.5821,-2.6158,-2.6891,-2.8242,-2.8521,-2.8324,-2.7763,-2.7593,-2.7439,-3.6266,0.0,-3.6266,-3.6266,0.0,-3.6266,-3.6128,-3.5875,-3.5623,-3.5256,-3.4785,-3.4521,-3.3981,-3.3235,-3.2273,-3.1341,-3.0583,-2.9814,-2.9757,-3.0296,-3.1042,-3.1513,-3.1825,-3.2416,-3.2116,-3.095,-2.9844,-2.9118,-2.8735,-2.8587,-2.8885,-2.9601,-3.0617,-3.1012,-3.0706,-3.0168,-2.9391,-2.8351,-2.8471,-2.8471,-2.8339,-2.8419,-2.8138,-2.7332,0.0,0.0,0.0,0.0,0.0,0.0,0.0,0.0,0.0,0.0,0.0,-1.6041,-1.63,-1.6525,-1.6677,-1.8109,-1.92,-1.9756,-2.0767,-2.0466,-1.8326,-1.8662,-1.9083,-1.936,-1.9865,-2.0502,-2.1308,-2.1873,-2.239,-2.2951,-2.3436,-2.3424,-2.2702,-2.2342,-2.2185,-2.2197,-2.2426,-2.2979,-2.4025,-2.5733,-2.6946,-2.7282,-2.7993,-2.851,-2.851,-2.851,-2.851,-2.851,-2.851,-2.851,-2.851,-2.851,-2.851,-2.845,-2.8065,-2.7618,-2.7342,-2.6837,-2.6238,-2.5528,-2.5629,-2.6024,-2.6334,-2.6667,-2.7346,-2.8611,-2.8837,-2.8699,-2.8547,-2.8405,-2.8043,-3.6266,-3.6266,-3.6266,-3.6266,-3.6266,-3.6266,-3.6266,-3.6297,0.0,0.0,0.0,-3.4969,-3.436,-3.335,-3.2319,-3.1203,-3.017,-2.9079,-2.8896,-2.9538,-3.0434,-3.1192,-3.1836,-3.2628,-3.258,-3.1871,-3.0293,-2.9554,-2.9584,-2.893,-2.9024,-2.9843,-3.0723,-3.09,-3.0446,-2.9925,-2.9189,-2.8288,-2.8402,-2.8435,-2.8219,-2.8391,-2.8218,-2.7729,-2.6767,-2.5504,-2.3998,-2.3433,-2.263,-2.1608,-2.123,-2.0771,-2.0135,-1.9219,-1.8538,-1.8197,-1.8457,-1.8967,-1.9672,-2.0694,-2.1536,-2.2053,-2.2895,-2.2714,-2.1145,-2.1121,-2.1157,-2.1169,-2.1548,-2.2041,-2.2558,-2.3075,-2.3589,-2.4035,-2.4494,-2.4566,-2.3998,-2.3469,-2.3119,-2.3156,-2.3144,-2.3472,-2.441,-2.5877,-2.7042,-2.7498,-2.8077,-2.851,-2.851,-2.851,-2.851,-2.851,-2.851,-2.851,-2.851,-2.851,-2.851,-2.8498,-2.815,-2.7849,-2.7681,-2.733,-2.6837,-2.6273,-2.6542,-2.685,-2.7141,-2.7417,-2.8048,-2.9127,-2.9026,-2.8804,-2.9194,-2.9008,-2.848,-3.6266,-3.6266,-3.6266,-3.6266,-3.6266,-3.6266,-3.6266,-3.6266,-3.6197,-3.6128,-3.609,-3.56,-3.4854,-3.3821,-3.2408,-3.125,-3.0135,-2.8735,-2.8586,0.0,-3.0078,-3.0836,-3.1848,-3.2779,-3.2951,-3.2363,-3.1651,-3.0893,-3.017,-3.0008,-2.9902,-2.9915,-3.0423,-3.0557,-3.0196,-2.971,-2.9073,-2.8314,-2.8486,-2.8468,-2.8191,-2.8219,-2.8088,-2.769,-2.7102,-2.6021,-2.4482,-2.3929,-2.3204,-2.2137,-2.1348,-2.0689,-2.0213,-1.9698,-1.9497,-1.9851,-2.0621,-2.1481,-2.239,-2.3355,-2.4194,-2.4699,-2.4903,-2.4326,-2.2855,-2.3095,-2.3348,-2.3348,-2.3412,-2.364,-2.4112,-2.4638,-2.4951,-2.5083,-2.554,-2.5492,-2.4566,-2.4025,-2.3746,-2.3734,-2.3697,-2.3857,-2.4578,-2.5901,-2.6885,-2.7138,-2.7918,-2.851,-2.851,-2.851,-2.851,-2.851,-2.851,-2.851,-2.851,-2.851,-2.851,-2.851,-2.8438,-2.821,-2.7849,-2.7654,-2.7366,-2.6873,-2.699,-2.7287,-2.7698,-2.8026,-2.8395,-2.9017,-2.8992,-2.8992,-2.9096,-2.8834,-2.8437,-3.6114,-3.6266,-3.6266,-3.6266,-3.6266,-3.6266,-3.6266,-3.6266,-3.6266,-3.6266,-3.6309,-3.6025,-3.537,-3.436,-3.3143,-3.188,-3.0595,-2.9366,-2.9045,-2.9538,-3.0285,-3.1042,-3.1812,-3.281,-3.3143,-3.2879,-3.2386,-3.1777,-3.1135,-3.0928,-3.0649,-3.0275,-3.0619,-3.0765,-3.0631,-3.0229,-2.9627,-2.8754,-2.8392,-2.8104,-2.7817,-2.8099,-2.81,-2.798,-2.7555,-2.6812,-2.5672,-2.4965,-2.422,-2.3311,-2.2568,-2.1984,-2.1596,-2.1249,-2.1211,-2.1598,-2.2227,-2.3116,-2.4281,-2.5254,-2.5889,-2.6129,-2.619,-2.5901,-2.5192,-2.5059,-2.5155,-2.5444,-2.548,-2.5541,-2.5757,-2.5781,-2.5733,-2.5733,-2.5973,-2.5889,-2.5468,-2.5192,-2.4927,-2.4638,-2.4338,-2.4374,-2.4856,-2.5841,-2.6717,-2.7222,-2.8065,-2.8498,-2.851,-2.851,-2.851,-2.851,-2.851,-2.851,-2.851,-2.851,-2.851,-2.851,-2.851,-2.8414,-2.8186,-2.815,-2.7882,-2.7476,-2.7496,-2.7628,-2.778,-2.7877,-2.8283,-2.8805,-2.866,-2.8645,-2.8822,-2.8682,-2.8225,-3.5963,-3.6438,-3.6366,-3.6266,-3.6266,-3.6266,-3.6266,-3.6266,-3.6266,-3.6266,-3.6266,-3.6266,-3.5784,-3.4911,-3.4016,-3.2925,-3.1651,-3.0514,-3.0078,-3.0239,-3.087,-3.1444,-3.1984,-3.2868,-3.3281,-3.3247,-3.2856,-3.2408,-3.1974,-3.161,-3.117,-3.0602,-3.0736,-3.0838,-3.0826,-3.0402,-2.9802,-2.9024,-2.8162,-2.7667,-2.7522,-2.7846,-2.8087,-2.8183,-2.7917,-2.7463,-2.6788,-2.6065,-2.535,-2.4589,-2.399,-2.3467,-2.3041,-2.2798,-2.278,-2.3014,-2.3381,-2.4202,-2.5575,-2.6421,-2.6885,-2.6885,-2.6885,-2.6934,-2.703,-2.6731,-2.6574,-2.6837,-2.6789,-2.6825,-2.6789,-2.6633,-2.6406,-2.631,-2.6406,-2.6358,-2.6142,-2.6093,-2.5889,-2.5372,-2.4951,-2.4855,-2.5276,-2.5769,-2.6514,-2.7512,-2.8089,-2.8342,-2.8474,-2.851,-2.851,-2.851,-2.851,-2.851,-2.851,-2.851,-2.851,-2.851,-2.851,-2.8498,-2.8474,-2.8498,-2.8378,-2.7969,-2.8002,-2.8023,-2.7811,-2.7901,-2.8224,-2.8672,-2.8474,-2.8313,-2.8575,-2.8578,-2.8208,-3.5747,-3.6752,-3.6418,-3.6266,-3.6266,-3.6266,-3.6266,-3.6266,-3.6266,-3.6266,-3.6266,-3.6266,-3.5967,-3.5428,-3.49,-3.4291,-3.3579,-3.2225,-3.1789,-3.2099,-3.1846,-3.1949,-3.2492,-3.3017,-3.3281,-3.3281,-3.3212,-3.2891,-3.2363,-3.1928,-3.1238,-3.0365,-3.0261,-3.0318,-3.0181,-2.9376,-2.8847,-2.8732,-2.7778,-2.7342,-2.7482,-2.7563,-2.7765,-2.8179,-2.7995,-2.7723,-2.7308,-2.7096,-2.6538,-2.5739,-2.5305,-2.4755,-2.4051,-2.3727,-2.356,-2.3563,-2.3982,-2.4786,-2.6101,-2.6673,-2.6934,-2.6885,-2.6946,-2.7138,-2.7596,-2.7596,-2.7318,-2.7066,-2.6922,-2.697,-2.6922,-2.7258,-2.7294,-2.6958,-2.7272,-2.72,-2.637,-2.6093,-2.5901,-2.5372,-2.5192,-2.5216,-2.5228,-2.5673,-2.6478,-2.7488,-2.7738,-2.8053,-2.8426,-2.851,-2.851,-2.851,-2.851,-2.851,-2.851,-2.851,-2.851,-2.851,-2.851,-2.851,-2.851,-2.851,-2.8462,-2.8354,-2.8378,-2.8373,-2.8373,-2.8445,-2.8424,-2.8506,-2.8458,-2.8382,-2.8224,-2.8399,-2.8441,-3.5323,-3.5937,-3.5893,-3.5924,-3.6027,-3.6211,-3.6266,-3.6266,-3.6266,-3.6266,-3.6266,-3.6266,-3.6151,-3.5956,-3.5761,-3.5393,-3.4854,-3.4257,-3.374,-3.3396,-3.3166,-3.304,-3.2982,-3.3166,-3.3281,-3.3281,-3.3281,-3.3017,-3.2431,-3.1708,-3.11,-3.0686,-3.0388,-3.0216,-3.0158,-2.9515,-2.9022,-2.87,-2.8299,-2.8008,-2.778,-2.7603,-2.7784,-2.8327,-2.8086,-2.7839,-2.7671,-2.7321,-2.6917,-2.6571,-2.6127,-2.5733,-2.5436,-2.5087,-2.4887,-2.4943,-2.5356,-2.5961,-2.6753,-2.7234,-2.7521,-2.7654,-2.7783,-2.7957,-2.815,-2.8198,-2.8089,-2.7921,-2.7861,-2.7861,-2.7834,-2.8065,-2.8089,-2.7894,-2.8065,-2.7873,-2.7164,-2.6767,-2.6286,-2.5468,-2.5023,-2.4711,-2.4602,-2.5131,-2.6045,-2.7006,-2.7462,-2.7957,-2.8426,-2.851,-2.851,-2.851,-2.851,-2.851,-2.851,-2.851,-2.851,-2.851,-2.851,-2.851,-2.851,-2.851,-2.851,-2.851,-2.851,-2.851,-2.8474,-2.851,-2.851,-2.851,-2.851,-2.8505,-2.8485,-2.849,-2.8424,-3.4566,-3.5042,-3.5498,-3.569,-3.5768,-3.6264,-3.6404,-3.632,-3.6266,-3.6266,-3.6266,-3.6266,-3.6266,-3.6266,-3.6266,-3.6059,-3.5738,-3.5588,-3.5129,-3.4418,-3.4142,-3.3821,-3.3499,-3.3338,-3.3281,-3.3281,-3.3281,-3.3005,-3.2443,-3.1651,-3.1157,-3.0962,-3.048,-3.0216,-3.0158,-2.9644,-2.9165,-2.8724,-2.8532,-2.8252,-2.8003,-2.7664,-2.7879,-2.848,-2.8158,-2.7912,-2.7881,-2.7409,-2.721,-2.7317,-2.6941,-2.6697,-2.6683,-2.6313,-2.5998,-2.5846,-2.6114,-2.6517,-2.6969,-2.7452,-2.7829,-2.8099,-2.8351,-2.851,-2.851,-2.851,-2.851,-2.8486,-2.851,-2.8474,-2.851,-2.851,-2.851,-2.851,-2.851,-2.8258,-2.7522,-2.6994,-2.625,-2.5264,-2.4614,-2.4266,-2.4181,-2.4927,-2.5997,-2.6982,-2.7606,-2.8222,-2.8763,-2.8979,-2.8979,-2.8931,-2.8847,-2.8667,-2.8558,-2.851,-2.851,-2.851,-2.851,-2.851,-2.851,-2.851,-2.851,-2.851,-2.851,-2.851,-2.851,-2.851,-2.851,-2.851,-2.851,-2.855,-2.8597,-2.849,-2.8257,-3.3407,-3.4627,-3.5467,-3.563,-3.5678,-3.6521,-3.6647,-3.6157,-3.6211,-3.6266,-3.6223,-3.6266,-3.6277,-3.6266,-3.6266,-3.6254,-3.6151,-3.5761,-3.5497,-3.5279,-3.4475,-3.4016,-3.3935,-3.3511,-3.3292,-3.3281,-3.3281,-3.3028,-3.2512,-3.2009,-3.149,-3.1019,-3.0491,-3.0216,-3.0102,-2.9487,-2.8969,-2.8634,-2.8044,-2.7734,-2.7918,-2.769,-2.791,-2.8489,-2.8205,-2.7909,-2.7853,-2.7452,-2.7389,-2.7817,-2.7735,-2.7711,-2.7598,-2.7191,-2.6614,-2.5925,-2.5826,-2.6038,-2.6487,-2.6981,-2.7441,-2.7881,-2.8271,-2.851,-2.851,-2.851,-2.851,-2.851,-2.851,-2.851,-2.851,-2.851,-2.851,-2.851,-2.851,-2.8053,-2.7066,-2.6514,-2.5697,-2.4747,-2.4109,-2.4049,-2.4422,-2.5396,-2.6442,-2.744,-2.815,-2.8799,-2.9605,-2.9917,-2.9893,-2.9797,-2.952,-2.91,-2.8655,-2.851,-2.851,-2.851,-2.851,-2.851,-2.851,-2.851,-2.851,-2.851,-2.851,-2.851,-2.851,-2.851,-2.851,-2.851,-2.851,-2.855,-2.859,-2.855,-2.8312,-3.3233,-3.4045,-3.4456,-3.4641,-3.4801,-3.5541,-3.5558,-3.5168,-3.5146,-3.5279,-3.5467,-3.5664,-3.5829,-3.6004,-3.6223,-3.6266,-3.6309,-3.6071,-3.5818,-3.5508,-3.5141,-3.4636,-3.4004,-3.3809,-3.3556,-3.3315,-3.3281,-3.3189,-3.2925,-3.2179,-3.1685,-3.1375,-3.0641,-3.0216,-3.0045,-2.9308,-2.8656,-2.8218,-2.7637,-2.7251,-2.7056,-2.7391,-2.788,-2.8329,-2.7818,-2.7591,-2.7702,-2.7144,-2.688,-2.6992,-2.7167,-2.7302,-2.7318,-2.695,-2.6474,-2.5923,-2.5556,-2.5611,-2.6093,-2.6539,-2.7021,-2.7615,-2.8179,-2.851,-2.851,-2.851,-2.851,-2.851,-2.851,-2.851,-2.851,-2.851,-2.851,-2.851,-2.8498,-2.8062,-2.703,-2.6154,-2.5192,-2.423,-2.3637,-2.3713,-2.4831,-2.5648,-2.6647,-2.7957,-2.8691,-2.9304,-2.9857,-3.0098,-3.0098,-3.0074,-2.9929,-2.9629,-2.9088,-2.8691,-2.851,-2.851,-2.851,-2.851,-2.851,-2.851,-2.851,-2.851,-2.851,-2.851,-2.851,-2.851,-2.851,-2.851,-2.851,-2.851,-2.851,-2.851,-2.824,-3.2675,-3.3146,-3.3628,-3.3827,-3.39,-3.4652,-3.4733,-3.4315,-3.4293,-3.4399,-3.464,-3.5045,-3.5369,-3.5577,-3.6059,-3.6266,-3.6266,-3.6266,-3.6082,-3.5772,-3.5588,-3.5152,-3.4532,-3.4153,-3.3832,-3.3522,-3.325,-3.3131,-3.2917,-3.2078,-3.1542,-3.1219,-3.0347,-2.9861,-2.9589,-2.8865,-2.8198,-2.7718,-2.722,-2.6708,-2.6317,-2.6866,-2.7463,-2.7756,-2.7379,-2.7139,-2.7352,-2.6732,-2.6267,-2.6135,-2.6279,-2.6475,-2.6682,-2.6475,-2.6113,-2.5675,-2.5242,-2.52,-2.5633,-2.603,-2.6599,-2.7348,-2.8059,-2.851,-2.851,-2.851,-2.851,-2.851,-2.851,-2.8546,-2.8727,-2.8775,-2.8691,-2.8558,-2.851,-2.8162,-2.7234,-2.6226,-2.5107,-2.4143,-2.3926,-2.4314,-2.5168,-2.6081,-2.714,-2.8378,-2.8967,-2.9532,-3.0158,-3.0182,-3.0182,-3.0266,-2.9989,-2.9773,-2.9472,-2.9172,-2.8703,-2.8631,-2.8655,-2.8619,-2.8631,-2.8607,-2.8595,-2.8558,-2.8534,-2.8522,-2.8522,-2.8534,-2.8534,-2.8558,-2.851,-2.851,-2.851,-2.851,-2.8313,-3.1635,-3.2128,-3.3009,-3.3296,-3.3261,-3.4064,-3.4242,-3.3749,-3.3729,-3.3686,-3.3807,-3.4622,-3.4918,-3.5035,-3.5708,-3.6211,-3.6102,-3.6102,-3.6188,-3.6162,-3.5772,-3.5531,-3.5324,-3.4544,-3.4073,-3.3912,-3.3247,-3.2706,-3.2376,-3.1595,-3.0894,-3.0209,-2.9637,-2.9125,-2.871,-2.82,-2.7673,-2.7132,-2.6645,-2.6147,-2.579,-2.6129,-2.6658,-2.7043,-2.6724,-2.6557,-2.6832,-2.6217,-2.5711,-2.5349,-2.5264,-2.5411,-2.5757,-2.579,-2.5622,-2.5211,-2.4786,-2.4786,-2.5147,-2.5589,-2.6216,-2.7115,-2.799,-2.8515,-2.8579,-2.8615,-2.8679,-2.8715,-2.8691,-2.8787,-2.922,-2.9304,-2.9148,-2.8655,-2.8703,-2.845,-2.7717,-2.6743,-2.5516,-2.4374,-2.4578,-2.524,-2.5673,-2.6707,-2.7885,-2.8498,-2.9076,-2.9677,-3.0398,-3.0314,-3.0338,-3.047,-3.0146,-2.9713,-2.9701,-2.9653,-2.9148,-2.8775,-2.8811,-2.8835,-2.8931,-2.8955,-2.9003,-2.8991,-2.9003,-2.8991,-2.9015,-2.9015,-2.8931,-2.8895,-2.8751,-2.8763,-2.8883,-2.8919,-2.8546,-3.158,-3.1983,-3.2476,-3.2598,-3.2535,-3.3053,-3.3051,-3.2684,-3.2664,-3.2714,-3.2942,-3.358,-3.3894,-3.4164,-3.4758,-3.5046,-3.5035,-3.5091,-3.5488,-3.6122,-3.6094,-3.5776,-3.5455,-3.5187,-3.4682,-3.3913,-3.3033,-3.2269,-3.1763,-3.0904,-3.0077,-2.9482,-2.8719,-2.824,-2.804,-2.7338,-2.6696,-2.6167,-2.5654,-2.5167,-2.4735,-2.4971,-2.545,-2.6061,-2.5856,-2.568,-2.5666,-2.5587,-2.5416,-2.5142,-2.5019,-2.4927,-2.4965,-2.5197,-2.51,-2.4612,-2.4536,-2.4536,-2.4742,-2.5158,-2.5768,-2.6708,-2.7836,-2.8609,-2.8896,-2.9282,-2.9544,-2.9581,-2.9593,-2.9701,-2.9809,-2.9845,-2.9761,-2.9605,-2.9593,-2.9184,-2.8246,-2.7019,-2.5829,-2.5131,-2.5432,-2.6105,-2.6863,-2.7837,-2.8366,-2.8859,-2.94,-2.9965,-3.0182,-3.0146,-3.011,-3.023,-2.9869,-2.9605,-2.9581,-2.9749,-2.9749,-2.9484,-2.9448,-2.928,-2.9328,-2.9364,-2.94,-2.9424,-2.9448,-2.946,-2.9484,-2.9472,-2.9388,-2.9472,-2.9532,-2.9556,-2.9581,-2.9376,-2.9051,-3.1515,-3.1717,-3.191,-3.2006,-3.1888,-3.2131,-3.2051,-3.1884,-3.1813,-3.1873,-3.2092,-3.2725,-3.3023,-3.3121,-3.3713,-3.3936,-3.3786,-3.3776,-3.4168,-3.4958,-3.5477,-3.5418,-3.508,-3.4719,-3.42,-3.333,-3.2299,-3.1545,-3.1011,-3.0107,-2.9312,-2.8594,-2.8026,-2.7521,-2.7249,-2.6614,-2.6025,-2.544,-2.4981,-2.4597,-2.435,-2.439,-2.4775,-2.5314,-2.5226,-2.5121,-2.5034,-2.5057,-2.4933,-2.4644,-2.4466,-2.4424,-2.4446,-2.4621,-2.4543,-2.437,-2.4271,-2.4285,-2.4505,-2.4784,-2.5402,-2.6473,-2.7676,-2.8632,-2.91,-2.9774,-3.0074,-3.0086,-3.0062,-3.0212,-3.0326,-3.0374,-3.0501,-3.0706,-3.0308,-2.9653,-2.8607,-2.7645,-2.6731,-2.6286,-2.6394,-2.6911,-2.7342,-2.8114,-2.8486,-2.8787,-2.916,-2.9641,-2.9665,-2.9605,-2.9556,-2.9496,-2.9328,-2.9232,-2.9352,-2.9737,-3.0242,-3.0254,-3.0284,-2.9977,-2.9833,-2.9833,-2.9857,-2.9833,-2.9833,-2.9809,-2.9821,-2.9881,-2.9881,-3.0074,-3.0182,-2.9989,-2.9869,-2.9917,-2.9701,-3.1377,-3.1377,-3.1442,-3.1433,-3.1469,-3.1469,-3.1506,-3.1396,-3.1451,-3.1402,-3.1546,-3.2214,-3.2319,-3.2157,-3.273,-3.2854,-3.2571,-3.2509,-3.2566,-3.2907,-3.3607,-3.4146,-3.4183,-3.3475,-3.279,-3.2216,-3.1196,-3.0422,-2.989,-2.9219,-2.8499,-2.7629,-2.7422,-2.7091,-2.6439,-2.6016,-2.5509,-2.493,-2.4637,-2.439,-2.4156,-2.439,-2.4578,-2.4833,-2.4833,-2.4815,-2.4767,-2.4711,-2.4381,-2.3842,-2.4023,-2.4238,-2.4304,-2.4053,-2.4202,-2.4398,-2.4043,-2.4196,-2.443,-2.4638,-2.5239,-2.6497,-2.7552,-2.8418,-2.9331,-3.0024,-3.0386,-3.0362,-3.0326,-3.0501,-3.0862,-3.097,-3.1163,-3.1464,-3.0802,-2.9821,-2.8871,-2.8631,-2.815,-2.75,-2.7524,-2.7558,-2.7186,-2.7873,-2.7945,-2.7849,-2.8077,-2.857,-2.8883,-2.8775,-2.851,-2.851,-2.8631,-2.8967,-2.9124,-2.9749,-3.029,-3.0922,-3.0922,-3.0687,-3.047,-3.0446,-3.047,-3.0422,-3.0314,-3.0242,-3.0302,-3.0458,-3.0482,-3.0555,-3.0482,-3.023,-3.0266,-3.0446,-3.0362,-3.1377,-3.1377,-3.1377,-3.1377,-3.1377,-3.1377,-3.1377,-3.1377,-3.1377,-3.1367,-3.1442,-3.1734,-3.1702,-3.1354,-3.1732,-3.1711,-3.1364,-3.1265,-3.1265,-3.1333,-3.1564,-3.2348,-3.2786,-3.2219,-3.1715,-3.1366,-3.024,-2.924,-2.8668,-2.8155,-2.758,-2.6849,-2.6648,-2.6405,-2.602,-2.547,-2.4867,-2.4455,-2.435,-2.4095,-2.3822,-2.4131,-2.4291,-2.435,-2.4399,-2.4399,-2.4399,-2.4686,-2.4607,-2.4212,-2.458,-2.4609,-2.4502,-2.459,-2.4619,-2.4512,-2.4619,-2.47,-2.4764,-2.4847,-2.5441,-2.6556,-2.7723,-2.8828,-2.9634,-3.0676,-3.116,-3.1296,-3.1296,-3.1308,-3.1464,-3.1476,-3.1585,-3.1585,-3.1091,-3.0573,-3.0182,-2.9893,-2.9532,-2.9256,-2.8679,-2.8102,-2.763,-2.7414,-2.727,-2.6923,-2.72,-2.7678,-2.8158,-2.8089,-2.7897,-2.7894,-2.8102,-2.857,-2.9051,-2.9689,-3.041,-3.1308,-3.1488,-3.1416,-3.1296,-3.1284,-3.132,-3.1344,-3.1115,-3.1007,-3.1175,-3.1356,-3.1296,-3.1067,-3.1115,-3.1043,-3.1199,-3.1344,-3.1067,-3.1377,-3.1377,-3.1377,-3.1377,-3.1377,-3.1377,-3.1377,-3.1377,-3.1368,-3.1396,-3.1402,-3.1483,-3.1205,-3.0719,-3.0872,-3.0591,-3.0077,-3.002,-3.002,-3.007,-3.007,-3.0752,-3.1421,-3.1141,-3.0757,-3.0459,-2.9391,-2.8574,-2.7916,-2.7413,-2.6999,-2.6645,-2.6344,-2.6195,-2.5991,-2.5424,-2.4831,-2.4523,-2.4312,-2.4015,-2.3849,-2.4073,-2.4183,-2.4211,-2.4211,-2.4211,-2.4251,-2.4637,-2.4769,-2.4688,-2.4899,-2.5029,-2.5,-2.5,-2.5039,-2.4941,-2.5059,-2.5026,-2.4913,-2.4911,-2.5386,-2.6508,-2.7793,-2.8892,-2.9879,-3.1018,-3.1705,-3.1669,-3.1705,-3.1705,-3.1705,-3.1705,-3.1705,-3.1669,-3.1428,-3.1151,-3.0958,-3.0555,-3.0326,-2.9977,-2.9364,-2.8522,-2.7873,-2.7609,-2.72,-2.6887,-2.7344,-2.7714,-2.8038,-2.7666,-2.7534,-2.775,-2.8089,-2.8631,-2.9196,-2.9809,-3.053,-3.1416,-3.1693,-3.1705,-3.1705,-3.1705,-3.1681,-3.1645,-3.1681,-3.1705,-3.1705,-3.1705,-3.1609,-3.1512,-3.1693,-3.1705,-3.1705,-3.1705,-3.1476,-3.1377,-3.1377,-3.1377,-3.1377,-3.1377,-3.1377,-3.1377,-3.1377,-3.1377,-3.1396,-3.1313,-3.1359,-3.0871,-3.014,-3.0202,-2.9742,-2.9044,-2.9153,-2.9103,-2.9153,-2.9213,-2.9726,-3.0412,-3.017,-2.981,-2.9424,-2.8757,-2.805,-2.7493,-2.7118,-2.6845,-2.6627,-2.6564,-2.6389,-2.614,-2.5699,-2.5234,-2.484,-2.4523,-2.4275,-2.4156,-2.4183,-2.4202,-2.4211,-2.4211,-2.4211,-2.4301,-2.4646,-2.4864,-2.4883,-2.5054,-2.5313,-2.5596,-2.5312,-2.5332,-2.5479,-2.5352,-2.5185,-2.5145,-2.4938,-2.5176,-2.6522,-2.7589,-2.8642,-2.9874,-3.0925,-3.1528,-3.1629,-3.1661,-3.1705,-3.1693,-3.1669,-3.156,-3.15,-3.1512,-3.1271,-3.1007,-3.0922,-3.0814,-3.0266,-2.9749,-2.8835,-2.821,-2.7969,-2.7957,-2.6898,-2.739,-2.8005,-2.8242,-2.8258,-2.8138,-2.815,-2.8486,-2.8859,-2.94,-2.9953,-3.0699,-3.1476,-3.1645,-3.1705,-3.1705,-3.1705,-3.1705,-3.1705,-3.1705,-3.1705,-3.1705,-3.1705,-3.1705,-3.1705,-3.1705,-3.1705,-3.1705,-3.1705,-3.1573,-3.1377,-3.1377,-3.1377,-3.1377,-3.1377,-3.1377,-3.1377,-3.1377,-3.1377,-3.1212,-3.0974,-3.0928,-3.047,-2.9727,-2.9727,-2.9434,-2.9021,-2.8984,-2.8984,-2.8984,-2.8984,-2.9103,-2.9366,-2.9107,-2.8825,-2.8536,-2.7893,-2.7419,-2.7216,-2.6884,-2.6691,-2.6636,-2.6582,-2.6545,-2.6443,-2.6039,-2.569,-2.5295,-2.4891,-2.4523,-2.4266,-2.422,-2.4211,-2.4211,-2.4211,-2.4211,-2.4301,-2.4646,-2.4892,-2.5011,-2.5305,-2.5567,-2.5674,-2.5625,-2.5625,-2.5615,-2.5615,-2.5566,-2.5557,-2.5507,-2.5795,-2.6683,-2.7494,-2.8476,-2.9521,-3.0532,-3.1128,-3.135,-3.1572,-3.1705,-3.1693,-3.1332,-3.1151,-3.1055,-3.0754,-3.0441,-3.0386,-3.0983,-3.1247,-3.1007,-3.0037,-2.8895,-2.7846,-2.7498,-2.7354,-2.7042,-2.7534,-2.8246,-2.8558,-2.8775,-2.8679,-2.8595,-2.8631,-2.9027,-2.9821,-3.0338,-3.0939,-3.1488,-3.1633,-3.1705,-3.1705,-3.1705,-3.1705,-3.1705,-3.1705,-3.1705,-3.1705,-3.1705,-3.1705,-3.1705,-3.1705,-3.1705,-3.1705,-3.1705,-3.1717,-3.1377,-3.1377,-3.1377,-3.1377,-3.1377,-3.1377,-3.1377,-3.1377,-3.1377,-3.1157,-3.0855,-3.0781,-3.0332,-2.9599,-2.9613,-2.936,-2.9058,-2.8984,-2.8984,-2.8984,-2.8984,-2.8984,-2.8966,-2.8773,-2.859,-2.8342,-2.7831,-2.7463,-2.7132,-2.682,-2.6636,-2.6591,-2.6591,-2.6582,-2.6581,-2.6188,-2.592,-2.5617,-2.512,-2.4716,-2.4523,-2.4293,-2.4211,-2.4211,-2.4211,-2.4211,-2.426,-2.4637,-2.4843,-2.5039,-2.5382,-2.5684,-2.5684,-2.5684,-2.5684,-2.5684,-2.5684,-2.5684,-2.5684,-2.5732,-2.5994,-2.6678,-2.7278,-2.8117,-2.9048,-3.0023,-3.0701,-3.1071,-3.1439,-3.1705,-3.1681,-3.1235,-3.0898,-3.0446,-3.0037,-2.9556,-2.9328,-3.0122,-3.097,-3.079,-2.9917,-2.9051,-2.827,-2.7846,-2.7798,-2.8017,-2.8414,-2.9027,-2.9208,-2.9352,-2.9136,-2.9003,-2.8871,-2.922,-3.0134,-3.0771,-3.124,-3.1585,-3.1669,-3.1705,-3.1705,-3.1705,-3.1705,-3.1705,-3.1705,-3.1705,-3.1705,-3.1705,-3.1705,-3.1705,-3.1705,-3.1705,-3.1705,-3.1705,-3.1705,-3.1286,-3.1295,-3.135,-3.1377,-3.1377,-3.1377,-3.1377,-3.1377,-3.1377,-3.1112,-3.0754,-3.0708,-3.0185,-2.9599,-2.9512,-2.9319,-2.9067,-2.8984,-2.8984,-2.8984,-2.8984,-2.8984,-2.8966,-2.892,-2.8792,-2.8452,-2.7948,-2.7572,-2.7251,-2.6839,-2.66,-2.6591,-2.6591,-2.6591,-2.6554,-2.6333,-2.614,-2.603,-2.5368,-2.4922,-2.4766,-2.4486,-2.422,-2.4211,-2.4339,-2.4284,-2.4288,-2.4538,-2.4833,-2.4883,-2.5333,-2.5586,-2.5645,-2.5684,-2.5684,-2.5684,-2.5684,-2.5684,-2.5684,-2.5732,-2.5927,-2.6458,-2.6849,-2.7531,-2.8527,-2.9509,-3.0283,-3.088,-3.1306,-3.1765,-3.1777,-3.1271,-3.0718,-3.0182,-2.9641,-2.8847,-2.8282,-2.9003,-2.9701,-2.9797,-2.9617,-2.9124,-2.9051,-2.8895,-2.8919,-2.9027,-2.9448,-2.9845,-3.0086,-3.0134,-3.0062,-2.9857,-2.9797,-2.946,-3.0206,-3.0999,-3.1536,-3.1597,-3.1669,-3.1886,-3.1934,-3.2199,-3.2235,-3.1777,-3.1705,-3.1753,-3.1753,-3.1705,-3.1705,-3.1705,-3.1705,-3.1705,-3.1705,-3.1705,-3.1753,-3.0892,-3.0919,-3.124,-3.1377,-3.1377,-3.1377,-3.1377,-3.1377,-3.1377,-3.0965,-3.0369,-3.0296,-2.9883,-2.9278,-2.9085,-2.903,-2.8993,-2.8984,-2.8984,-2.8984,-2.8984,-2.8984,-2.8984,-2.8984,-2.892,-2.87,-2.8196,-2.7813,-2.7481,-2.6995,-2.6619,-2.6591,-2.6591,-2.6591,-2.6573,-2.6499,-2.648,-2.6342,-2.5628,-2.5225,-2.506,-2.4652,-2.4275,-2.4312,-2.456,-2.456,-2.4371,-2.4477,-2.4578,-2.4627,-2.5088,-2.5352,-2.544,-2.5586,-2.5684,-2.5684,-2.5684,-2.5684,-2.5684,-2.5684,-2.5878,-2.6149,-2.6428,-2.7088,-2.8023,-2.9059,-2.9954,-3.0806,-3.1425,-3.1922,-3.2298,-3.1601,-3.0802,-3.0182,-2.9653,-2.8907,-2.8198,-2.8338,-2.8871,-2.8883,-2.9063,-2.9448,-2.9532,-2.9821,-3.0158,-3.0422,-3.0915,-3.1432,-3.1853,-3.1721,-3.1492,-3.1204,-3.0946,-3.0446,-3.023,-3.1055,-3.1633,-3.1517,-3.1673,-3.2214,-3.2394,-3.2827,-3.2791,-3.2343,-3.2006,-3.1958,-3.191,-3.1886,-3.1934,-3.209,-3.1934,-3.1765,-3.197,-3.2151,-3.1994,-3.0781,-3.0827,-3.1212,-3.1377,-3.1377,-3.1377,-3.1377,-3.1377,-3.1359,-3.0937,-3.0387,-3.0167,-2.9755,-2.9159,-2.8984,-2.8984,-2.8984,-2.8984,-2.8984,-2.8984,-2.8984,-2.8984,-2.8984,-2.8984,-2.8984,-2.8819,-2.8388,-2.8005,-2.7767,-2.6967,-2.6646,-2.6591,-2.6591,-2.6591,-2.6582,-2.6573,-2.6591,-2.6417,-2.583,-2.5362,-2.5378,-2.479,-2.4569,-2.4633,-2.484,-2.5001,-2.4909,-2.5089,-2.5069,-2.5011,-2.5313,-2.5436,-2.5468,-2.5538,-2.5684,-2.5684,-2.5684,-2.5684,-2.5684,-2.5684,-2.5781,-2.5868,-2.6092,-2.6592,-2.7515,-2.8538,-2.9839,-3.1246,-3.2112,-3.2599,-3.2863,-3.2151,-3.1529,-3.0946,-3.0194,-2.9136,-2.827,-2.8318,-2.8354,-2.8414,-2.8943,-2.9508,-3.0001,-3.0458,-3.1247,-3.1793,-3.2334,-3.2827,-3.3356,-3.2887,-3.2358,-3.1841,-3.1416,-3.1055,-3.0747,-3.1408,-3.1849,-3.1685,-3.2022,-3.2551,-3.2791,-3.3164,-3.314,-3.2815,-3.2551,-3.2503,-3.2515,-3.2659,-3.2551,-3.2454,-3.2503,-3.2572,-3.2584,-3.2572,-3.2427,-3.0552,-3.058,-3.0974,-3.1139,-3.1148,-3.113,-3.1121,-3.1148,-3.1112,-3.0699,-3.013,-3.003,-2.9654,-2.914,-2.8984,-2.8984,-2.8984,-2.8984,-2.8984,-2.8984,-2.8984,-2.8984,-2.8984,-2.8984,-2.8984,-2.8911,-2.8553,-2.8223,-2.7847,-2.7141,-2.6774,-2.671,-2.6674,-2.6591,-2.6591,-2.6591,-2.6591,-2.6344,-2.5812,-2.5405,-2.5139,-2.5038,-2.484,-2.4858,-2.5277,-2.5497,-2.5341,-2.5469,-2.5433,-2.5312,-2.5456,-2.5645,-2.5417,-2.5586,-2.5693,-2.5684,-2.5684,-2.5684,-2.5703,-2.5889,-2.5937,-2.5996,-2.5977,-2.6524,-2.7455,-2.8815,-3.0199,-3.2156,-3.2711,-3.3033,-3.3068,-3.2647,-3.2034,-3.1432,-3.0657,-2.9809,-2.8847,-2.8546,-2.8691,-2.8871,-2.9196,-2.9917,-3.0759,-3.1468,-3.2319,-3.2959,-3.3501,-3.3525,-3.3873,-3.32,-3.2647,-3.2094,-3.1661,-3.1416,-3.1444,-3.201,-3.2202,-3.2034,-3.2671,-3.3392,-3.3404,-3.3428,-3.3334,-3.3359,-3.3597,-3.3573,-3.3549,-3.3296,-3.3044,-3.2959,-3.3188,-3.32,-3.2996,-3.2959,-3.2923,-2.977,-2.9816,-3.0176,-3.0341,-3.0369,-3.0387,-3.036,-3.0378,-3.0406,-3.0085,-2.97,-2.9654,-2.9424,-2.9067,-2.8984,-2.8984,-2.8984,-2.8984,-2.8984,-2.8984,-2.8984,-2.8984,-2.8984,-2.8984,-2.8984,-2.8938,-2.8618,-2.8407,-2.8113,-2.7481,-2.7086,-2.7013,-2.6738,-2.6591,-2.6591,-2.6591,-2.6591,-2.6444,-2.5784,-2.5093,-2.4624,-2.4992,-2.5041,-2.5078,-2.5497,-2.5828,-2.5564,-2.5632,-2.5512,-2.5454,-2.5492,-2.5547,-2.5524,-2.5624,-2.5674,-2.5684,-2.5684,-2.5684,-2.583,-2.6055,-2.6289,-2.6348,-2.6562,-2.7231,-2.8099,-2.9505,-3.1103,-3.2827,-3.27,-3.2775,-3.3094,-3.2442,-3.1729,-3.1416,-3.1151,-3.035,-2.952,-2.9544,-2.9605,-2.9761,-3.0218,-3.1156,-3.207,-3.2719,-3.338,-3.4054,-3.4498,-3.445,-3.4294,-3.3633,-3.3044,-3.2527,-3.2148,-3.1884,-3.1567,-3.2201,-3.2086,-3.2058,-3.2777,-3.3589,-3.3256,-3.3113,-3.3971,-3.4018,-3.415,-3.3923,-3.3481,-3.3253,-3.3298,-3.3464,-3.3681,-3.3537,-3.326,-3.3308,-3.3501,-2.9059,-2.9608,-3.003,-3.0204,-3.0204,-3.0204,-3.0204,-3.0204,-3.0195,-2.9965,-2.9626,-2.9571,-2.936,-2.9039,-2.8984,-2.8984,-2.8984,-2.8984,-2.8984,-2.8984,-2.8984,-2.8984,-2.8984,-2.8984,-2.8984,-2.8938,-2.8828,-2.8773,-2.8425,-2.7765,-2.7169,-2.715,-2.682,-2.6591,-2.6619,-2.6591,-2.6591,-2.6362,-2.5784,-2.5019,-2.4624,-2.4927,-2.528,-2.5212,-2.5894,-2.6114,-2.6078,-2.6059,-2.5913,-2.5825,-2.5816,-2.5724,-2.5619,-2.5583,-2.5684,-2.5713,-2.5996,-2.6113,-2.6152,-2.6309,-2.6514,-2.6719,-2.6965,-2.735,-2.8438,-2.9884,-3.1363,-3.2603,-3.2781,-3.3019,-3.3348,-3.302,-3.2635,-3.2214,-3.1705,-3.1284,-3.0747,-3.0867,-3.0983,-3.1084,-3.1288,-3.2073,-3.2723,-3.3118,-3.3646,-3.433,-3.4643,-3.4619,-3.4462,-3.4066,-3.3561,-3.3032,-3.2759,-3.2466,-3.1998,-3.1977,-3.1491,-3.1433,-3.1786,-3.2405,-3.2359,-3.257,-3.3215,-3.3391,-3.3071,-3.2921,-3.3007,-3.3565,-3.3935,-3.4078,-3.4174,-3.403,-3.3909,-3.4102,-3.4306,-2.83,-2.921,-2.9712,-2.9892,-2.9901,-2.9892,-2.9874,-2.9883,-2.9865,-2.9709,-2.9498,-2.9466,-2.9241,-2.9039,-2.8984,-2.8984,-2.8984,-2.8984,-2.8984,-2.8984,-2.8984,-2.8984,-2.8984,-2.8984,-2.8984,-2.8984,-2.8948,-2.8929,-2.8645,-2.8104,-2.7563,-2.7453,-2.704,-2.6811,-2.6729,-2.6619,-2.6509,-2.6114,-2.5656,-2.501,-2.4514,-2.5001,-2.5323,-2.5592,-2.6078,-2.6591,-2.6591,-2.6554,-2.6407,-2.624,-2.615,-2.6003,-2.5843,-2.5824,-2.5854,-2.5932,-2.6185,-2.647,-2.6598,-2.6775,-2.6894,-2.709,-2.7418,-2.7917,-2.8646,-2.9982,-3.1122,-3.2126,-3.2319,-3.2851,-3.3303,-3.3002,-3.2589,-3.2325,-3.2262,-3.2066,-3.1801,-3.1529,-3.1509,-3.1624,-3.1866,-3.2502,-3.3039,-3.3324,-3.3851,-3.4546,-3.4775,-3.4775,-3.4558,-3.427,-3.3983,-3.3516,-3.3398,-3.2984,-3.2289,-3.1798,-3.1229,-3.0732,-3.1069,-3.1154,-3.1142,-3.1417,-3.1942,-3.1965,-3.1806,-3.2148,-3.2354,-3.3533,-3.4628,-3.4437,-3.4378,-3.4607,-3.4655,-3.4775,-3.4811,-2.7461,-2.8184,-2.8828,-2.9113,-2.9113,-2.9067,-2.9085,-2.9177,-2.9122,-2.9122,-2.9094,-2.9039,-2.9048,-2.8984,-2.8984,-2.8984,-2.8984,-2.8984,-2.8984,-2.8984,-2.8984,-2.8984,-2.8984,-2.8984,-2.8984,-2.8984,-2.8984,-2.8984,-2.8893,-2.8544,-2.8278,-2.8205,-2.7416,-2.7196,-2.6985,-2.6729,-2.6252,-2.5911,-2.5454,-2.5056,-2.4698,-2.4955,-2.5344,-2.5598,-2.6105,-2.6591,-2.6591,-2.6591,-2.6564,-2.6444,-2.6379,-2.6306,-2.6177,-2.6054,-2.6018,-2.6079,-2.6407,-2.6721,-2.6956,-2.726,-2.7539,-2.7819,-2.8091,-2.8397,-2.881,-2.9746,-3.0783,-3.1411,-3.1632,-3.203,-3.2207,-3.2025,-3.2003,-3.2145,-3.2142,-3.1862,-3.1637,-3.1641,-3.1636,-3.1967,-3.2364,-3.2841,-3.3315,-3.3613,-3.3875,-3.4533,-3.458,-3.4531,-3.4482,-3.4278,-3.4265,-3.405,-3.4037,-3.3521,-3.2497,-3.1711,-3.0494,-2.9877,-2.9924,-2.9947,-2.991,-3.0313,-3.0685,-3.0515,-3.0405,-3.1051,-3.1786,-3.2731,-3.3589,-3.4201,-3.458,-3.4726,-3.4775,-3.4775,-3.4823,-2.6233,-2.6918,-2.796,-2.8618,-2.8984,-2.8984,-2.8984,-2.8984,-2.8984,-2.8984,-2.8984,-2.8984,-2.8984,-2.8984,-2.8984,-2.8984,-2.8984,-2.8984,-2.8984,-2.8984,-2.8984,-2.8984,-2.8984,-2.8984,-2.8984,-2.8984,-2.8984,-2.8984,-2.8948,-2.8783,-2.8783,-2.8462,-2.7728,-2.7297,-2.704,-2.6857,-2.6316,-2.5901,-2.5491,-2.512,-2.4872,-2.5065,-2.5372,-2.5436,-2.6169,-2.6545,-2.6591,-2.6591,-2.6591,-2.6599,-2.6509,-2.6433,-2.6393,-2.6195,-2.614,-2.6201,-2.6603,-2.7012,-2.7232,-2.7538,-2.7773,-2.81,-2.831,-2.8514,-2.8654,-2.9237,-2.9848,-3.0345,-3.0845,-3.1356,-3.2137,-3.1949,-3.1798,-3.1971,-3.1877,-3.1621,-3.1492,-3.1545,-3.1666,-3.1891,-3.2392,-3.2866,-3.3361,-3.3867,-3.4157,-3.4446,-3.4372,-3.4237,-3.4078,-3.377,-3.3511,-3.3362,-3.3201,-3.2434,-3.137,-3.046,-2.951,-2.9068,-2.8656,-2.8495,-2.8376,-2.9021,-2.9328,-2.9074,-2.9049,-2.9696,-3.0513,-3.1656,-3.2626,-3.3636,-3.4323,-3.4775,-3.4775,-3.4775,-3.4859,-2.4702,-2.5631,-2.6969,-2.8071,-2.8797,-2.8925,-2.8984,-2.8984,-2.8984,-2.8984,-2.8984,-2.8984,-2.8984,-2.8984,-2.8984,-2.8984,-2.8984,-2.8984,-2.8984,-2.8984,-2.8984,-2.8984,-2.8984,-2.8984,-2.8984,-2.8984,-2.8984,-2.8984,-2.8984,-2.8984,-2.8948,-2.8654,-2.8086,-2.7691,-2.749,-2.7132,-2.6683,-2.6188,-2.5894,-2.5436,-2.5115,-2.5396,-2.5617,-2.5708,-2.6261,-2.6545,-2.6591,-2.6591,-2.6591,-2.6563,-2.6515,-2.6456,-2.6389,-2.6346,-2.6284,-2.6445,-2.6788,-2.7232,-2.7348,-2.766,-2.7978,-2.8256,-2.8262,-2.8301,-2.8398,-2.8717,-2.928,-2.9692,-3.0247,-3.0975,-3.1969,-3.1784,-3.185,-3.2094,-3.1877,-3.1633,-3.1472,-3.1444,-3.1648,-3.1859,-3.2194,-3.2406,-3.2986,-3.3464,-3.3712,-3.3857,-3.3697,-3.34,-3.3001,-3.2639,-3.2174,-3.1971,-3.1819,-3.0885,-2.9771,-2.8824,-2.7919,-2.7156,-2.6793,-2.6635,-2.6724,-2.7482,-2.7731,-2.7306,-2.7486,-2.8222,-2.922,-3.0344,-3.1811,-3.3312,-3.3979,-3.4628,-3.4775,-3.4787,-3.4895,-2.2952,-2.4317,-2.5843,-2.7263,-2.8337,-2.8865,-2.8984,-2.8984,-2.8984,-2.8984,-2.8984,-2.8984,-2.8984,-2.8984,-2.8984,-2.8984,-2.8984,-2.8984,-2.8984,-2.8984,-2.8984,-2.8984,-2.8984,-2.8984,-2.8984,-2.8984,-2.8984,-2.8984,-2.8984,-2.8984,-2.8984,-2.8911,-2.8507,-2.8196,-2.8287,-2.7987,-2.739,-2.6738,-2.6545,-2.6013,-2.5653,-2.5754,-2.5874,-2.6021,-2.6316,-2.6582,-2.6591,-2.6591,-2.6591,-2.66,-2.6591,-2.6571,-2.6544,-2.6544,-2.6552,-2.6598,-2.7049,-2.7365,-2.7438,-2.7985,-2.8208,-2.8281,-2.8301,-2.8301,-2.8344,-2.8558,-2.8771,-2.9134,-2.9766,-3.0543,-3.1156,-3.1565,-3.1973,-3.2347,-3.2181,-3.1877,-3.1797,-3.1434,-3.1646,-3.1722,-3.1611,-3.1716,-3.237,-3.2879,-3.3143,-3.3235,-3.3039,-3.2627,-3.2011,-3.1451,-3.0938,-3.0691,-3.0514,-2.9619,-2.8521,-2.7282,-2.63,-2.5484,-2.5134,-2.5234,-2.5612,-2.6345,-2.6269,-2.5693,-2.6428,-2.7623,-2.8381,-2.9075,-3.0863,-3.2622,-3.3782,-3.4433,-3.4628,-3.4787,-3.4883,-2.1971,-2.2904,-2.4564,-2.5737,-2.6736,-2.8379,-2.8984,-2.8984,-2.8984,-2.8984,-2.8984,-2.8984,-2.8984,-2.8984,-2.8925,-2.8925,-2.8925,-2.8984,-2.8984,-2.8925,-2.8865,-2.8984,-2.8925,-2.8856,-2.8925,-2.8984,-2.8984,-2.8925,-2.8984,-2.8984,-2.8984,-2.892,-2.8801,-2.848,-2.8095,-2.7831,-2.7519,-2.7068,-2.671,-2.6316,-2.5911,-2.5984,-2.6076,-2.6094,-2.6417,-2.66,-2.6591,-2.6591,-2.6591,-2.6591,-2.6591,-2.6591,-2.6591,-2.6591,-2.6591,-2.6691,-2.7107,-2.7593,-2.7862,-2.8237,-2.8291,-2.8301,-2.8301,-2.8301,-2.8344,-2.8398,-2.8504,-2.8751,-2.9505,-3.0395,-3.1304,-3.1875,-3.2389,-3.3207,-3.3152,-3.2659,-3.2352,-3.1833,-3.1676,-3.1586,-3.1472,-3.1428,-3.1807,-3.1951,-3.2202,-3.1812,-3.1524,-3.1195,-3.0628,-3.012,-2.9597,-2.946,-2.9159,-2.8331,-2.7402,-2.6391,-2.5551,-2.4871,-2.4545,-2.453,-2.4949,-2.5434,-2.5614,-2.5476,-2.6324,-2.7143,-2.798,-2.8961,-3.0356,-3.1863,-3.2873,-3.3979,-3.4433,-3.4628,-3.4811,-2.0786,-2.1531,-2.2952,-2.3946,-2.4879,-2.7211,-2.8319,-2.8319,-2.8319,-2.8319,-2.8259,-2.8259,-2.8259,-2.8259,-2.8319,-2.8319,-2.8319,-2.8319,-2.8259,-2.8319,-2.8259,-2.8199,-2.8199,-2.831,-2.814,-2.831,-2.843,-2.8498,-2.8627,-2.8755,-2.8874,-2.8984,-2.8975,-2.8718,-2.837,-2.8272,-2.8058,-2.7701,-2.7416,-2.7141,-2.6848,-2.6701,-2.6636,-2.6609,-2.6646,-2.6747,-2.6637,-2.6591,-2.6591,-2.6591,-2.6591,-2.6591,-2.6591,-2.6591,-2.6591,-2.6745,-2.7008,-2.7539,-2.797,-2.813,-2.8184,-2.8301,-2.8301,-2.8301,-2.8301,-2.8291,-2.8291,-2.8611,-2.9363,-3.0235,-3.1173,-3.1789,-3.2411,-3.3133,-3.3102,-3.2594,-3.2289,-3.1763,-3.1261,-3.1237,-3.1103,-3.1084,-3.1059,-3.1019,-3.1073,-3.0515,-2.989,-2.9649,-2.9343,-2.8837,-2.8465,-2.8315,-2.8004,-2.7353,-2.6597,-2.5695,-2.4896,-2.4251,-2.401,-2.3912,-2.4342,-2.4843,-2.5109,-2.5469,-2.6333,-2.7162,-2.787,-2.8907,-2.9974,-3.0877,-3.175,-3.2862,-3.3979,-3.4237,-3.4225,-1.9514,-2.0202,-2.1145,-2.2013,-2.3014,-2.5501,-2.6744,-2.6926,-2.6926,-2.6926,-2.6935,-2.6865,-2.6848,-2.6857,-2.6926,-2.6926,-2.6926,-2.6926,-2.6926,-2.6926,-2.6918,-2.6918,-2.6918,-2.6918,-2.6918,-2.7039,-2.728,-2.7642,-2.796,-2.8507,-2.8806,-2.8925,-2.8984,-2.8865,-2.881,-2.8737,-2.8553,-2.8232,-2.8067,-2.7774,-2.7509,-2.7555,-2.7307,-2.7169,-2.7022,-2.6875,-2.6719,-2.6591,-2.6591,-2.6591,-2.6591,-2.6591,-2.6591,-2.6591,-2.6591,-2.6691,-2.689,-2.7377,-2.7799,-2.796,-2.8077,-2.8237,-2.8301,-2.8301,-2.8301,-2.8301,-2.8301,-2.8504,-2.9089,-2.99,-3.0733,-3.1237,-3.1723,-3.2074,-3.2308,-3.2042,-3.1843,-3.1442,-3.0912,-3.067,-3.0471,-3.0396,-3.0308,-3.0245,-3.0231,-2.9537,-2.906,-2.8652,-2.8333,-2.7666,-2.7342,-2.7215,-2.6903,-2.6419,-2.5697,-2.515,-2.4507,-2.3929,-2.3494,-2.3376,-2.3839,-2.4251,-2.4599,-2.5204,-2.634,-2.7259,-2.799,-2.8608,-2.9252,-3.0099,-3.0826,-3.1739,-3.2862,-3.3124,-3.3174,-1.9392,-1.9833,-2.0576,-2.1152,-2.1664,-2.2973,-2.4131,-2.5162,-2.5216,-2.5216,-2.5216,-2.5216,-2.5224,-2.5216,-2.5224,-2.5362,-2.5493,-2.5562,-2.5554,-2.5554,-2.5562,-2.5562,-2.5562,-2.5615,-2.5562,-2.5806,-2.6111,-2.6727,-2.7401,-2.8131,-2.8746,-2.8984,-2.8797,-2.8865,-2.8925,-2.8984,-2.8737,-2.8544,-2.8462,-2.8223,-2.7967,-2.7932,-2.7656,-2.7352,-2.7289,-2.7059,-2.6701,-2.6591,-2.6591,-2.6591,-2.6591,-2.6591,-2.6591,-2.6591,-2.6636,-2.689,-2.7043,-2.726,-2.7745,-2.7906,-2.8014,-2.8184,-2.8291,-2.8291,-2.8301,-2.831,-2.831,-2.8558,-2.8887,-2.9605,-3.038,-3.0924,-3.1506,-3.1962,-3.2057,-3.1922,-3.1669,-3.12,-3.0721,-3.0372,-3.0139,-2.9912,-2.976,-2.9605,-2.952,-2.8745,-2.8255,-2.7976,-2.7651,-2.7114,-2.6783,-2.6765,-2.6564,-2.6334,-2.5537,-2.4896,-2.4248,-2.3657,-2.3142,-2.2867,-2.3237,-2.3627,-2.4059,-2.4889,-2.6096,-2.7137,-2.8125,-2.8572,-2.8751,-2.9175,-2.9848,-3.0774,-3.1534,-3.1801,-3.2055,-1.9206,-1.945,-1.9826,-2.0144,-2.0342,-2.0779,-2.1573,-2.2556,-2.3234,-2.3621,-2.3737,-2.3613,-2.3621,-2.3745,-2.3807,-2.3938,-2.4263,-2.427,-2.427,-2.427,-2.4201,-2.427,-2.4263,-2.4263,-2.427,-2.4456,-2.4949,-2.557,-2.6415,-2.7461,-2.814,-2.814,-2.8191,-2.831,-2.8379,-2.8421,-2.8518,-2.856,-2.85,-2.8452,-2.8324,-2.8187,-2.7911,-2.749,-2.7454,-2.7151,-2.6655,-2.6591,-2.6591,-2.6591,-2.6591,-2.6591,-2.6591,-2.6591,-2.6646,-2.6791,-2.6845,-2.7053,-2.7368,-2.7476,-2.7745,-2.8014,-2.8184,-2.8291,-2.8364,-2.8437,-2.8359,-2.8408,-2.881,-2.9273,-2.9962,-3.071,-3.1421,-3.2104,-3.2007,-3.191,-3.146,-3.1,-3.0638,-3.0242,-2.993,-2.9609,-2.9415,-2.9201,-2.8962,-2.8483,-2.8174,-2.793,-2.7761,-2.751,-2.7179,-2.6958,-2.6784,-2.6609,-2.5708,-2.4854,-2.4189,-2.3483,-2.2574,-2.2465,-2.2712,-2.3255,-2.3925,-2.4846,-2.5914,-2.6869,-2.781,-2.7931,-2.8174,-2.8548,-2.8761,-2.9217,-2.9942,-3.0526,-3.0785,-1.9042,-1.9106,-1.9136,-1.92,-1.9136,-1.9264,-1.945,-1.9699,-2.1278,-2.2041,-2.2223,-2.2034,-2.2034,-2.2153,-2.2215,-2.2411,-2.2598,-2.2724,-2.2661,-2.2856,-2.2731,-2.2731,-2.2793,-2.2926,-2.2856,-2.3098,-2.3658,-2.434,-2.5202,-2.6181,-2.6857,-2.6865,-2.6857,-2.6978,-2.7401,-2.7762,-2.8026,-2.8367,-2.8706,-2.8828,-2.8874,-2.8828,-2.8618,-2.7941,-2.7684,-2.7463,-2.6811,-2.6591,-2.6591,-2.6591,-2.6591,-2.6591,-2.6591,-2.6591,-2.6646,-2.6646,-2.6636,-2.6845,-2.7053,-2.7152,-2.7476,-2.7745,-2.7906,-2.828,-2.8456,-2.8594,-2.8516,-2.8672,-2.9095,-2.9401,-3.0043,-3.0358,-3.0911,-3.1242,-3.1263,-3.104,-3.071,-3.0294,-2.9947,-2.9663,-2.9492,-2.9238,-2.9201,-2.906,-2.8983,-2.8423,-2.8214,-2.807,-2.8015,-2.7893,-2.7536,-2.7251,-2.7013,-2.6738,-2.5874,-2.4986,-2.4253,-2.3437,-2.252,-2.2227,-2.2657,-2.3226,-2.3834,-2.4922,-2.6036,-2.6639,-2.728,-2.7536,-2.7711,-2.7755,-2.7853,-2.7755,-2.8291,-2.9278,-2.9596,-1.8776,-1.8801,-1.8994,-1.9136,-1.9136,-1.9136,-1.9264,-1.9571,-1.9711,-2.0087,-2.0272,-2.0272,-2.0335,-2.0526,-2.0589,-2.0779,-2.0982,-2.1235,-2.0919,-2.1046,-2.1052,-2.1425,-2.1299,-2.1551,-2.1488,-2.1734,-2.2292,-2.3285,-2.4263,-2.5002,-2.5493,-2.5493,-2.5493,-2.5745,-2.6363,-2.684,-2.7401,-2.79,-2.8448,-2.8737,-2.8856,-2.8815,-2.8618,-2.8107,-2.771,-2.7473,-2.693,-2.6637,-2.6609,-2.6591,-2.6591,-2.6591,-2.6591,-2.66,-2.66,-2.6591,-2.6738,-2.6865,-2.6965,-2.7138,-2.7411,-2.7723,-2.8032,-2.8377,-2.8602,-2.8696,-2.8887,-2.9156,-2.9407,-2.9669,-2.9921,-3.0142,-3.03,-3.0453,-3.0516,-3.0228,-2.9872,-2.9601,-2.9261,-2.9156,-2.9042,-2.9002,-2.899,-2.8978,-2.8926,-2.8818,-2.8836,-2.8709,-2.8645,-2.8526,-2.7939,-2.7609,-2.7279,-2.6857,-2.6039,-2.5341,-2.4611,-2.3794,-2.2923,-2.2721,-2.2721,-2.3382,-2.4177,-2.5178,-2.6166,-2.6751,-2.7142,-2.7377,-2.7479,-2.7474,-2.7521,-2.7661,-2.7793,-2.854,-2.8593,-1.8686,-1.8716,-1.8969,-1.9136,-1.9136,-1.9136,-1.9206,-1.9328,-1.92,-1.92,-1.9386,-1.9392,-1.945,-1.9577,-1.9577,-1.9711,-2.0043,-2.0113,-2.0297,-2.0176,-2.0113,-2.0425,-2.0482,-2.0609,-2.0919,-2.1235,-2.1796,-2.2661,-2.3395,-2.3837,-2.4147,-2.4147,-2.4201,-2.451,-2.5133,-2.5806,-2.6476,-2.7108,-2.7771,-2.814,-2.837,-2.8596,-2.8641,-2.8196,-2.793,-2.7618,-2.738,-2.7105,-2.7114,-2.7114,-2.716,-2.716,-2.7178,-2.7187,-2.715,-2.715,-2.7215,-2.7216,-2.7299,-2.7428,-2.7639,-2.8015,-2.8227,-2.8644,-2.9436,-2.9541,-2.9385,-2.9607,-2.9499,-2.9711,-2.9959,-3.0115,-3.0226,-3.0373,-3.0073,-2.9751,-2.9526,-2.9242,-2.9124,-2.9055,-2.9018,-2.8969,-2.8996,-2.8996,-2.8924,-2.8924,-2.8957,-2.8966,-2.8975,-2.8975,-2.8425,-2.804,-2.7746,-2.716,-2.6389,-2.572,-2.512,-2.4216,-2.3345,-2.3151,-2.316,-2.3749,-2.45,-2.5626,-2.6437,-2.6817,-2.7168,-2.7444,-2.7566,-2.7651,-2.7679,-2.7678,-2.7842,-2.805,-2.8308,-1.8607,-1.8716,-1.8927,-1.9048,-1.9136,-1.9136,-1.9136,-1.9136,-1.9136,-1.9136,-1.9136,-1.9136,-1.9322,-1.945,-1.9514,-1.9717,-1.9851,-1.9788,-1.9851,-1.9915,-1.9915,-2.0106,-2.0297,-2.0488,-2.0736,-2.1109,-2.1607,-2.1985,-2.2418,-2.2668,-2.2856,-2.2863,-2.2988,-2.3175,-2.3852,-2.4525,-2.5194,-2.5815,-2.6424,-2.6918,-2.7581,-2.8292,-2.8405,-2.84,-2.8361,-2.8168,-2.7902,-2.7756,-2.7803,-2.7767,-2.7684,-2.7666,-2.7666,-2.7638,-2.7666,-2.7647,-2.7629,-2.7656,-2.7693,-2.7713,-2.8089,-2.8484,-2.8615,-2.906,-2.9821,-3.0031,-2.9875,-2.9865,-2.9748,-2.975,-2.9938,-3.0064,-3.0132,-3.0101,-2.9698,-2.939,-2.9163,-2.8993,-2.8984,-2.8984,-2.8984,-2.8984,-2.8984,-2.8984,-2.8984,-2.8984,-2.8984,-2.8984,-2.8984,-2.8966,-2.8709,-2.8517,-2.8361,-2.7673,-2.683,-2.6233,-2.5681,-2.4739,-2.3969,-2.3663,-2.3636,-2.428,-2.512,-2.6205,-2.6903,-2.7105,-2.7381,-2.7687,-2.775,-2.7833,-2.7742,-2.779,-2.7996,-2.8192,-2.8492,-1.8287,-1.8686,-1.8746,-1.8879,-1.9054,-1.9136,-1.9136,-1.9136,-1.9136,-1.9136,-1.9136,-1.9136,-1.9136,-1.92,-1.92,-1.9328,-1.9398,-1.9398,-1.9328,-1.9264,-1.9462,-1.9717,-2.01,-2.0425,-2.0609,-2.0982,-2.1292,-2.1292,-2.167,-2.1607,-2.1544,-2.1607,-2.1607,-2.1915,-2.2529,-2.3186,-2.3816,-2.4401,-2.5005,-2.5554,-2.6409,-2.7211,-2.8009,-2.8133,-2.8263,-2.8056,-2.7884,-2.7831,-2.7813,-2.7813,-2.7877,-2.7914,-2.795,-2.7978,-2.7987,-2.8024,-2.8005,-2.7996,-2.8015,-2.8024,-2.8329,-2.8748,-2.8899,-2.9212,-2.9728,-2.9987,-2.9939,-3.0123,-3.0007,-2.9901,-3.0025,-2.9908,-2.9943,-2.9639,-2.9322,-2.9213,-2.9044,-2.8984,-2.8984,-2.8984,-2.8984,-2.8984,-2.8984,-2.8984,-2.8984,-2.8984,-2.8984,-2.8984,-2.8984,-2.8966,-2.8938,-2.8874,-2.8801,-2.8141,-2.7288,-2.6839,-2.6206,-2.5307,-2.4629,-2.4418,-2.4464,-2.4867,-2.572,-2.6839,-2.7169,-2.7335,-2.7629,-2.807,-2.7978,-2.7996,-2.7849,-2.7889,-2.8086,-2.8369,-2.8661]}]]